<?xml version="1.0" encoding="UTF-8" standalone="no" ?>
<gpx xmlns="http://www.topografix.com/GPX/1/1" xmlns:xsi="http://www.w3.org/2001/XMLSchema-instance" xsi:schemaLocation="http://www.topografix.com/GPX/1/1 http://www.topografix.com/GPX/1/1/gpx.xsd" version="1.1" creator="VisuGPX - https://www.visugpx.com">
  <metadata>
    <name>Le Lot:Cabrerets-St Cirq Lapopie</name>
  </metadata>
  <trk>
    <name><![CDATA[24-OCT-20 06:32:00 PM]]></name>
    <extensions>
      <line xmlns="http://www.topografix.com/GPX/gpx_style/0/2">
        <color>0000FF</color>
        <width>4</width>
      </line>
    </extensions>
    <trkseg>
      <trkpt lat="44.50694" lon="1.65275">
        <ele>149.14</ele>
        <time>2020-10-24T07:32:40Z</time>
      </trkpt>
      <trkpt lat="44.50695" lon="1.65279">
        <ele>148.66</ele>
        <time>2020-10-24T07:33:02Z</time>
      </trkpt>
      <trkpt lat="44.50693" lon="1.65264">
        <ele>146.26</ele>
        <time>2020-10-24T07:33:38Z</time>
      </trkpt>
      <trkpt lat="44.50686" lon="1.65262">
        <ele>149.62</ele>
        <time>2020-10-24T07:33:40Z</time>
      </trkpt>
      <trkpt lat="44.50688" lon="1.65264">
        <ele>149.14</ele>
        <time>2020-10-24T07:33:41Z</time>
      </trkpt>
      <trkpt lat="44.50692" lon="1.65268">
        <ele>149.14</ele>
        <time>2020-10-24T07:33:56Z</time>
      </trkpt>
      <trkpt lat="44.50692" lon="1.65264">
        <ele>148.18</ele>
        <time>2020-10-24T07:34:06Z</time>
      </trkpt>
      <trkpt lat="44.50692" lon="1.65259">
        <ele>148.18</ele>
        <time>2020-10-24T07:34:32Z</time>
      </trkpt>
      <trkpt lat="44.50694" lon="1.65262">
        <ele>148.18</ele>
        <time>2020-10-24T07:35:01Z</time>
      </trkpt>
      <trkpt lat="44.5069" lon="1.65265">
        <ele>148.66</ele>
        <time>2020-10-24T07:35:32Z</time>
      </trkpt>
      <trkpt lat="44.50693" lon="1.65266">
        <ele>148.18</ele>
        <time>2020-10-24T07:36:03Z</time>
      </trkpt>
      <trkpt lat="44.50689" lon="1.65263">
        <ele>148.66</ele>
        <time>2020-10-24T07:36:24Z</time>
      </trkpt>
      <trkpt lat="44.5069" lon="1.65264">
        <ele>149.14</ele>
        <time>2020-10-24T07:36:37Z</time>
      </trkpt>
      <trkpt lat="44.5069" lon="1.65262">
        <ele>149.62</ele>
        <time>2020-10-24T07:37:08Z</time>
      </trkpt>
      <trkpt lat="44.50686" lon="1.65259">
        <ele>148.66</ele>
        <time>2020-10-24T07:37:25Z</time>
      </trkpt>
      <trkpt lat="44.5068" lon="1.65255">
        <ele>148.66</ele>
        <time>2020-10-24T07:37:41Z</time>
      </trkpt>
      <trkpt lat="44.50679" lon="1.65257">
        <ele>148.66</ele>
        <time>2020-10-24T07:37:44Z</time>
      </trkpt>
      <trkpt lat="44.50677" lon="1.65258">
        <ele>148.66</ele>
        <time>2020-10-24T07:37:46Z</time>
      </trkpt>
      <trkpt lat="44.50675" lon="1.65258">
        <ele>149.14</ele>
        <time>2020-10-24T07:37:48Z</time>
      </trkpt>
      <trkpt lat="44.50673" lon="1.6526">
        <ele>148.66</ele>
        <time>2020-10-24T07:37:51Z</time>
      </trkpt>
      <trkpt lat="44.50657" lon="1.65263">
        <ele>148.66</ele>
        <time>2020-10-24T07:38:06Z</time>
      </trkpt>
      <trkpt lat="44.50644" lon="1.65271">
        <ele>147.7</ele>
        <time>2020-10-24T07:38:19Z</time>
      </trkpt>
      <trkpt lat="44.50634" lon="1.65293">
        <ele>148.18</ele>
        <time>2020-10-24T07:38:34Z</time>
      </trkpt>
      <trkpt lat="44.50632" lon="1.65295">
        <ele>148.66</ele>
        <time>2020-10-24T07:38:46Z</time>
      </trkpt>
      <trkpt lat="44.50635" lon="1.65296">
        <ele>148.18</ele>
        <time>2020-10-24T07:39:02Z</time>
      </trkpt>
      <trkpt lat="44.50634" lon="1.65298">
        <ele>148.18</ele>
        <time>2020-10-24T07:39:03Z</time>
      </trkpt>
      <trkpt lat="44.50631" lon="1.65303">
        <ele>148.18</ele>
        <time>2020-10-24T07:39:07Z</time>
      </trkpt>
      <trkpt lat="44.50621" lon="1.65337">
        <ele>148.18</ele>
        <time>2020-10-24T07:39:27Z</time>
      </trkpt>
      <trkpt lat="44.50615" lon="1.65366">
        <ele>147.7</ele>
        <time>2020-10-24T07:39:44Z</time>
      </trkpt>
      <trkpt lat="44.50612" lon="1.6539">
        <ele>148.18</ele>
        <time>2020-10-24T07:39:58Z</time>
      </trkpt>
      <trkpt lat="44.50612" lon="1.65404">
        <ele>147.7</ele>
        <time>2020-10-24T07:40:06Z</time>
      </trkpt>
      <trkpt lat="44.50603" lon="1.65433">
        <ele>147.7</ele>
        <time>2020-10-24T07:40:24Z</time>
      </trkpt>
      <trkpt lat="44.50602" lon="1.65435">
        <ele>147.7</ele>
        <time>2020-10-24T07:40:25Z</time>
      </trkpt>
      <trkpt lat="44.50598" lon="1.65434">
        <ele>147.7</ele>
        <time>2020-10-24T07:40:30Z</time>
      </trkpt>
      <trkpt lat="44.50591" lon="1.65421">
        <ele>150.1</ele>
        <time>2020-10-24T07:40:41Z</time>
      </trkpt>
      <trkpt lat="44.50589" lon="1.65417">
        <ele>150.58</ele>
        <time>2020-10-24T07:40:44Z</time>
      </trkpt>
      <trkpt lat="44.50586" lon="1.65415">
        <ele>151.54</ele>
        <time>2020-10-24T07:40:46Z</time>
      </trkpt>
      <trkpt lat="44.50572" lon="1.65406">
        <ele>153.47</ele>
        <time>2020-10-24T07:41:02Z</time>
      </trkpt>
      <trkpt lat="44.50561" lon="1.65396">
        <ele>156.83</ele>
        <time>2020-10-24T07:41:16Z</time>
      </trkpt>
      <trkpt lat="44.50554" lon="1.6539">
        <ele>158.27</ele>
        <time>2020-10-24T07:41:28Z</time>
      </trkpt>
      <trkpt lat="44.50549" lon="1.65382">
        <ele>160.2</ele>
        <time>2020-10-24T07:41:38Z</time>
      </trkpt>
      <trkpt lat="44.5054" lon="1.65374">
        <ele>162.12</ele>
        <time>2020-10-24T07:41:51Z</time>
      </trkpt>
      <trkpt lat="44.50534" lon="1.65374">
        <ele>162.6</ele>
        <time>2020-10-24T07:42:02Z</time>
      </trkpt>
      <trkpt lat="44.50534" lon="1.65374">
        <ele>163.56</ele>
        <time>2020-10-24T07:42:17Z</time>
      </trkpt>
      <trkpt lat="44.50531" lon="1.65377">
        <ele>163.08</ele>
        <time>2020-10-24T07:42:32Z</time>
      </trkpt>
      <trkpt lat="44.50532" lon="1.65374">
        <ele>162.6</ele>
        <time>2020-10-24T07:42:42Z</time>
      </trkpt>
      <trkpt lat="44.50533" lon="1.65366">
        <ele>163.56</ele>
        <time>2020-10-24T07:42:47Z</time>
      </trkpt>
      <trkpt lat="44.50533" lon="1.65357">
        <ele>163.08</ele>
        <time>2020-10-24T07:42:54Z</time>
      </trkpt>
      <trkpt lat="44.50531" lon="1.6535">
        <ele>163.08</ele>
        <time>2020-10-24T07:42:59Z</time>
      </trkpt>
      <trkpt lat="44.50529" lon="1.65331">
        <ele>163.08</ele>
        <time>2020-10-24T07:43:14Z</time>
      </trkpt>
      <trkpt lat="44.50527" lon="1.65328">
        <ele>163.56</ele>
        <time>2020-10-24T07:43:26Z</time>
      </trkpt>
      <trkpt lat="44.50524" lon="1.65316">
        <ele>163.08</ele>
        <time>2020-10-24T07:43:43Z</time>
      </trkpt>
      <trkpt lat="44.50521" lon="1.65289">
        <ele>163.56</ele>
        <time>2020-10-24T07:43:57Z</time>
      </trkpt>
      <trkpt lat="44.50516" lon="1.65273">
        <ele>165.48</ele>
        <time>2020-10-24T07:44:11Z</time>
      </trkpt>
      <trkpt lat="44.50511" lon="1.65257">
        <ele>168.37</ele>
        <time>2020-10-24T07:44:26Z</time>
      </trkpt>
      <trkpt lat="44.5051" lon="1.65242">
        <ele>170.77</ele>
        <time>2020-10-24T07:44:39Z</time>
      </trkpt>
      <trkpt lat="44.50513" lon="1.65226">
        <ele>173.66</ele>
        <time>2020-10-24T07:44:54Z</time>
      </trkpt>
      <trkpt lat="44.50512" lon="1.65209">
        <ele>176.54</ele>
        <time>2020-10-24T07:45:09Z</time>
      </trkpt>
      <trkpt lat="44.5051" lon="1.65198">
        <ele>178.94</ele>
        <time>2020-10-24T07:45:22Z</time>
      </trkpt>
      <trkpt lat="44.50512" lon="1.65196">
        <ele>179.9</ele>
        <time>2020-10-24T07:45:27Z</time>
      </trkpt>
      <trkpt lat="44.50516" lon="1.65192">
        <ele>182.31</ele>
        <time>2020-10-24T07:45:39Z</time>
      </trkpt>
      <trkpt lat="44.5051" lon="1.65185">
        <ele>184.23</ele>
        <time>2020-10-24T07:45:52Z</time>
      </trkpt>
      <trkpt lat="44.50501" lon="1.65178">
        <ele>186.15</ele>
        <time>2020-10-24T07:46:05Z</time>
      </trkpt>
      <trkpt lat="44.50498" lon="1.65178">
        <ele>186.63</ele>
        <time>2020-10-24T07:46:13Z</time>
      </trkpt>
      <trkpt lat="44.50487" lon="1.65173">
        <ele>188.56</ele>
        <time>2020-10-24T07:46:27Z</time>
      </trkpt>
      <trkpt lat="44.50474" lon="1.65166">
        <ele>190.48</ele>
        <time>2020-10-24T07:46:42Z</time>
      </trkpt>
      <trkpt lat="44.50464" lon="1.65162">
        <ele>191.44</ele>
        <time>2020-10-24T07:46:54Z</time>
      </trkpt>
      <trkpt lat="44.5045" lon="1.65155">
        <ele>192.88</ele>
        <time>2020-10-24T07:47:09Z</time>
      </trkpt>
      <trkpt lat="44.50446" lon="1.65153">
        <ele>193.36</ele>
        <time>2020-10-24T07:47:14Z</time>
      </trkpt>
      <trkpt lat="44.5044" lon="1.65148">
        <ele>193.84</ele>
        <time>2020-10-24T07:47:22Z</time>
      </trkpt>
      <trkpt lat="44.50435" lon="1.65146">
        <ele>194.8</ele>
        <time>2020-10-24T07:47:37Z</time>
      </trkpt>
      <trkpt lat="44.50433" lon="1.65145">
        <ele>194.8</ele>
        <time>2020-10-24T07:47:41Z</time>
      </trkpt>
      <trkpt lat="44.50429" lon="1.65141">
        <ele>195.77</ele>
        <time>2020-10-24T07:47:54Z</time>
      </trkpt>
      <trkpt lat="44.50433" lon="1.65141">
        <ele>196.73</ele>
        <time>2020-10-24T07:48:07Z</time>
      </trkpt>
      <trkpt lat="44.50434" lon="1.65141">
        <ele>196.73</ele>
        <time>2020-10-24T07:48:21Z</time>
      </trkpt>
      <trkpt lat="44.50434" lon="1.65143">
        <ele>196.73</ele>
        <time>2020-10-24T07:48:31Z</time>
      </trkpt>
      <trkpt lat="44.50438" lon="1.65145">
        <ele>196.73</ele>
        <time>2020-10-24T07:48:43Z</time>
      </trkpt>
      <trkpt lat="44.50438" lon="1.65147">
        <ele>197.21</ele>
        <time>2020-10-24T07:48:58Z</time>
      </trkpt>
      <trkpt lat="44.50436" lon="1.65148">
        <ele>197.21</ele>
        <time>2020-10-24T07:49:11Z</time>
      </trkpt>
      <trkpt lat="44.50442" lon="1.65144">
        <ele>197.69</ele>
        <time>2020-10-24T07:49:22Z</time>
      </trkpt>
      <trkpt lat="44.5045" lon="1.65142">
        <ele>199.13</ele>
        <time>2020-10-24T07:49:33Z</time>
      </trkpt>
      <trkpt lat="44.50456" lon="1.6514">
        <ele>199.13</ele>
        <time>2020-10-24T07:49:44Z</time>
      </trkpt>
      <trkpt lat="44.50462" lon="1.65142">
        <ele>199.13</ele>
        <time>2020-10-24T07:49:58Z</time>
      </trkpt>
      <trkpt lat="44.50469" lon="1.65144">
        <ele>198.17</ele>
        <time>2020-10-24T07:50:09Z</time>
      </trkpt>
      <trkpt lat="44.50477" lon="1.65139">
        <ele>198.17</ele>
        <time>2020-10-24T07:50:23Z</time>
      </trkpt>
      <trkpt lat="44.50479" lon="1.65138">
        <ele>199.13</ele>
        <time>2020-10-24T07:50:37Z</time>
      </trkpt>
      <trkpt lat="44.50481" lon="1.65137">
        <ele>199.61</ele>
        <time>2020-10-24T07:50:48Z</time>
      </trkpt>
      <trkpt lat="44.50484" lon="1.65136">
        <ele>200.09</ele>
        <time>2020-10-24T07:50:54Z</time>
      </trkpt>
      <trkpt lat="44.5049" lon="1.65128">
        <ele>202.49</ele>
        <time>2020-10-24T07:51:06Z</time>
      </trkpt>
      <trkpt lat="44.50483" lon="1.65119">
        <ele>204.9</ele>
        <time>2020-10-24T07:51:20Z</time>
      </trkpt>
      <trkpt lat="44.50475" lon="1.65113">
        <ele>206.82</ele>
        <time>2020-10-24T07:51:35Z</time>
      </trkpt>
      <trkpt lat="44.50467" lon="1.65107">
        <ele>208.74</ele>
        <time>2020-10-24T07:51:49Z</time>
      </trkpt>
      <trkpt lat="44.50462" lon="1.65102">
        <ele>210.19</ele>
        <time>2020-10-24T07:51:57Z</time>
      </trkpt>
      <trkpt lat="44.50455" lon="1.651">
        <ele>211.63</ele>
        <time>2020-10-24T07:52:10Z</time>
      </trkpt>
      <trkpt lat="44.50453" lon="1.65099">
        <ele>211.63</ele>
        <time>2020-10-24T07:52:13Z</time>
      </trkpt>
      <trkpt lat="44.50442" lon="1.65094">
        <ele>213.07</ele>
        <time>2020-10-24T07:52:25Z</time>
      </trkpt>
      <trkpt lat="44.50441" lon="1.65093">
        <ele>213.07</ele>
        <time>2020-10-24T07:52:27Z</time>
      </trkpt>
      <trkpt lat="44.50435" lon="1.65092">
        <ele>214.03</ele>
        <time>2020-10-24T07:52:42Z</time>
      </trkpt>
      <trkpt lat="44.50433" lon="1.6509">
        <ele>214.51</ele>
        <time>2020-10-24T07:53:01Z</time>
      </trkpt>
      <trkpt lat="44.50432" lon="1.65087">
        <ele>214.99</ele>
        <time>2020-10-24T07:53:07Z</time>
      </trkpt>
      <trkpt lat="44.50425" lon="1.65083">
        <ele>215.95</ele>
        <time>2020-10-24T07:53:18Z</time>
      </trkpt>
      <trkpt lat="44.50423" lon="1.65083">
        <ele>215.95</ele>
        <time>2020-10-24T07:53:21Z</time>
      </trkpt>
      <trkpt lat="44.50419" lon="1.65083">
        <ele>215.47</ele>
        <time>2020-10-24T07:53:26Z</time>
      </trkpt>
      <trkpt lat="44.50413" lon="1.65081">
        <ele>215.47</ele>
        <time>2020-10-24T07:53:34Z</time>
      </trkpt>
      <trkpt lat="44.50404" lon="1.65074">
        <ele>215.95</ele>
        <time>2020-10-24T07:53:45Z</time>
      </trkpt>
      <trkpt lat="44.50402" lon="1.65073">
        <ele>216.43</ele>
        <time>2020-10-24T07:53:47Z</time>
      </trkpt>
      <trkpt lat="44.50398" lon="1.65063">
        <ele>218.84</ele>
        <time>2020-10-24T07:53:57Z</time>
      </trkpt>
      <trkpt lat="44.50394" lon="1.65057">
        <ele>219.32</ele>
        <time>2020-10-24T07:54:05Z</time>
      </trkpt>
      <trkpt lat="44.5039" lon="1.65046">
        <ele>222.68</ele>
        <time>2020-10-24T07:54:19Z</time>
      </trkpt>
      <trkpt lat="44.50388" lon="1.65039">
        <ele>225.57</ele>
        <time>2020-10-24T07:54:32Z</time>
      </trkpt>
      <trkpt lat="44.50387" lon="1.65037">
        <ele>226.05</ele>
        <time>2020-10-24T07:54:49Z</time>
      </trkpt>
      <trkpt lat="44.50386" lon="1.65037">
        <ele>225.57</ele>
        <time>2020-10-24T07:55:07Z</time>
      </trkpt>
      <trkpt lat="44.50391" lon="1.65037">
        <ele>228.45</ele>
        <time>2020-10-24T07:55:26Z</time>
      </trkpt>
      <trkpt lat="44.5039" lon="1.65029">
        <ele>229.89</ele>
        <time>2020-10-24T07:55:38Z</time>
      </trkpt>
      <trkpt lat="44.50395" lon="1.65028">
        <ele>231.81</ele>
        <time>2020-10-24T07:55:50Z</time>
      </trkpt>
      <trkpt lat="44.50401" lon="1.65027">
        <ele>233.74</ele>
        <time>2020-10-24T07:56:04Z</time>
      </trkpt>
      <trkpt lat="44.50405" lon="1.65025">
        <ele>236.14</ele>
        <time>2020-10-24T07:56:17Z</time>
      </trkpt>
      <trkpt lat="44.50405" lon="1.65027">
        <ele>236.62</ele>
        <time>2020-10-24T07:56:32Z</time>
      </trkpt>
      <trkpt lat="44.50402" lon="1.65031">
        <ele>236.62</ele>
        <time>2020-10-24T07:57:06Z</time>
      </trkpt>
      <trkpt lat="44.50399" lon="1.65026">
        <ele>236.14</ele>
        <time>2020-10-24T07:57:35Z</time>
      </trkpt>
      <trkpt lat="44.50404" lon="1.65031">
        <ele>236.14</ele>
        <time>2020-10-24T07:57:57Z</time>
      </trkpt>
      <trkpt lat="44.50408" lon="1.65028">
        <ele>237.1</ele>
        <time>2020-10-24T07:58:03Z</time>
      </trkpt>
      <trkpt lat="44.50411" lon="1.65017">
        <ele>239.51</ele>
        <time>2020-10-24T07:58:15Z</time>
      </trkpt>
      <trkpt lat="44.50409" lon="1.65007">
        <ele>241.91</ele>
        <time>2020-10-24T07:58:27Z</time>
      </trkpt>
      <trkpt lat="44.50408" lon="1.64997">
        <ele>243.83</ele>
        <time>2020-10-24T07:58:42Z</time>
      </trkpt>
      <trkpt lat="44.50403" lon="1.64983">
        <ele>247.2</ele>
        <time>2020-10-24T07:58:58Z</time>
      </trkpt>
      <trkpt lat="44.50398" lon="1.64973">
        <ele>249.12</ele>
        <time>2020-10-24T07:59:14Z</time>
      </trkpt>
      <trkpt lat="44.50397" lon="1.64963">
        <ele>252</ele>
        <time>2020-10-24T07:59:27Z</time>
      </trkpt>
      <trkpt lat="44.50395" lon="1.64956">
        <ele>255.37</ele>
        <time>2020-10-24T07:59:42Z</time>
      </trkpt>
      <trkpt lat="44.50392" lon="1.6494">
        <ele>257.77</ele>
        <time>2020-10-24T07:59:57Z</time>
      </trkpt>
      <trkpt lat="44.5039" lon="1.64931">
        <ele>259.69</ele>
        <time>2020-10-24T08:00:09Z</time>
      </trkpt>
      <trkpt lat="44.50389" lon="1.64923">
        <ele>263.06</ele>
        <time>2020-10-24T08:00:24Z</time>
      </trkpt>
      <trkpt lat="44.50388" lon="1.64907">
        <ele>265.94</ele>
        <time>2020-10-24T08:00:40Z</time>
      </trkpt>
      <trkpt lat="44.50389" lon="1.64903">
        <ele>267.86</ele>
        <time>2020-10-24T08:00:53Z</time>
      </trkpt>
      <trkpt lat="44.5039" lon="1.649">
        <ele>268.83</ele>
        <time>2020-10-24T08:01:06Z</time>
      </trkpt>
      <trkpt lat="44.50393" lon="1.64904">
        <ele>271.71</ele>
        <time>2020-10-24T08:01:22Z</time>
      </trkpt>
      <trkpt lat="44.50401" lon="1.64911">
        <ele>274.59</ele>
        <time>2020-10-24T08:01:37Z</time>
      </trkpt>
      <trkpt lat="44.50406" lon="1.64911">
        <ele>275.56</ele>
        <time>2020-10-24T08:01:50Z</time>
      </trkpt>
      <trkpt lat="44.50406" lon="1.64897">
        <ele>277.96</ele>
        <time>2020-10-24T08:02:06Z</time>
      </trkpt>
      <trkpt lat="44.50407" lon="1.6489">
        <ele>279.4</ele>
        <time>2020-10-24T08:02:15Z</time>
      </trkpt>
      <trkpt lat="44.50405" lon="1.64876">
        <ele>281.8</ele>
        <time>2020-10-24T08:02:31Z</time>
      </trkpt>
      <trkpt lat="44.504" lon="1.64861">
        <ele>283.25</ele>
        <time>2020-10-24T08:02:45Z</time>
      </trkpt>
      <trkpt lat="44.50398" lon="1.64854">
        <ele>284.21</ele>
        <time>2020-10-24T08:02:59Z</time>
      </trkpt>
      <trkpt lat="44.50398" lon="1.64852">
        <ele>284.69</ele>
        <time>2020-10-24T08:03:06Z</time>
      </trkpt>
      <trkpt lat="44.50395" lon="1.64842">
        <ele>285.65</ele>
        <time>2020-10-24T08:03:18Z</time>
      </trkpt>
      <trkpt lat="44.50391" lon="1.64828">
        <ele>287.09</ele>
        <time>2020-10-24T08:03:32Z</time>
      </trkpt>
      <trkpt lat="44.50391" lon="1.64815">
        <ele>288.53</ele>
        <time>2020-10-24T08:03:47Z</time>
      </trkpt>
      <trkpt lat="44.50385" lon="1.64801">
        <ele>289.97</ele>
        <time>2020-10-24T08:04:04Z</time>
      </trkpt>
      <trkpt lat="44.50382" lon="1.64796">
        <ele>290.46</ele>
        <time>2020-10-24T08:04:16Z</time>
      </trkpt>
      <trkpt lat="44.50381" lon="1.64797">
        <ele>290.46</ele>
        <time>2020-10-24T08:04:46Z</time>
      </trkpt>
      <trkpt lat="44.50379" lon="1.64792">
        <ele>291.42</ele>
        <time>2020-10-24T08:05:02Z</time>
      </trkpt>
      <trkpt lat="44.5038" lon="1.64789">
        <ele>291.9</ele>
        <time>2020-10-24T08:05:17Z</time>
      </trkpt>
      <trkpt lat="44.50379" lon="1.6479">
        <ele>291.42</ele>
        <time>2020-10-24T08:05:34Z</time>
      </trkpt>
      <trkpt lat="44.50377" lon="1.64793">
        <ele>291.42</ele>
        <time>2020-10-24T08:06:00Z</time>
      </trkpt>
      <trkpt lat="44.50378" lon="1.64787">
        <ele>291.9</ele>
        <time>2020-10-24T08:06:30Z</time>
      </trkpt>
      <trkpt lat="44.50381" lon="1.64776">
        <ele>294.78</ele>
        <time>2020-10-24T08:06:43Z</time>
      </trkpt>
      <trkpt lat="44.50375" lon="1.64767">
        <ele>295.74</ele>
        <time>2020-10-24T08:06:56Z</time>
      </trkpt>
      <trkpt lat="44.50372" lon="1.64764">
        <ele>296.22</ele>
        <time>2020-10-24T08:07:14Z</time>
      </trkpt>
      <trkpt lat="44.50371" lon="1.64765">
        <ele>296.22</ele>
        <time>2020-10-24T08:07:36Z</time>
      </trkpt>
      <trkpt lat="44.50361" lon="1.64757">
        <ele>296.7</ele>
        <time>2020-10-24T08:07:58Z</time>
      </trkpt>
      <trkpt lat="44.50346" lon="1.64749">
        <ele>297.67</ele>
        <time>2020-10-24T08:08:16Z</time>
      </trkpt>
      <trkpt lat="44.5034" lon="1.64736">
        <ele>300.55</ele>
        <time>2020-10-24T08:08:32Z</time>
      </trkpt>
      <trkpt lat="44.50334" lon="1.6473">
        <ele>303.43</ele>
        <time>2020-10-24T08:08:48Z</time>
      </trkpt>
      <trkpt lat="44.50327" lon="1.6472">
        <ele>306.8</ele>
        <time>2020-10-24T08:09:05Z</time>
      </trkpt>
      <trkpt lat="44.50318" lon="1.64714">
        <ele>309.2</ele>
        <time>2020-10-24T08:09:20Z</time>
      </trkpt>
      <trkpt lat="44.50303" lon="1.64706">
        <ele>311.6</ele>
        <time>2020-10-24T08:09:37Z</time>
      </trkpt>
      <trkpt lat="44.50291" lon="1.64698">
        <ele>314.97</ele>
        <time>2020-10-24T08:09:55Z</time>
      </trkpt>
      <trkpt lat="44.50284" lon="1.64692">
        <ele>316.41</ele>
        <time>2020-10-24T08:10:07Z</time>
      </trkpt>
      <trkpt lat="44.50276" lon="1.64686">
        <ele>318.33</ele>
        <time>2020-10-24T08:10:19Z</time>
      </trkpt>
      <trkpt lat="44.50271" lon="1.6468">
        <ele>320.26</ele>
        <time>2020-10-24T08:10:31Z</time>
      </trkpt>
      <trkpt lat="44.50258" lon="1.64677">
        <ele>322.18</ele>
        <time>2020-10-24T08:10:45Z</time>
      </trkpt>
      <trkpt lat="44.50256" lon="1.64677">
        <ele>321.7</ele>
        <time>2020-10-24T08:10:47Z</time>
      </trkpt>
      <trkpt lat="44.50251" lon="1.64677">
        <ele>322.66</ele>
        <time>2020-10-24T08:10:53Z</time>
      </trkpt>
      <trkpt lat="44.50245" lon="1.64673">
        <ele>323.62</ele>
        <time>2020-10-24T08:11:00Z</time>
      </trkpt>
      <trkpt lat="44.50234" lon="1.64674">
        <ele>323.62</ele>
        <time>2020-10-24T08:11:09Z</time>
      </trkpt>
      <trkpt lat="44.50226" lon="1.64679">
        <ele>322.66</ele>
        <time>2020-10-24T08:11:17Z</time>
      </trkpt>
      <trkpt lat="44.5022" lon="1.64681">
        <ele>323.14</ele>
        <time>2020-10-24T08:11:21Z</time>
      </trkpt>
      <trkpt lat="44.50202" lon="1.64685">
        <ele>322.66</ele>
        <time>2020-10-24T08:11:38Z</time>
      </trkpt>
      <trkpt lat="44.502" lon="1.64687">
        <ele>322.18</ele>
        <time>2020-10-24T08:12:02Z</time>
      </trkpt>
      <trkpt lat="44.50201" lon="1.6469">
        <ele>322.18</ele>
        <time>2020-10-24T08:12:34Z</time>
      </trkpt>
      <trkpt lat="44.50192" lon="1.64693">
        <ele>322.18</ele>
        <time>2020-10-24T08:12:47Z</time>
      </trkpt>
      <trkpt lat="44.50193" lon="1.64692">
        <ele>322.18</ele>
        <time>2020-10-24T08:13:07Z</time>
      </trkpt>
      <trkpt lat="44.50192" lon="1.64696">
        <ele>322.18</ele>
        <time>2020-10-24T08:13:32Z</time>
      </trkpt>
      <trkpt lat="44.50191" lon="1.64693">
        <ele>322.18</ele>
        <time>2020-10-24T08:13:41Z</time>
      </trkpt>
      <trkpt lat="44.50187" lon="1.64689">
        <ele>322.66</ele>
        <time>2020-10-24T08:13:48Z</time>
      </trkpt>
      <trkpt lat="44.50179" lon="1.64684">
        <ele>323.62</ele>
        <time>2020-10-24T08:14:00Z</time>
      </trkpt>
      <trkpt lat="44.50175" lon="1.64676">
        <ele>325.06</ele>
        <time>2020-10-24T08:14:12Z</time>
      </trkpt>
      <trkpt lat="44.50168" lon="1.64669">
        <ele>326.5</ele>
        <time>2020-10-24T08:14:24Z</time>
      </trkpt>
      <trkpt lat="44.50163" lon="1.6466">
        <ele>327.95</ele>
        <time>2020-10-24T08:14:35Z</time>
      </trkpt>
      <trkpt lat="44.50161" lon="1.64653">
        <ele>329.87</ele>
        <time>2020-10-24T08:14:47Z</time>
      </trkpt>
      <trkpt lat="44.50155" lon="1.64648">
        <ele>330.35</ele>
        <time>2020-10-24T08:14:53Z</time>
      </trkpt>
      <trkpt lat="44.50136" lon="1.64643">
        <ele>330.83</ele>
        <time>2020-10-24T08:15:10Z</time>
      </trkpt>
      <trkpt lat="44.50121" lon="1.64641">
        <ele>330.83</ele>
        <time>2020-10-24T08:15:24Z</time>
      </trkpt>
      <trkpt lat="44.5011" lon="1.64635">
        <ele>332.27</ele>
        <time>2020-10-24T08:15:38Z</time>
      </trkpt>
      <trkpt lat="44.501" lon="1.64627">
        <ele>332.75</ele>
        <time>2020-10-24T08:15:49Z</time>
      </trkpt>
      <trkpt lat="44.50093" lon="1.64611">
        <ele>334.2</ele>
        <time>2020-10-24T08:16:03Z</time>
      </trkpt>
      <trkpt lat="44.50091" lon="1.64602">
        <ele>334.68</ele>
        <time>2020-10-24T08:16:09Z</time>
      </trkpt>
      <trkpt lat="44.50089" lon="1.64598">
        <ele>334.68</ele>
        <time>2020-10-24T08:16:21Z</time>
      </trkpt>
      <trkpt lat="44.50088" lon="1.64595">
        <ele>335.16</ele>
        <time>2020-10-24T08:16:35Z</time>
      </trkpt>
      <trkpt lat="44.50089" lon="1.64595">
        <ele>335.16</ele>
        <time>2020-10-24T08:16:39Z</time>
      </trkpt>
      <trkpt lat="44.50084" lon="1.6458">
        <ele>336.12</ele>
        <time>2020-10-24T08:16:51Z</time>
      </trkpt>
      <trkpt lat="44.50079" lon="1.64564">
        <ele>337.08</ele>
        <time>2020-10-24T08:17:03Z</time>
      </trkpt>
      <trkpt lat="44.50075" lon="1.64554">
        <ele>338.04</ele>
        <time>2020-10-24T08:17:10Z</time>
      </trkpt>
      <trkpt lat="44.50068" lon="1.64544">
        <ele>339</ele>
        <time>2020-10-24T08:17:22Z</time>
      </trkpt>
      <trkpt lat="44.50064" lon="1.64538">
        <ele>339</ele>
        <time>2020-10-24T08:17:28Z</time>
      </trkpt>
      <trkpt lat="44.50049" lon="1.64532">
        <ele>339.48</ele>
        <time>2020-10-24T08:17:40Z</time>
      </trkpt>
      <trkpt lat="44.50035" lon="1.64528">
        <ele>339.48</ele>
        <time>2020-10-24T08:17:52Z</time>
      </trkpt>
      <trkpt lat="44.50016" lon="1.6452">
        <ele>338.52</ele>
        <time>2020-10-24T08:18:07Z</time>
      </trkpt>
      <trkpt lat="44.49999" lon="1.64507">
        <ele>338.52</ele>
        <time>2020-10-24T08:18:24Z</time>
      </trkpt>
      <trkpt lat="44.49984" lon="1.64502">
        <ele>338.04</ele>
        <time>2020-10-24T08:18:36Z</time>
      </trkpt>
      <trkpt lat="44.49981" lon="1.64501">
        <ele>338.04</ele>
        <time>2020-10-24T08:18:39Z</time>
      </trkpt>
      <trkpt lat="44.49976" lon="1.64496">
        <ele>337.56</ele>
        <time>2020-10-24T08:18:44Z</time>
      </trkpt>
      <trkpt lat="44.49961" lon="1.64483">
        <ele>338.04</ele>
        <time>2020-10-24T08:18:57Z</time>
      </trkpt>
      <trkpt lat="44.49942" lon="1.6447">
        <ele>336.6</ele>
        <time>2020-10-24T08:19:13Z</time>
      </trkpt>
      <trkpt lat="44.4993" lon="1.64459">
        <ele>336.12</ele>
        <time>2020-10-24T08:19:24Z</time>
      </trkpt>
      <trkpt lat="44.49914" lon="1.64444">
        <ele>335.64</ele>
        <time>2020-10-24T08:19:39Z</time>
      </trkpt>
      <trkpt lat="44.49902" lon="1.64433">
        <ele>335.16</ele>
        <time>2020-10-24T08:19:50Z</time>
      </trkpt>
      <trkpt lat="44.49889" lon="1.64416">
        <ele>334.2</ele>
        <time>2020-10-24T08:20:04Z</time>
      </trkpt>
      <trkpt lat="44.49877" lon="1.64402">
        <ele>333.71</ele>
        <time>2020-10-24T08:20:15Z</time>
      </trkpt>
      <trkpt lat="44.49865" lon="1.64387">
        <ele>332.75</ele>
        <time>2020-10-24T08:20:28Z</time>
      </trkpt>
      <trkpt lat="44.49862" lon="1.64382">
        <ele>332.75</ele>
        <time>2020-10-24T08:20:32Z</time>
      </trkpt>
      <trkpt lat="44.49861" lon="1.64381">
        <ele>332.27</ele>
        <time>2020-10-24T08:20:33Z</time>
      </trkpt>
      <trkpt lat="44.49859" lon="1.64381">
        <ele>332.27</ele>
        <time>2020-10-24T08:20:34Z</time>
      </trkpt>
      <trkpt lat="44.49858" lon="1.64382">
        <ele>331.79</ele>
        <time>2020-10-24T08:20:35Z</time>
      </trkpt>
      <trkpt lat="44.49857" lon="1.64383">
        <ele>331.79</ele>
        <time>2020-10-24T08:20:36Z</time>
      </trkpt>
      <trkpt lat="44.49856" lon="1.64384">
        <ele>331.79</ele>
        <time>2020-10-24T08:20:37Z</time>
      </trkpt>
      <trkpt lat="44.49855" lon="1.64386">
        <ele>330.83</ele>
        <time>2020-10-24T08:20:38Z</time>
      </trkpt>
      <trkpt lat="44.49842" lon="1.64395">
        <ele>329.39</ele>
        <time>2020-10-24T08:20:50Z</time>
      </trkpt>
      <trkpt lat="44.49839" lon="1.64399">
        <ele>329.39</ele>
        <time>2020-10-24T08:20:54Z</time>
      </trkpt>
      <trkpt lat="44.49834" lon="1.64407">
        <ele>327.95</ele>
        <time>2020-10-24T08:21:00Z</time>
      </trkpt>
      <trkpt lat="44.49827" lon="1.6441">
        <ele>326.5</ele>
        <time>2020-10-24T08:21:09Z</time>
      </trkpt>
      <trkpt lat="44.4981" lon="1.64433">
        <ele>324.58</ele>
        <time>2020-10-24T08:21:21Z</time>
      </trkpt>
      <trkpt lat="44.498" lon="1.64447">
        <ele>323.62</ele>
        <time>2020-10-24T08:21:29Z</time>
      </trkpt>
      <trkpt lat="44.49792" lon="1.64448">
        <ele>322.18</ele>
        <time>2020-10-24T08:21:37Z</time>
      </trkpt>
      <trkpt lat="44.49783" lon="1.64457">
        <ele>319.78</ele>
        <time>2020-10-24T08:21:48Z</time>
      </trkpt>
      <trkpt lat="44.49781" lon="1.64462">
        <ele>319.3</ele>
        <time>2020-10-24T08:21:52Z</time>
      </trkpt>
      <trkpt lat="44.49771" lon="1.64477">
        <ele>317.85</ele>
        <time>2020-10-24T08:22:06Z</time>
      </trkpt>
      <trkpt lat="44.49769" lon="1.6448">
        <ele>317.85</ele>
        <time>2020-10-24T08:22:20Z</time>
      </trkpt>
      <trkpt lat="44.49755" lon="1.64496">
        <ele>316.41</ele>
        <time>2020-10-24T08:22:36Z</time>
      </trkpt>
      <trkpt lat="44.49747" lon="1.6451">
        <ele>315.45</ele>
        <time>2020-10-24T08:22:46Z</time>
      </trkpt>
      <trkpt lat="44.49737" lon="1.64522">
        <ele>314.01</ele>
        <time>2020-10-24T08:22:59Z</time>
      </trkpt>
      <trkpt lat="44.49726" lon="1.6453">
        <ele>312.09</ele>
        <time>2020-10-24T08:23:12Z</time>
      </trkpt>
      <trkpt lat="44.49719" lon="1.64538">
        <ele>311.6</ele>
        <time>2020-10-24T08:23:20Z</time>
      </trkpt>
      <trkpt lat="44.49718" lon="1.64539">
        <ele>311.6</ele>
        <time>2020-10-24T08:23:21Z</time>
      </trkpt>
      <trkpt lat="44.49703" lon="1.64559">
        <ele>309.68</ele>
        <time>2020-10-24T08:23:34Z</time>
      </trkpt>
      <trkpt lat="44.49695" lon="1.64571">
        <ele>308.24</ele>
        <time>2020-10-24T08:23:47Z</time>
      </trkpt>
      <trkpt lat="44.4969" lon="1.64575">
        <ele>307.76</ele>
        <time>2020-10-24T08:23:59Z</time>
      </trkpt>
      <trkpt lat="44.49681" lon="1.6459">
        <ele>306.32</ele>
        <time>2020-10-24T08:24:12Z</time>
      </trkpt>
      <trkpt lat="44.49667" lon="1.64601">
        <ele>304.39</ele>
        <time>2020-10-24T08:24:26Z</time>
      </trkpt>
      <trkpt lat="44.49649" lon="1.64612">
        <ele>301.51</ele>
        <time>2020-10-24T08:24:42Z</time>
      </trkpt>
      <trkpt lat="44.49641" lon="1.64616">
        <ele>300.55</ele>
        <time>2020-10-24T08:24:51Z</time>
      </trkpt>
      <trkpt lat="44.49622" lon="1.64629">
        <ele>297.67</ele>
        <time>2020-10-24T08:25:07Z</time>
      </trkpt>
      <trkpt lat="44.49612" lon="1.64639">
        <ele>296.22</ele>
        <time>2020-10-24T08:25:17Z</time>
      </trkpt>
      <trkpt lat="44.49611" lon="1.6464">
        <ele>296.22</ele>
        <time>2020-10-24T08:25:18Z</time>
      </trkpt>
      <trkpt lat="44.496" lon="1.64646">
        <ele>293.82</ele>
        <time>2020-10-24T08:25:30Z</time>
      </trkpt>
      <trkpt lat="44.49596" lon="1.64648">
        <ele>293.34</ele>
        <time>2020-10-24T08:25:33Z</time>
      </trkpt>
      <trkpt lat="44.49594" lon="1.64649">
        <ele>293.34</ele>
        <time>2020-10-24T08:25:35Z</time>
      </trkpt>
      <trkpt lat="44.49592" lon="1.6465">
        <ele>292.86</ele>
        <time>2020-10-24T08:25:36Z</time>
      </trkpt>
      <trkpt lat="44.4959" lon="1.6465">
        <ele>292.86</ele>
        <time>2020-10-24T08:25:37Z</time>
      </trkpt>
      <trkpt lat="44.49589" lon="1.6465">
        <ele>292.86</ele>
        <time>2020-10-24T08:25:38Z</time>
      </trkpt>
      <trkpt lat="44.49587" lon="1.6465">
        <ele>291.9</ele>
        <time>2020-10-24T08:25:39Z</time>
      </trkpt>
      <trkpt lat="44.49586" lon="1.64651">
        <ele>292.38</ele>
        <time>2020-10-24T08:25:40Z</time>
      </trkpt>
      <trkpt lat="44.49572" lon="1.64663">
        <ele>289.97</ele>
        <time>2020-10-24T08:25:54Z</time>
      </trkpt>
      <trkpt lat="44.49557" lon="1.64675">
        <ele>287.57</ele>
        <time>2020-10-24T08:26:10Z</time>
      </trkpt>
      <trkpt lat="44.49552" lon="1.64678">
        <ele>286.61</ele>
        <time>2020-10-24T08:26:16Z</time>
      </trkpt>
      <trkpt lat="44.49551" lon="1.64679">
        <ele>286.13</ele>
        <time>2020-10-24T08:26:17Z</time>
      </trkpt>
      <trkpt lat="44.49549" lon="1.64682">
        <ele>285.65</ele>
        <time>2020-10-24T08:26:19Z</time>
      </trkpt>
      <trkpt lat="44.49548" lon="1.64683">
        <ele>285.17</ele>
        <time>2020-10-24T08:26:20Z</time>
      </trkpt>
      <trkpt lat="44.49543" lon="1.64686">
        <ele>284.69</ele>
        <time>2020-10-24T08:26:24Z</time>
      </trkpt>
      <trkpt lat="44.49533" lon="1.64691">
        <ele>283.73</ele>
        <time>2020-10-24T08:26:31Z</time>
      </trkpt>
      <trkpt lat="44.49517" lon="1.64702">
        <ele>281.32</ele>
        <time>2020-10-24T08:26:47Z</time>
      </trkpt>
      <trkpt lat="44.49506" lon="1.64704">
        <ele>279.4</ele>
        <time>2020-10-24T08:27:04Z</time>
      </trkpt>
      <trkpt lat="44.49493" lon="1.64712">
        <ele>277.48</ele>
        <time>2020-10-24T08:27:15Z</time>
      </trkpt>
      <trkpt lat="44.49492" lon="1.64713">
        <ele>276.52</ele>
        <time>2020-10-24T08:27:16Z</time>
      </trkpt>
      <trkpt lat="44.4948" lon="1.64724">
        <ele>274.11</ele>
        <time>2020-10-24T08:27:30Z</time>
      </trkpt>
      <trkpt lat="44.49465" lon="1.64734">
        <ele>271.71</ele>
        <time>2020-10-24T08:27:45Z</time>
      </trkpt>
      <trkpt lat="44.49464" lon="1.64734">
        <ele>271.71</ele>
        <time>2020-10-24T08:27:46Z</time>
      </trkpt>
      <trkpt lat="44.49463" lon="1.64735">
        <ele>271.71</ele>
        <time>2020-10-24T08:27:47Z</time>
      </trkpt>
      <trkpt lat="44.49452" lon="1.64739">
        <ele>270.27</ele>
        <time>2020-10-24T08:28:02Z</time>
      </trkpt>
      <trkpt lat="44.49451" lon="1.6474">
        <ele>269.79</ele>
        <time>2020-10-24T08:28:19Z</time>
      </trkpt>
      <trkpt lat="44.49447" lon="1.64742">
        <ele>269.79</ele>
        <time>2020-10-24T08:28:41Z</time>
      </trkpt>
      <trkpt lat="44.49447" lon="1.64745">
        <ele>269.31</ele>
        <time>2020-10-24T08:28:45Z</time>
      </trkpt>
      <trkpt lat="44.49447" lon="1.64747">
        <ele>269.31</ele>
        <time>2020-10-24T08:28:46Z</time>
      </trkpt>
      <trkpt lat="44.49447" lon="1.64749">
        <ele>269.31</ele>
        <time>2020-10-24T08:28:48Z</time>
      </trkpt>
      <trkpt lat="44.49437" lon="1.64766">
        <ele>268.83</ele>
        <time>2020-10-24T08:29:01Z</time>
      </trkpt>
      <trkpt lat="44.49421" lon="1.64774">
        <ele>268.83</ele>
        <time>2020-10-24T08:29:15Z</time>
      </trkpt>
      <trkpt lat="44.49417" lon="1.64776">
        <ele>268.35</ele>
        <time>2020-10-24T08:29:18Z</time>
      </trkpt>
      <trkpt lat="44.49416" lon="1.64776">
        <ele>267.86</ele>
        <time>2020-10-24T08:29:19Z</time>
      </trkpt>
      <trkpt lat="44.49415" lon="1.64776">
        <ele>268.35</ele>
        <time>2020-10-24T08:29:20Z</time>
      </trkpt>
      <trkpt lat="44.49397" lon="1.64783">
        <ele>267.38</ele>
        <time>2020-10-24T08:29:34Z</time>
      </trkpt>
      <trkpt lat="44.49388" lon="1.64786">
        <ele>267.38</ele>
        <time>2020-10-24T08:29:42Z</time>
      </trkpt>
      <trkpt lat="44.49387" lon="1.64787">
        <ele>267.38</ele>
        <time>2020-10-24T08:29:43Z</time>
      </trkpt>
      <trkpt lat="44.49367" lon="1.64793">
        <ele>266.42</ele>
        <time>2020-10-24T08:29:57Z</time>
      </trkpt>
      <trkpt lat="44.49348" lon="1.64799">
        <ele>266.42</ele>
        <time>2020-10-24T08:30:13Z</time>
      </trkpt>
      <trkpt lat="44.4933" lon="1.64802">
        <ele>264.98</ele>
        <time>2020-10-24T08:30:27Z</time>
      </trkpt>
      <trkpt lat="44.49311" lon="1.64805">
        <ele>264.98</ele>
        <time>2020-10-24T08:30:43Z</time>
      </trkpt>
      <trkpt lat="44.49295" lon="1.64807">
        <ele>264.98</ele>
        <time>2020-10-24T08:30:55Z</time>
      </trkpt>
      <trkpt lat="44.49275" lon="1.64807">
        <ele>264.5</ele>
        <time>2020-10-24T08:31:11Z</time>
      </trkpt>
      <trkpt lat="44.49253" lon="1.64804">
        <ele>264.98</ele>
        <time>2020-10-24T08:31:28Z</time>
      </trkpt>
      <trkpt lat="44.49246" lon="1.64804">
        <ele>265.46</ele>
        <time>2020-10-24T08:31:38Z</time>
      </trkpt>
      <trkpt lat="44.49245" lon="1.64804">
        <ele>265.46</ele>
        <time>2020-10-24T08:31:39Z</time>
      </trkpt>
      <trkpt lat="44.49232" lon="1.64801">
        <ele>265.94</ele>
        <time>2020-10-24T08:31:50Z</time>
      </trkpt>
      <trkpt lat="44.49216" lon="1.64799">
        <ele>266.9</ele>
        <time>2020-10-24T08:32:06Z</time>
      </trkpt>
      <trkpt lat="44.492" lon="1.64798">
        <ele>267.86</ele>
        <time>2020-10-24T08:32:20Z</time>
      </trkpt>
      <trkpt lat="44.49184" lon="1.64799">
        <ele>268.83</ele>
        <time>2020-10-24T08:32:35Z</time>
      </trkpt>
      <trkpt lat="44.49179" lon="1.64803">
        <ele>269.31</ele>
        <time>2020-10-24T08:32:50Z</time>
      </trkpt>
      <trkpt lat="44.49171" lon="1.64799">
        <ele>270.27</ele>
        <time>2020-10-24T08:33:10Z</time>
      </trkpt>
      <trkpt lat="44.49169" lon="1.64798">
        <ele>269.79</ele>
        <time>2020-10-24T08:33:41Z</time>
      </trkpt>
      <trkpt lat="44.49173" lon="1.648">
        <ele>269.79</ele>
        <time>2020-10-24T08:33:59Z</time>
      </trkpt>
      <trkpt lat="44.49174" lon="1.64799">
        <ele>269.79</ele>
        <time>2020-10-24T08:34:21Z</time>
      </trkpt>
      <trkpt lat="44.49169" lon="1.64801">
        <ele>269.79</ele>
        <time>2020-10-24T08:34:45Z</time>
      </trkpt>
      <trkpt lat="44.49175" lon="1.64801">
        <ele>269.31</ele>
        <time>2020-10-24T08:35:02Z</time>
      </trkpt>
      <trkpt lat="44.49174" lon="1.64804">
        <ele>269.31</ele>
        <time>2020-10-24T08:35:07Z</time>
      </trkpt>
      <trkpt lat="44.49172" lon="1.6481">
        <ele>269.79</ele>
        <time>2020-10-24T08:35:23Z</time>
      </trkpt>
      <trkpt lat="44.49168" lon="1.64808">
        <ele>269.79</ele>
        <time>2020-10-24T08:35:49Z</time>
      </trkpt>
      <trkpt lat="44.49166" lon="1.64808">
        <ele>269.31</ele>
        <time>2020-10-24T08:35:50Z</time>
      </trkpt>
      <trkpt lat="44.49164" lon="1.64809">
        <ele>269.79</ele>
        <time>2020-10-24T08:35:51Z</time>
      </trkpt>
      <trkpt lat="44.49147" lon="1.64818">
        <ele>271.23</ele>
        <time>2020-10-24T08:36:06Z</time>
      </trkpt>
      <trkpt lat="44.49129" lon="1.64826">
        <ele>272.19</ele>
        <time>2020-10-24T08:36:24Z</time>
      </trkpt>
      <trkpt lat="44.49115" lon="1.64833">
        <ele>273.15</ele>
        <time>2020-10-24T08:36:39Z</time>
      </trkpt>
      <trkpt lat="44.49093" lon="1.64841">
        <ele>274.11</ele>
        <time>2020-10-24T08:36:58Z</time>
      </trkpt>
      <trkpt lat="44.49079" lon="1.64845">
        <ele>275.07</ele>
        <time>2020-10-24T08:37:12Z</time>
      </trkpt>
      <trkpt lat="44.49064" lon="1.64851">
        <ele>275.56</ele>
        <time>2020-10-24T08:37:25Z</time>
      </trkpt>
      <trkpt lat="44.49055" lon="1.64852">
        <ele>276.52</ele>
        <time>2020-10-24T08:37:39Z</time>
      </trkpt>
      <trkpt lat="44.49037" lon="1.64857">
        <ele>277.48</ele>
        <time>2020-10-24T08:37:55Z</time>
      </trkpt>
      <trkpt lat="44.49024" lon="1.64858">
        <ele>277.96</ele>
        <time>2020-10-24T08:38:10Z</time>
      </trkpt>
      <trkpt lat="44.49016" lon="1.64866">
        <ele>278.92</ele>
        <time>2020-10-24T08:38:23Z</time>
      </trkpt>
      <trkpt lat="44.49015" lon="1.64866">
        <ele>278.92</ele>
        <time>2020-10-24T08:38:24Z</time>
      </trkpt>
      <trkpt lat="44.49005" lon="1.64864">
        <ele>278.44</ele>
        <time>2020-10-24T08:38:41Z</time>
      </trkpt>
      <trkpt lat="44.48997" lon="1.64867">
        <ele>278.92</ele>
        <time>2020-10-24T08:38:58Z</time>
      </trkpt>
      <trkpt lat="44.4899" lon="1.64867">
        <ele>279.4</ele>
        <time>2020-10-24T08:39:12Z</time>
      </trkpt>
      <trkpt lat="44.48976" lon="1.64866">
        <ele>279.4</ele>
        <time>2020-10-24T08:39:27Z</time>
      </trkpt>
      <trkpt lat="44.48975" lon="1.64866">
        <ele>279.4</ele>
        <time>2020-10-24T08:39:28Z</time>
      </trkpt>
      <trkpt lat="44.48966" lon="1.64867">
        <ele>279.88</ele>
        <time>2020-10-24T08:39:35Z</time>
      </trkpt>
      <trkpt lat="44.48962" lon="1.64868">
        <ele>279.4</ele>
        <time>2020-10-24T08:39:38Z</time>
      </trkpt>
      <trkpt lat="44.48941" lon="1.64872">
        <ele>279.88</ele>
        <time>2020-10-24T08:39:55Z</time>
      </trkpt>
      <trkpt lat="44.48925" lon="1.64873">
        <ele>279.88</ele>
        <time>2020-10-24T08:40:09Z</time>
      </trkpt>
      <trkpt lat="44.48907" lon="1.64869">
        <ele>279.4</ele>
        <time>2020-10-24T08:40:24Z</time>
      </trkpt>
      <trkpt lat="44.48885" lon="1.64859">
        <ele>278.92</ele>
        <time>2020-10-24T08:40:43Z</time>
      </trkpt>
      <trkpt lat="44.48884" lon="1.64859">
        <ele>278.92</ele>
        <time>2020-10-24T08:40:44Z</time>
      </trkpt>
      <trkpt lat="44.48861" lon="1.64854">
        <ele>277.96</ele>
        <time>2020-10-24T08:41:00Z</time>
      </trkpt>
      <trkpt lat="44.48846" lon="1.6485">
        <ele>277</ele>
        <time>2020-10-24T08:41:13Z</time>
      </trkpt>
      <trkpt lat="44.48845" lon="1.6485">
        <ele>277</ele>
        <time>2020-10-24T08:41:14Z</time>
      </trkpt>
      <trkpt lat="44.48838" lon="1.64848">
        <ele>276.52</ele>
        <time>2020-10-24T08:41:19Z</time>
      </trkpt>
      <trkpt lat="44.48836" lon="1.64847">
        <ele>276.52</ele>
        <time>2020-10-24T08:41:20Z</time>
      </trkpt>
      <trkpt lat="44.48819" lon="1.64832">
        <ele>276.04</ele>
        <time>2020-10-24T08:41:36Z</time>
      </trkpt>
      <trkpt lat="44.48809" lon="1.64826">
        <ele>276.04</ele>
        <time>2020-10-24T08:41:53Z</time>
      </trkpt>
      <trkpt lat="44.48798" lon="1.64818">
        <ele>276.04</ele>
        <time>2020-10-24T08:42:02Z</time>
      </trkpt>
      <trkpt lat="44.48782" lon="1.64807">
        <ele>275.56</ele>
        <time>2020-10-24T08:42:16Z</time>
      </trkpt>
      <trkpt lat="44.48762" lon="1.64798">
        <ele>274.59</ele>
        <time>2020-10-24T08:42:31Z</time>
      </trkpt>
      <trkpt lat="44.48746" lon="1.64796">
        <ele>273.15</ele>
        <time>2020-10-24T08:42:44Z</time>
      </trkpt>
      <trkpt lat="44.48731" lon="1.64797">
        <ele>271.71</ele>
        <time>2020-10-24T08:42:56Z</time>
      </trkpt>
      <trkpt lat="44.48719" lon="1.64795">
        <ele>270.27</ele>
        <time>2020-10-24T08:43:07Z</time>
      </trkpt>
      <trkpt lat="44.48714" lon="1.64794">
        <ele>269.31</ele>
        <time>2020-10-24T08:43:11Z</time>
      </trkpt>
      <trkpt lat="44.48696" lon="1.64792">
        <ele>268.35</ele>
        <time>2020-10-24T08:43:24Z</time>
      </trkpt>
      <trkpt lat="44.48692" lon="1.64793">
        <ele>267.86</ele>
        <time>2020-10-24T08:43:27Z</time>
      </trkpt>
      <trkpt lat="44.48691" lon="1.64793">
        <ele>267.86</ele>
        <time>2020-10-24T08:43:28Z</time>
      </trkpt>
      <trkpt lat="44.48673" lon="1.64788">
        <ele>265.94</ele>
        <time>2020-10-24T08:43:42Z</time>
      </trkpt>
      <trkpt lat="44.48656" lon="1.64787">
        <ele>264.5</ele>
        <time>2020-10-24T08:43:52Z</time>
      </trkpt>
      <trkpt lat="44.48655" lon="1.64787">
        <ele>264.02</ele>
        <time>2020-10-24T08:43:53Z</time>
      </trkpt>
      <trkpt lat="44.48653" lon="1.64786">
        <ele>264.5</ele>
        <time>2020-10-24T08:43:54Z</time>
      </trkpt>
      <trkpt lat="44.48652" lon="1.64785">
        <ele>264.02</ele>
        <time>2020-10-24T08:43:55Z</time>
      </trkpt>
      <trkpt lat="44.48648" lon="1.64783">
        <ele>263.06</ele>
        <time>2020-10-24T08:44:02Z</time>
      </trkpt>
      <trkpt lat="44.48646" lon="1.64783">
        <ele>263.06</ele>
        <time>2020-10-24T08:44:03Z</time>
      </trkpt>
      <trkpt lat="44.48645" lon="1.64783">
        <ele>263.06</ele>
        <time>2020-10-24T08:44:04Z</time>
      </trkpt>
      <trkpt lat="44.48643" lon="1.64782">
        <ele>262.58</ele>
        <time>2020-10-24T08:44:05Z</time>
      </trkpt>
      <trkpt lat="44.48642" lon="1.64782">
        <ele>262.58</ele>
        <time>2020-10-24T08:44:06Z</time>
      </trkpt>
      <trkpt lat="44.4864" lon="1.64782">
        <ele>262.1</ele>
        <time>2020-10-24T08:44:07Z</time>
      </trkpt>
      <trkpt lat="44.48638" lon="1.64782">
        <ele>262.1</ele>
        <time>2020-10-24T08:44:08Z</time>
      </trkpt>
      <trkpt lat="44.48637" lon="1.64781">
        <ele>261.62</ele>
        <time>2020-10-24T08:44:09Z</time>
      </trkpt>
      <trkpt lat="44.48636" lon="1.6478">
        <ele>261.62</ele>
        <time>2020-10-24T08:44:10Z</time>
      </trkpt>
      <trkpt lat="44.48634" lon="1.6478">
        <ele>261.14</ele>
        <time>2020-10-24T08:44:11Z</time>
      </trkpt>
      <trkpt lat="44.48633" lon="1.64779">
        <ele>261.14</ele>
        <time>2020-10-24T08:44:12Z</time>
      </trkpt>
      <trkpt lat="44.48632" lon="1.64778">
        <ele>260.65</ele>
        <time>2020-10-24T08:44:13Z</time>
      </trkpt>
      <trkpt lat="44.48628" lon="1.64777">
        <ele>260.17</ele>
        <time>2020-10-24T08:44:16Z</time>
      </trkpt>
      <trkpt lat="44.48622" lon="1.64775">
        <ele>258.73</ele>
        <time>2020-10-24T08:44:23Z</time>
      </trkpt>
      <trkpt lat="44.4862" lon="1.64774">
        <ele>258.73</ele>
        <time>2020-10-24T08:44:24Z</time>
      </trkpt>
      <trkpt lat="44.48618" lon="1.64773">
        <ele>258.25</ele>
        <time>2020-10-24T08:44:25Z</time>
      </trkpt>
      <trkpt lat="44.48617" lon="1.64772">
        <ele>257.77</ele>
        <time>2020-10-24T08:44:26Z</time>
      </trkpt>
      <trkpt lat="44.48615" lon="1.64772">
        <ele>258.25</ele>
        <time>2020-10-24T08:44:27Z</time>
      </trkpt>
      <trkpt lat="44.48613" lon="1.64771">
        <ele>257.77</ele>
        <time>2020-10-24T08:44:28Z</time>
      </trkpt>
      <trkpt lat="44.48611" lon="1.64771">
        <ele>257.77</ele>
        <time>2020-10-24T08:44:29Z</time>
      </trkpt>
      <trkpt lat="44.4861" lon="1.64771">
        <ele>257.77</ele>
        <time>2020-10-24T08:44:30Z</time>
      </trkpt>
      <trkpt lat="44.48607" lon="1.64773">
        <ele>256.81</ele>
        <time>2020-10-24T08:44:42Z</time>
      </trkpt>
      <trkpt lat="44.48603" lon="1.64773">
        <ele>256.33</ele>
        <time>2020-10-24T08:44:50Z</time>
      </trkpt>
      <trkpt lat="44.48601" lon="1.64774">
        <ele>255.85</ele>
        <time>2020-10-24T08:44:51Z</time>
      </trkpt>
      <trkpt lat="44.48599" lon="1.64774">
        <ele>255.85</ele>
        <time>2020-10-24T08:44:52Z</time>
      </trkpt>
      <trkpt lat="44.48597" lon="1.64775">
        <ele>255.85</ele>
        <time>2020-10-24T08:44:53Z</time>
      </trkpt>
      <trkpt lat="44.48595" lon="1.64776">
        <ele>255.37</ele>
        <time>2020-10-24T08:44:54Z</time>
      </trkpt>
      <trkpt lat="44.48593" lon="1.64777">
        <ele>254.89</ele>
        <time>2020-10-24T08:44:55Z</time>
      </trkpt>
      <trkpt lat="44.48592" lon="1.64778">
        <ele>254.89</ele>
        <time>2020-10-24T08:44:56Z</time>
      </trkpt>
      <trkpt lat="44.48591" lon="1.64778">
        <ele>254.89</ele>
        <time>2020-10-24T08:44:57Z</time>
      </trkpt>
      <trkpt lat="44.48586" lon="1.64779">
        <ele>253.93</ele>
        <time>2020-10-24T08:45:04Z</time>
      </trkpt>
      <trkpt lat="44.48585" lon="1.64781">
        <ele>253.44</ele>
        <time>2020-10-24T08:45:05Z</time>
      </trkpt>
      <trkpt lat="44.48584" lon="1.64783">
        <ele>252.96</ele>
        <time>2020-10-24T08:45:06Z</time>
      </trkpt>
      <trkpt lat="44.48583" lon="1.64786">
        <ele>253.44</ele>
        <time>2020-10-24T08:45:07Z</time>
      </trkpt>
      <trkpt lat="44.48582" lon="1.64788">
        <ele>252.96</ele>
        <time>2020-10-24T08:45:08Z</time>
      </trkpt>
      <trkpt lat="44.48581" lon="1.6479">
        <ele>253.44</ele>
        <time>2020-10-24T08:45:09Z</time>
      </trkpt>
      <trkpt lat="44.4858" lon="1.64792">
        <ele>252.96</ele>
        <time>2020-10-24T08:45:10Z</time>
      </trkpt>
      <trkpt lat="44.48578" lon="1.64793">
        <ele>252.96</ele>
        <time>2020-10-24T08:45:11Z</time>
      </trkpt>
      <trkpt lat="44.48577" lon="1.64793">
        <ele>252.96</ele>
        <time>2020-10-24T08:45:12Z</time>
      </trkpt>
      <trkpt lat="44.48573" lon="1.64795">
        <ele>251.52</ele>
        <time>2020-10-24T08:45:19Z</time>
      </trkpt>
      <trkpt lat="44.48563" lon="1.64811">
        <ele>250.08</ele>
        <time>2020-10-24T08:45:30Z</time>
      </trkpt>
      <trkpt lat="44.48561" lon="1.64818">
        <ele>248.64</ele>
        <time>2020-10-24T08:45:36Z</time>
      </trkpt>
      <trkpt lat="44.4856" lon="1.64821">
        <ele>248.64</ele>
        <time>2020-10-24T08:45:37Z</time>
      </trkpt>
      <trkpt lat="44.48559" lon="1.64824">
        <ele>248.64</ele>
        <time>2020-10-24T08:45:38Z</time>
      </trkpt>
      <trkpt lat="44.48552" lon="1.64839">
        <ele>246.23</ele>
        <time>2020-10-24T08:45:51Z</time>
      </trkpt>
      <trkpt lat="44.48549" lon="1.6484">
        <ele>246.23</ele>
        <time>2020-10-24T08:45:53Z</time>
      </trkpt>
      <trkpt lat="44.48535" lon="1.64836">
        <ele>243.35</ele>
        <time>2020-10-24T08:46:04Z</time>
      </trkpt>
      <trkpt lat="44.48525" lon="1.64832">
        <ele>241.43</ele>
        <time>2020-10-24T08:46:16Z</time>
      </trkpt>
      <trkpt lat="44.48526" lon="1.64823">
        <ele>239.02</ele>
        <time>2020-10-24T08:46:27Z</time>
      </trkpt>
      <trkpt lat="44.48523" lon="1.64818">
        <ele>238.54</ele>
        <time>2020-10-24T08:46:30Z</time>
      </trkpt>
      <trkpt lat="44.48522" lon="1.64816">
        <ele>238.54</ele>
        <time>2020-10-24T08:46:31Z</time>
      </trkpt>
      <trkpt lat="44.48521" lon="1.64814">
        <ele>238.06</ele>
        <time>2020-10-24T08:46:32Z</time>
      </trkpt>
      <trkpt lat="44.48521" lon="1.64812">
        <ele>237.58</ele>
        <time>2020-10-24T08:46:33Z</time>
      </trkpt>
      <trkpt lat="44.48521" lon="1.64809">
        <ele>238.06</ele>
        <time>2020-10-24T08:46:34Z</time>
      </trkpt>
      <trkpt lat="44.48515" lon="1.64801">
        <ele>236.62</ele>
        <time>2020-10-24T08:46:41Z</time>
      </trkpt>
      <trkpt lat="44.48513" lon="1.64803">
        <ele>236.62</ele>
        <time>2020-10-24T08:46:45Z</time>
      </trkpt>
      <trkpt lat="44.48512" lon="1.64805">
        <ele>236.14</ele>
        <time>2020-10-24T08:46:46Z</time>
      </trkpt>
      <trkpt lat="44.48506" lon="1.64817">
        <ele>235.18</ele>
        <time>2020-10-24T08:46:56Z</time>
      </trkpt>
      <trkpt lat="44.48506" lon="1.64818">
        <ele>235.18</ele>
        <time>2020-10-24T08:46:57Z</time>
      </trkpt>
      <trkpt lat="44.48505" lon="1.6482">
        <ele>234.7</ele>
        <time>2020-10-24T08:46:58Z</time>
      </trkpt>
      <trkpt lat="44.48498" lon="1.64839">
        <ele>233.26</ele>
        <time>2020-10-24T08:47:11Z</time>
      </trkpt>
      <trkpt lat="44.48487" lon="1.64842">
        <ele>230.37</ele>
        <time>2020-10-24T08:47:23Z</time>
      </trkpt>
      <trkpt lat="44.48481" lon="1.64859">
        <ele>229.41</ele>
        <time>2020-10-24T08:47:36Z</time>
      </trkpt>
      <trkpt lat="44.48479" lon="1.6486">
        <ele>229.41</ele>
        <time>2020-10-24T08:48:04Z</time>
      </trkpt>
      <trkpt lat="44.48472" lon="1.64859">
        <ele>227.01</ele>
        <time>2020-10-24T08:48:13Z</time>
      </trkpt>
      <trkpt lat="44.4847" lon="1.6486">
        <ele>227.01</ele>
        <time>2020-10-24T08:48:14Z</time>
      </trkpt>
      <trkpt lat="44.48468" lon="1.6486">
        <ele>226.53</ele>
        <time>2020-10-24T08:48:15Z</time>
      </trkpt>
      <trkpt lat="44.48466" lon="1.64862">
        <ele>225.57</ele>
        <time>2020-10-24T08:48:18Z</time>
      </trkpt>
      <trkpt lat="44.48453" lon="1.64864">
        <ele>222.68</ele>
        <time>2020-10-24T08:48:27Z</time>
      </trkpt>
      <trkpt lat="44.48447" lon="1.64864">
        <ele>221.24</ele>
        <time>2020-10-24T08:48:33Z</time>
      </trkpt>
      <trkpt lat="44.48446" lon="1.64864">
        <ele>221.24</ele>
        <time>2020-10-24T08:48:34Z</time>
      </trkpt>
      <trkpt lat="44.48444" lon="1.64863">
        <ele>220.76</ele>
        <time>2020-10-24T08:48:35Z</time>
      </trkpt>
      <trkpt lat="44.48443" lon="1.64863">
        <ele>220.28</ele>
        <time>2020-10-24T08:48:36Z</time>
      </trkpt>
      <trkpt lat="44.48441" lon="1.64862">
        <ele>220.76</ele>
        <time>2020-10-24T08:48:37Z</time>
      </trkpt>
      <trkpt lat="44.4844" lon="1.64862">
        <ele>219.8</ele>
        <time>2020-10-24T08:48:38Z</time>
      </trkpt>
      <trkpt lat="44.48438" lon="1.64862">
        <ele>220.28</ele>
        <time>2020-10-24T08:48:39Z</time>
      </trkpt>
      <trkpt lat="44.48435" lon="1.64863">
        <ele>219.8</ele>
        <time>2020-10-24T08:48:41Z</time>
      </trkpt>
      <trkpt lat="44.48427" lon="1.6487">
        <ele>217.88</ele>
        <time>2020-10-24T08:48:47Z</time>
      </trkpt>
      <trkpt lat="44.48426" lon="1.64871">
        <ele>217.88</ele>
        <time>2020-10-24T08:48:48Z</time>
      </trkpt>
      <trkpt lat="44.48425" lon="1.64875">
        <ele>216.91</ele>
        <time>2020-10-24T08:48:52Z</time>
      </trkpt>
      <trkpt lat="44.48424" lon="1.64876">
        <ele>217.4</ele>
        <time>2020-10-24T08:48:53Z</time>
      </trkpt>
      <trkpt lat="44.48423" lon="1.64877">
        <ele>217.4</ele>
        <time>2020-10-24T08:48:54Z</time>
      </trkpt>
      <trkpt lat="44.48413" lon="1.64885">
        <ele>215.95</ele>
        <time>2020-10-24T08:49:01Z</time>
      </trkpt>
      <trkpt lat="44.48412" lon="1.64887">
        <ele>215.47</ele>
        <time>2020-10-24T08:49:02Z</time>
      </trkpt>
      <trkpt lat="44.48402" lon="1.64893">
        <ele>213.07</ele>
        <time>2020-10-24T08:49:14Z</time>
      </trkpt>
      <trkpt lat="44.48394" lon="1.64896">
        <ele>210.19</ele>
        <time>2020-10-24T08:49:27Z</time>
      </trkpt>
      <trkpt lat="44.48392" lon="1.64896">
        <ele>210.67</ele>
        <time>2020-10-24T08:49:28Z</time>
      </trkpt>
      <trkpt lat="44.48391" lon="1.64895">
        <ele>210.67</ele>
        <time>2020-10-24T08:49:29Z</time>
      </trkpt>
      <trkpt lat="44.48388" lon="1.64894">
        <ele>209.22</ele>
        <time>2020-10-24T08:49:42Z</time>
      </trkpt>
      <trkpt lat="44.48385" lon="1.64889">
        <ele>208.74</ele>
        <time>2020-10-24T08:49:54Z</time>
      </trkpt>
      <trkpt lat="44.48377" lon="1.64882">
        <ele>205.38</ele>
        <time>2020-10-24T08:50:07Z</time>
      </trkpt>
      <trkpt lat="44.48378" lon="1.64881">
        <ele>205.86</ele>
        <time>2020-10-24T08:50:23Z</time>
      </trkpt>
      <trkpt lat="44.48387" lon="1.64875">
        <ele>207.78</ele>
        <time>2020-10-24T08:50:41Z</time>
      </trkpt>
      <trkpt lat="44.48386" lon="1.64873">
        <ele>207.78</ele>
        <time>2020-10-24T08:50:43Z</time>
      </trkpt>
      <trkpt lat="44.48387" lon="1.64869">
        <ele>207.78</ele>
        <time>2020-10-24T08:50:45Z</time>
      </trkpt>
      <trkpt lat="44.48389" lon="1.64864">
        <ele>206.34</ele>
        <time>2020-10-24T08:50:51Z</time>
      </trkpt>
      <trkpt lat="44.48388" lon="1.64862">
        <ele>206.34</ele>
        <time>2020-10-24T08:50:52Z</time>
      </trkpt>
      <trkpt lat="44.48389" lon="1.64859">
        <ele>206.34</ele>
        <time>2020-10-24T08:50:54Z</time>
      </trkpt>
      <trkpt lat="44.48389" lon="1.64857">
        <ele>206.34</ele>
        <time>2020-10-24T08:50:55Z</time>
      </trkpt>
      <trkpt lat="44.48391" lon="1.64846">
        <ele>204.42</ele>
        <time>2020-10-24T08:51:05Z</time>
      </trkpt>
      <trkpt lat="44.48394" lon="1.6483">
        <ele>202.98</ele>
        <time>2020-10-24T08:51:17Z</time>
      </trkpt>
      <trkpt lat="44.48396" lon="1.64804">
        <ele>200.57</ele>
        <time>2020-10-24T08:51:30Z</time>
      </trkpt>
      <trkpt lat="44.48398" lon="1.64783">
        <ele>198.65</ele>
        <time>2020-10-24T08:51:43Z</time>
      </trkpt>
      <trkpt lat="44.48399" lon="1.64782">
        <ele>198.17</ele>
        <time>2020-10-24T08:51:44Z</time>
      </trkpt>
      <trkpt lat="44.48398" lon="1.6478">
        <ele>197.69</ele>
        <time>2020-10-24T08:51:45Z</time>
      </trkpt>
      <trkpt lat="44.48397" lon="1.64779">
        <ele>197.69</ele>
        <time>2020-10-24T08:51:46Z</time>
      </trkpt>
      <trkpt lat="44.48396" lon="1.64778">
        <ele>198.17</ele>
        <time>2020-10-24T08:51:47Z</time>
      </trkpt>
      <trkpt lat="44.48394" lon="1.64777">
        <ele>197.21</ele>
        <time>2020-10-24T08:51:48Z</time>
      </trkpt>
      <trkpt lat="44.4839" lon="1.64776">
        <ele>197.21</ele>
        <time>2020-10-24T08:51:50Z</time>
      </trkpt>
      <trkpt lat="44.48389" lon="1.64777">
        <ele>196.73</ele>
        <time>2020-10-24T08:51:51Z</time>
      </trkpt>
      <trkpt lat="44.4838" lon="1.64788">
        <ele>195.28</ele>
        <time>2020-10-24T08:52:03Z</time>
      </trkpt>
      <trkpt lat="44.48373" lon="1.648">
        <ele>193.84</ele>
        <time>2020-10-24T08:52:13Z</time>
      </trkpt>
      <trkpt lat="44.48371" lon="1.648">
        <ele>193.84</ele>
        <time>2020-10-24T08:52:14Z</time>
      </trkpt>
      <trkpt lat="44.48369" lon="1.64801">
        <ele>193.36</ele>
        <time>2020-10-24T08:52:15Z</time>
      </trkpt>
      <trkpt lat="44.48367" lon="1.64802">
        <ele>193.36</ele>
        <time>2020-10-24T08:52:16Z</time>
      </trkpt>
      <trkpt lat="44.48365" lon="1.64803">
        <ele>192.88</ele>
        <time>2020-10-24T08:52:17Z</time>
      </trkpt>
      <trkpt lat="44.48364" lon="1.64804">
        <ele>192.88</ele>
        <time>2020-10-24T08:52:18Z</time>
      </trkpt>
      <trkpt lat="44.48363" lon="1.64804">
        <ele>192.4</ele>
        <time>2020-10-24T08:52:19Z</time>
      </trkpt>
      <trkpt lat="44.48353" lon="1.64818">
        <ele>190.96</ele>
        <time>2020-10-24T08:52:30Z</time>
      </trkpt>
      <trkpt lat="44.48345" lon="1.64831">
        <ele>190</ele>
        <time>2020-10-24T08:52:41Z</time>
      </trkpt>
      <trkpt lat="44.4834" lon="1.64839">
        <ele>189.04</ele>
        <time>2020-10-24T08:52:49Z</time>
      </trkpt>
      <trkpt lat="44.48339" lon="1.64841">
        <ele>189.04</ele>
        <time>2020-10-24T08:52:50Z</time>
      </trkpt>
      <trkpt lat="44.48338" lon="1.64843">
        <ele>189.52</ele>
        <time>2020-10-24T08:52:51Z</time>
      </trkpt>
      <trkpt lat="44.48337" lon="1.64844">
        <ele>189.04</ele>
        <time>2020-10-24T08:52:52Z</time>
      </trkpt>
      <trkpt lat="44.48336" lon="1.64845">
        <ele>189.04</ele>
        <time>2020-10-24T08:52:53Z</time>
      </trkpt>
      <trkpt lat="44.48334" lon="1.64847">
        <ele>189.04</ele>
        <time>2020-10-24T08:52:54Z</time>
      </trkpt>
      <trkpt lat="44.48324" lon="1.64856">
        <ele>187.11</ele>
        <time>2020-10-24T08:53:06Z</time>
      </trkpt>
      <trkpt lat="44.48316" lon="1.64863">
        <ele>186.63</ele>
        <time>2020-10-24T08:53:11Z</time>
      </trkpt>
      <trkpt lat="44.48314" lon="1.64864">
        <ele>186.63</ele>
        <time>2020-10-24T08:53:12Z</time>
      </trkpt>
      <trkpt lat="44.48312" lon="1.64864">
        <ele>186.63</ele>
        <time>2020-10-24T08:53:13Z</time>
      </trkpt>
      <trkpt lat="44.4831" lon="1.64865">
        <ele>186.15</ele>
        <time>2020-10-24T08:53:14Z</time>
      </trkpt>
      <trkpt lat="44.48309" lon="1.64865">
        <ele>186.15</ele>
        <time>2020-10-24T08:53:15Z</time>
      </trkpt>
      <trkpt lat="44.48303" lon="1.64867">
        <ele>184.23</ele>
        <time>2020-10-24T08:53:26Z</time>
      </trkpt>
      <trkpt lat="44.483" lon="1.6487">
        <ele>183.75</ele>
        <time>2020-10-24T08:53:30Z</time>
      </trkpt>
      <trkpt lat="44.48287" lon="1.64881">
        <ele>182.79</ele>
        <time>2020-10-24T08:53:42Z</time>
      </trkpt>
      <trkpt lat="44.48283" lon="1.64886">
        <ele>181.83</ele>
        <time>2020-10-24T08:53:48Z</time>
      </trkpt>
      <trkpt lat="44.48281" lon="1.64887">
        <ele>181.83</ele>
        <time>2020-10-24T08:53:49Z</time>
      </trkpt>
      <trkpt lat="44.4828" lon="1.64889">
        <ele>181.83</ele>
        <time>2020-10-24T08:53:50Z</time>
      </trkpt>
      <trkpt lat="44.48265" lon="1.649">
        <ele>180.87</ele>
        <time>2020-10-24T08:54:01Z</time>
      </trkpt>
      <trkpt lat="44.48257" lon="1.64906">
        <ele>179.9</ele>
        <time>2020-10-24T08:54:10Z</time>
      </trkpt>
      <trkpt lat="44.48255" lon="1.64907">
        <ele>179.9</ele>
        <time>2020-10-24T08:54:11Z</time>
      </trkpt>
      <trkpt lat="44.48255" lon="1.64908">
        <ele>179.9</ele>
        <time>2020-10-24T08:54:12Z</time>
      </trkpt>
      <trkpt lat="44.4825" lon="1.64911">
        <ele>178.94</ele>
        <time>2020-10-24T08:54:18Z</time>
      </trkpt>
      <trkpt lat="44.48238" lon="1.64918">
        <ele>177.5</ele>
        <time>2020-10-24T08:54:29Z</time>
      </trkpt>
      <trkpt lat="44.48236" lon="1.64918">
        <ele>177.02</ele>
        <time>2020-10-24T08:54:30Z</time>
      </trkpt>
      <trkpt lat="44.48235" lon="1.64919">
        <ele>177.02</ele>
        <time>2020-10-24T08:54:31Z</time>
      </trkpt>
      <trkpt lat="44.48222" lon="1.64926">
        <ele>175.1</ele>
        <time>2020-10-24T08:54:44Z</time>
      </trkpt>
      <trkpt lat="44.48221" lon="1.64928">
        <ele>175.1</ele>
        <time>2020-10-24T08:54:45Z</time>
      </trkpt>
      <trkpt lat="44.4822" lon="1.64929">
        <ele>175.1</ele>
        <time>2020-10-24T08:54:46Z</time>
      </trkpt>
      <trkpt lat="44.48218" lon="1.6493">
        <ele>175.1</ele>
        <time>2020-10-24T08:54:47Z</time>
      </trkpt>
      <trkpt lat="44.48216" lon="1.64931">
        <ele>175.1</ele>
        <time>2020-10-24T08:54:48Z</time>
      </trkpt>
      <trkpt lat="44.48215" lon="1.64932">
        <ele>174.62</ele>
        <time>2020-10-24T08:54:49Z</time>
      </trkpt>
      <trkpt lat="44.48213" lon="1.64933">
        <ele>174.14</ele>
        <time>2020-10-24T08:54:50Z</time>
      </trkpt>
      <trkpt lat="44.48211" lon="1.64935">
        <ele>174.14</ele>
        <time>2020-10-24T08:54:51Z</time>
      </trkpt>
      <trkpt lat="44.4821" lon="1.64935">
        <ele>173.66</ele>
        <time>2020-10-24T08:54:52Z</time>
      </trkpt>
      <trkpt lat="44.48203" lon="1.64936">
        <ele>172.69</ele>
        <time>2020-10-24T08:55:00Z</time>
      </trkpt>
      <trkpt lat="44.48201" lon="1.64936">
        <ele>172.69</ele>
        <time>2020-10-24T08:55:01Z</time>
      </trkpt>
      <trkpt lat="44.482" lon="1.64937">
        <ele>172.69</ele>
        <time>2020-10-24T08:55:02Z</time>
      </trkpt>
      <trkpt lat="44.48198" lon="1.64938">
        <ele>172.69</ele>
        <time>2020-10-24T08:55:03Z</time>
      </trkpt>
      <trkpt lat="44.48197" lon="1.64939">
        <ele>172.21</ele>
        <time>2020-10-24T08:55:04Z</time>
      </trkpt>
      <trkpt lat="44.48196" lon="1.64941">
        <ele>172.21</ele>
        <time>2020-10-24T08:55:05Z</time>
      </trkpt>
      <trkpt lat="44.48194" lon="1.64943">
        <ele>172.21</ele>
        <time>2020-10-24T08:55:06Z</time>
      </trkpt>
      <trkpt lat="44.48193" lon="1.64944">
        <ele>172.21</ele>
        <time>2020-10-24T08:55:07Z</time>
      </trkpt>
      <trkpt lat="44.48191" lon="1.64945">
        <ele>171.73</ele>
        <time>2020-10-24T08:55:08Z</time>
      </trkpt>
      <trkpt lat="44.48189" lon="1.64945">
        <ele>172.21</ele>
        <time>2020-10-24T08:55:20Z</time>
      </trkpt>
      <trkpt lat="44.48184" lon="1.64948">
        <ele>171.25</ele>
        <time>2020-10-24T08:55:40Z</time>
      </trkpt>
      <trkpt lat="44.48176" lon="1.64955">
        <ele>170.77</ele>
        <time>2020-10-24T08:55:50Z</time>
      </trkpt>
      <trkpt lat="44.48164" lon="1.64965">
        <ele>169.81</ele>
        <time>2020-10-24T08:56:05Z</time>
      </trkpt>
      <trkpt lat="44.48159" lon="1.64969">
        <ele>169.81</ele>
        <time>2020-10-24T08:56:10Z</time>
      </trkpt>
      <trkpt lat="44.48158" lon="1.6497">
        <ele>169.33</ele>
        <time>2020-10-24T08:56:11Z</time>
      </trkpt>
      <trkpt lat="44.48157" lon="1.64971">
        <ele>169.33</ele>
        <time>2020-10-24T08:56:12Z</time>
      </trkpt>
      <trkpt lat="44.48156" lon="1.64973">
        <ele>169.33</ele>
        <time>2020-10-24T08:56:13Z</time>
      </trkpt>
      <trkpt lat="44.48156" lon="1.64977">
        <ele>169.81</ele>
        <time>2020-10-24T08:56:17Z</time>
      </trkpt>
      <trkpt lat="44.48158" lon="1.6499">
        <ele>170.77</ele>
        <time>2020-10-24T08:56:30Z</time>
      </trkpt>
      <trkpt lat="44.48158" lon="1.64995">
        <ele>169.81</ele>
        <time>2020-10-24T08:56:43Z</time>
      </trkpt>
      <trkpt lat="44.48159" lon="1.64997">
        <ele>169.81</ele>
        <time>2020-10-24T08:57:00Z</time>
      </trkpt>
      <trkpt lat="44.4816" lon="1.64993">
        <ele>169.33</ele>
        <time>2020-10-24T08:57:13Z</time>
      </trkpt>
      <trkpt lat="44.4816" lon="1.64994">
        <ele>169.81</ele>
        <time>2020-10-24T08:57:29Z</time>
      </trkpt>
      <trkpt lat="44.4816" lon="1.64986">
        <ele>170.29</ele>
        <time>2020-10-24T08:57:37Z</time>
      </trkpt>
      <trkpt lat="44.48157" lon="1.64977">
        <ele>169.81</ele>
        <time>2020-10-24T08:57:45Z</time>
      </trkpt>
      <trkpt lat="44.4815" lon="1.64975">
        <ele>168.85</ele>
        <time>2020-10-24T08:57:54Z</time>
      </trkpt>
      <trkpt lat="44.48141" lon="1.64976">
        <ele>168.37</ele>
        <time>2020-10-24T08:58:06Z</time>
      </trkpt>
      <trkpt lat="44.48139" lon="1.64977">
        <ele>167.41</ele>
        <time>2020-10-24T08:58:22Z</time>
      </trkpt>
      <trkpt lat="44.48137" lon="1.6498">
        <ele>167.41</ele>
        <time>2020-10-24T08:58:44Z</time>
      </trkpt>
      <trkpt lat="44.48135" lon="1.6498">
        <ele>167.41</ele>
        <time>2020-10-24T08:58:48Z</time>
      </trkpt>
      <trkpt lat="44.48126" lon="1.64985">
        <ele>166.45</ele>
        <time>2020-10-24T08:59:01Z</time>
      </trkpt>
      <trkpt lat="44.48125" lon="1.64985">
        <ele>166.45</ele>
        <time>2020-10-24T08:59:02Z</time>
      </trkpt>
      <trkpt lat="44.48112" lon="1.64994">
        <ele>165.96</ele>
        <time>2020-10-24T08:59:14Z</time>
      </trkpt>
      <trkpt lat="44.48109" lon="1.64996">
        <ele>165.48</ele>
        <time>2020-10-24T08:59:18Z</time>
      </trkpt>
      <trkpt lat="44.48105" lon="1.64998">
        <ele>165.96</ele>
        <time>2020-10-24T08:59:21Z</time>
      </trkpt>
      <trkpt lat="44.48094" lon="1.65008">
        <ele>164.52</ele>
        <time>2020-10-24T08:59:33Z</time>
      </trkpt>
      <trkpt lat="44.48091" lon="1.6501">
        <ele>164.52</ele>
        <time>2020-10-24T08:59:36Z</time>
      </trkpt>
      <trkpt lat="44.48088" lon="1.65012">
        <ele>164.52</ele>
        <time>2020-10-24T08:59:39Z</time>
      </trkpt>
      <trkpt lat="44.4807" lon="1.6502">
        <ele>162.12</ele>
        <time>2020-10-24T08:59:55Z</time>
      </trkpt>
      <trkpt lat="44.48055" lon="1.65021">
        <ele>161.16</ele>
        <time>2020-10-24T09:00:08Z</time>
      </trkpt>
      <trkpt lat="44.48052" lon="1.65021">
        <ele>161.16</ele>
        <time>2020-10-24T09:00:10Z</time>
      </trkpt>
      <trkpt lat="44.4804" lon="1.65025">
        <ele>161.16</ele>
        <time>2020-10-24T09:00:24Z</time>
      </trkpt>
      <trkpt lat="44.48042" lon="1.65025">
        <ele>160.2</ele>
        <time>2020-10-24T09:00:29Z</time>
      </trkpt>
      <trkpt lat="44.48036" lon="1.65029">
        <ele>160.68</ele>
        <time>2020-10-24T09:00:35Z</time>
      </trkpt>
      <trkpt lat="44.48034" lon="1.65031">
        <ele>160.68</ele>
        <time>2020-10-24T09:00:37Z</time>
      </trkpt>
      <trkpt lat="44.48032" lon="1.65034">
        <ele>160.2</ele>
        <time>2020-10-24T09:00:49Z</time>
      </trkpt>
      <trkpt lat="44.48029" lon="1.65036">
        <ele>160.2</ele>
        <time>2020-10-24T09:01:08Z</time>
      </trkpt>
      <trkpt lat="44.4802" lon="1.65039">
        <ele>160.2</ele>
        <time>2020-10-24T09:01:19Z</time>
      </trkpt>
      <trkpt lat="44.48015" lon="1.65043">
        <ele>159.72</ele>
        <time>2020-10-24T09:01:34Z</time>
      </trkpt>
      <trkpt lat="44.48012" lon="1.65039">
        <ele>160.2</ele>
        <time>2020-10-24T09:02:06Z</time>
      </trkpt>
      <trkpt lat="44.48015" lon="1.65043">
        <ele>160.68</ele>
        <time>2020-10-24T09:02:30Z</time>
      </trkpt>
      <trkpt lat="44.4801" lon="1.65042">
        <ele>160.2</ele>
        <time>2020-10-24T09:02:48Z</time>
      </trkpt>
      <trkpt lat="44.48003" lon="1.65041">
        <ele>160.2</ele>
        <time>2020-10-24T09:03:06Z</time>
      </trkpt>
      <trkpt lat="44.47995" lon="1.65042">
        <ele>159.24</ele>
        <time>2020-10-24T09:03:27Z</time>
      </trkpt>
      <trkpt lat="44.47985" lon="1.65049">
        <ele>159.72</ele>
        <time>2020-10-24T09:03:42Z</time>
      </trkpt>
      <trkpt lat="44.47984" lon="1.65051">
        <ele>159.24</ele>
        <time>2020-10-24T09:03:43Z</time>
      </trkpt>
      <trkpt lat="44.47979" lon="1.65063">
        <ele>159.24</ele>
        <time>2020-10-24T09:03:54Z</time>
      </trkpt>
      <trkpt lat="44.47964" lon="1.65068">
        <ele>159.24</ele>
        <time>2020-10-24T09:04:11Z</time>
      </trkpt>
      <trkpt lat="44.47953" lon="1.65071">
        <ele>158.75</ele>
        <time>2020-10-24T09:04:20Z</time>
      </trkpt>
      <trkpt lat="44.4794" lon="1.65078">
        <ele>158.75</ele>
        <time>2020-10-24T09:04:36Z</time>
      </trkpt>
      <trkpt lat="44.47928" lon="1.65082">
        <ele>157.31</ele>
        <time>2020-10-24T09:04:52Z</time>
      </trkpt>
      <trkpt lat="44.47919" lon="1.65084">
        <ele>155.87</ele>
        <time>2020-10-24T09:05:01Z</time>
      </trkpt>
      <trkpt lat="44.47906" lon="1.65082">
        <ele>154.43</ele>
        <time>2020-10-24T09:05:09Z</time>
      </trkpt>
      <trkpt lat="44.47901" lon="1.65062">
        <ele>151.54</ele>
        <time>2020-10-24T09:05:24Z</time>
      </trkpt>
      <trkpt lat="44.47899" lon="1.65048">
        <ele>150.58</ele>
        <time>2020-10-24T09:05:29Z</time>
      </trkpt>
      <trkpt lat="44.47899" lon="1.65046">
        <ele>150.58</ele>
        <time>2020-10-24T09:05:30Z</time>
      </trkpt>
      <trkpt lat="44.47899" lon="1.65044">
        <ele>150.58</ele>
        <time>2020-10-24T09:05:31Z</time>
      </trkpt>
      <trkpt lat="44.47898" lon="1.65024">
        <ele>148.18</ele>
        <time>2020-10-24T09:05:46Z</time>
      </trkpt>
      <trkpt lat="44.479" lon="1.65019">
        <ele>147.7</ele>
        <time>2020-10-24T09:06:04Z</time>
      </trkpt>
      <trkpt lat="44.47903" lon="1.65018">
        <ele>147.7</ele>
        <time>2020-10-24T09:06:36Z</time>
      </trkpt>
      <trkpt lat="44.47899" lon="1.65007">
        <ele>147.22</ele>
        <time>2020-10-24T09:07:00Z</time>
      </trkpt>
      <trkpt lat="44.47901" lon="1.64982">
        <ele>143.85</ele>
        <time>2020-10-24T09:07:21Z</time>
      </trkpt>
      <trkpt lat="44.47902" lon="1.64977">
        <ele>144.34</ele>
        <time>2020-10-24T09:07:24Z</time>
      </trkpt>
      <trkpt lat="44.47919" lon="1.64953">
        <ele>140.97</ele>
        <time>2020-10-24T09:07:42Z</time>
      </trkpt>
      <trkpt lat="44.47935" lon="1.64929">
        <ele>138.57</ele>
        <time>2020-10-24T09:08:01Z</time>
      </trkpt>
      <trkpt lat="44.4794" lon="1.6492">
        <ele>138.09</ele>
        <time>2020-10-24T09:08:16Z</time>
      </trkpt>
      <trkpt lat="44.47949" lon="1.64905">
        <ele>138.09</ele>
        <time>2020-10-24T09:08:29Z</time>
      </trkpt>
      <trkpt lat="44.47968" lon="1.64898">
        <ele>138.09</ele>
        <time>2020-10-24T09:08:44Z</time>
      </trkpt>
      <trkpt lat="44.47981" lon="1.64889">
        <ele>138.09</ele>
        <time>2020-10-24T09:08:58Z</time>
      </trkpt>
      <trkpt lat="44.48002" lon="1.64878">
        <ele>138.09</ele>
        <time>2020-10-24T09:09:16Z</time>
      </trkpt>
      <trkpt lat="44.48003" lon="1.64877">
        <ele>137.61</ele>
        <time>2020-10-24T09:09:17Z</time>
      </trkpt>
      <trkpt lat="44.48003" lon="1.64876">
        <ele>137.61</ele>
        <time>2020-10-24T09:09:18Z</time>
      </trkpt>
      <trkpt lat="44.48004" lon="1.64874">
        <ele>137.13</ele>
        <time>2020-10-24T09:09:19Z</time>
      </trkpt>
      <trkpt lat="44.48004" lon="1.64872">
        <ele>137.61</ele>
        <time>2020-10-24T09:09:20Z</time>
      </trkpt>
      <trkpt lat="44.48005" lon="1.64871">
        <ele>137.13</ele>
        <time>2020-10-24T09:09:21Z</time>
      </trkpt>
      <trkpt lat="44.48005" lon="1.64869">
        <ele>137.13</ele>
        <time>2020-10-24T09:09:22Z</time>
      </trkpt>
      <trkpt lat="44.48002" lon="1.64845">
        <ele>134.72</ele>
        <time>2020-10-24T09:09:37Z</time>
      </trkpt>
      <trkpt lat="44.47999" lon="1.64823">
        <ele>134.72</ele>
        <time>2020-10-24T09:09:50Z</time>
      </trkpt>
      <trkpt lat="44.47996" lon="1.64799">
        <ele>133.76</ele>
        <time>2020-10-24T09:10:04Z</time>
      </trkpt>
      <trkpt lat="44.47991" lon="1.64779">
        <ele>133.76</ele>
        <time>2020-10-24T09:10:17Z</time>
      </trkpt>
      <trkpt lat="44.47998" lon="1.64759">
        <ele>132.8</ele>
        <time>2020-10-24T09:10:31Z</time>
      </trkpt>
      <trkpt lat="44.48012" lon="1.64743">
        <ele>132.8</ele>
        <time>2020-10-24T09:10:45Z</time>
      </trkpt>
      <trkpt lat="44.48023" lon="1.64724">
        <ele>133.76</ele>
        <time>2020-10-24T09:11:02Z</time>
      </trkpt>
      <trkpt lat="44.48022" lon="1.64719">
        <ele>137.13</ele>
        <time>2020-10-24T09:11:14Z</time>
      </trkpt>
      <trkpt lat="44.48019" lon="1.64712">
        <ele>139.53</ele>
        <time>2020-10-24T09:11:28Z</time>
      </trkpt>
      <trkpt lat="44.48022" lon="1.64705">
        <ele>140.01</ele>
        <time>2020-10-24T09:11:44Z</time>
      </trkpt>
      <trkpt lat="44.48018" lon="1.64702">
        <ele>139.53</ele>
        <time>2020-10-24T09:12:05Z</time>
      </trkpt>
      <trkpt lat="44.48022" lon="1.64709">
        <ele>138.57</ele>
        <time>2020-10-24T09:12:35Z</time>
      </trkpt>
      <trkpt lat="44.48021" lon="1.64711">
        <ele>140.01</ele>
        <time>2020-10-24T09:12:58Z</time>
      </trkpt>
      <trkpt lat="44.48023" lon="1.64709">
        <ele>139.05</ele>
        <time>2020-10-24T09:13:14Z</time>
      </trkpt>
      <trkpt lat="44.48024" lon="1.64704">
        <ele>139.53</ele>
        <time>2020-10-24T09:13:28Z</time>
      </trkpt>
      <trkpt lat="44.48028" lon="1.64695">
        <ele>139.53</ele>
        <time>2020-10-24T09:13:36Z</time>
      </trkpt>
      <trkpt lat="44.48029" lon="1.64694">
        <ele>139.53</ele>
        <time>2020-10-24T09:13:37Z</time>
      </trkpt>
      <trkpt lat="44.48036" lon="1.64682">
        <ele>139.53</ele>
        <time>2020-10-24T09:13:51Z</time>
      </trkpt>
      <trkpt lat="44.48039" lon="1.64678">
        <ele>139.53</ele>
        <time>2020-10-24T09:14:15Z</time>
      </trkpt>
      <trkpt lat="44.48047" lon="1.64674">
        <ele>139.05</ele>
        <time>2020-10-24T09:14:32Z</time>
      </trkpt>
      <trkpt lat="44.48056" lon="1.64657">
        <ele>138.57</ele>
        <time>2020-10-24T09:14:50Z</time>
      </trkpt>
      <trkpt lat="44.48069" lon="1.6464">
        <ele>138.57</ele>
        <time>2020-10-24T09:15:04Z</time>
      </trkpt>
      <trkpt lat="44.48079" lon="1.64627">
        <ele>138.57</ele>
        <time>2020-10-24T09:15:18Z</time>
      </trkpt>
      <trkpt lat="44.48081" lon="1.64625">
        <ele>139.05</ele>
        <time>2020-10-24T09:15:31Z</time>
      </trkpt>
      <trkpt lat="44.48088" lon="1.64619">
        <ele>139.05</ele>
        <time>2020-10-24T09:15:38Z</time>
      </trkpt>
      <trkpt lat="44.48094" lon="1.64608">
        <ele>138.57</ele>
        <time>2020-10-24T09:15:44Z</time>
      </trkpt>
      <trkpt lat="44.48096" lon="1.64604">
        <ele>138.57</ele>
        <time>2020-10-24T09:15:47Z</time>
      </trkpt>
      <trkpt lat="44.48111" lon="1.64589">
        <ele>138.57</ele>
        <time>2020-10-24T09:16:02Z</time>
      </trkpt>
      <trkpt lat="44.4812" lon="1.6457">
        <ele>138.57</ele>
        <time>2020-10-24T09:16:17Z</time>
      </trkpt>
      <trkpt lat="44.48125" lon="1.64566">
        <ele>137.13</ele>
        <time>2020-10-24T09:16:36Z</time>
      </trkpt>
      <trkpt lat="44.48126" lon="1.64574">
        <ele>134.72</ele>
        <time>2020-10-24T09:16:53Z</time>
      </trkpt>
      <trkpt lat="44.48128" lon="1.64576">
        <ele>134.24</ele>
        <time>2020-10-24T09:17:10Z</time>
      </trkpt>
      <trkpt lat="44.48133" lon="1.64581">
        <ele>132.8</ele>
        <time>2020-10-24T09:17:34Z</time>
      </trkpt>
      <trkpt lat="44.48135" lon="1.64595">
        <ele>129.92</ele>
        <time>2020-10-24T09:17:49Z</time>
      </trkpt>
      <trkpt lat="44.48127" lon="1.64591">
        <ele>130.4</ele>
        <time>2020-10-24T09:18:09Z</time>
      </trkpt>
      <trkpt lat="44.48122" lon="1.64576">
        <ele>129.92</ele>
        <time>2020-10-24T09:18:46Z</time>
      </trkpt>
      <trkpt lat="44.48118" lon="1.64576">
        <ele>130.4</ele>
        <time>2020-10-24T09:19:17Z</time>
      </trkpt>
      <trkpt lat="44.48123" lon="1.6458">
        <ele>130.4</ele>
        <time>2020-10-24T09:19:55Z</time>
      </trkpt>
      <trkpt lat="44.4812" lon="1.6458">
        <ele>129.92</ele>
        <time>2020-10-24T09:20:24Z</time>
      </trkpt>
      <trkpt lat="44.48119" lon="1.6458">
        <ele>130.4</ele>
        <time>2020-10-24T09:20:57Z</time>
      </trkpt>
      <trkpt lat="44.48111" lon="1.64587">
        <ele>130.4</ele>
        <time>2020-10-24T09:21:21Z</time>
      </trkpt>
      <trkpt lat="44.48102" lon="1.64585">
        <ele>130.4</ele>
        <time>2020-10-24T09:21:29Z</time>
      </trkpt>
      <trkpt lat="44.4808" lon="1.64584">
        <ele>130.4</ele>
        <time>2020-10-24T09:21:44Z</time>
      </trkpt>
      <trkpt lat="44.48079" lon="1.64584">
        <ele>130.4</ele>
        <time>2020-10-24T09:21:45Z</time>
      </trkpt>
      <trkpt lat="44.48062" lon="1.64584">
        <ele>130.88</ele>
        <time>2020-10-24T09:22:05Z</time>
      </trkpt>
      <trkpt lat="44.48059" lon="1.64583">
        <ele>130.4</ele>
        <time>2020-10-24T09:22:25Z</time>
      </trkpt>
      <trkpt lat="44.48056" lon="1.64581">
        <ele>129.43</ele>
        <time>2020-10-24T09:22:28Z</time>
      </trkpt>
      <trkpt lat="44.48017" lon="1.64602">
        <ele>129.43</ele>
        <time>2020-10-24T09:35:37Z</time>
      </trkpt>
      <trkpt lat="44.48017" lon="1.64601">
        <ele>129.43</ele>
        <time>2020-10-24T09:35:38Z</time>
      </trkpt>
      <trkpt lat="44.48007" lon="1.64591">
        <ele>129.43</ele>
        <time>2020-10-24T09:35:52Z</time>
      </trkpt>
      <trkpt lat="44.48001" lon="1.6459">
        <ele>129.92</ele>
        <time>2020-10-24T09:35:59Z</time>
      </trkpt>
      <trkpt lat="44.47998" lon="1.6459">
        <ele>130.4</ele>
        <time>2020-10-24T09:36:02Z</time>
      </trkpt>
      <trkpt lat="44.4799" lon="1.64591">
        <ele>131.84</ele>
        <time>2020-10-24T09:36:10Z</time>
      </trkpt>
      <trkpt lat="44.47976" lon="1.6458">
        <ele>132.8</ele>
        <time>2020-10-24T09:36:26Z</time>
      </trkpt>
      <trkpt lat="44.47968" lon="1.64571">
        <ele>132.8</ele>
        <time>2020-10-24T09:36:39Z</time>
      </trkpt>
      <trkpt lat="44.47948" lon="1.64559">
        <ele>132.8</ele>
        <time>2020-10-24T09:36:55Z</time>
      </trkpt>
      <trkpt lat="44.47938" lon="1.64564">
        <ele>132.8</ele>
        <time>2020-10-24T09:37:04Z</time>
      </trkpt>
      <trkpt lat="44.47932" lon="1.64567">
        <ele>132.32</ele>
        <time>2020-10-24T09:37:10Z</time>
      </trkpt>
      <trkpt lat="44.47917" lon="1.64574">
        <ele>131.36</ele>
        <time>2020-10-24T09:37:25Z</time>
      </trkpt>
      <trkpt lat="44.47902" lon="1.64567">
        <ele>131.36</ele>
        <time>2020-10-24T09:37:41Z</time>
      </trkpt>
      <trkpt lat="44.47893" lon="1.64568">
        <ele>131.36</ele>
        <time>2020-10-24T09:37:48Z</time>
      </trkpt>
      <trkpt lat="44.47891" lon="1.64568">
        <ele>131.36</ele>
        <time>2020-10-24T09:37:50Z</time>
      </trkpt>
      <trkpt lat="44.47873" lon="1.64564">
        <ele>130.88</ele>
        <time>2020-10-24T09:38:05Z</time>
      </trkpt>
      <trkpt lat="44.47866" lon="1.64556">
        <ele>131.36</ele>
        <time>2020-10-24T09:38:19Z</time>
      </trkpt>
      <trkpt lat="44.47855" lon="1.64545">
        <ele>132.32</ele>
        <time>2020-10-24T09:38:34Z</time>
      </trkpt>
      <trkpt lat="44.47851" lon="1.64543">
        <ele>131.84</ele>
        <time>2020-10-24T09:38:51Z</time>
      </trkpt>
      <trkpt lat="44.47845" lon="1.64547">
        <ele>131.36</ele>
        <time>2020-10-24T09:39:07Z</time>
      </trkpt>
      <trkpt lat="44.47843" lon="1.64546">
        <ele>131.36</ele>
        <time>2020-10-24T09:39:11Z</time>
      </trkpt>
      <trkpt lat="44.4783" lon="1.64545">
        <ele>131.84</ele>
        <time>2020-10-24T09:39:29Z</time>
      </trkpt>
      <trkpt lat="44.4782" lon="1.6455">
        <ele>132.32</ele>
        <time>2020-10-24T09:39:49Z</time>
      </trkpt>
      <trkpt lat="44.4781" lon="1.64549">
        <ele>132.32</ele>
        <time>2020-10-24T09:40:04Z</time>
      </trkpt>
      <trkpt lat="44.4781" lon="1.64545">
        <ele>132.32</ele>
        <time>2020-10-24T09:40:21Z</time>
      </trkpt>
      <trkpt lat="44.47796" lon="1.64533">
        <ele>132.32</ele>
        <time>2020-10-24T09:40:34Z</time>
      </trkpt>
      <trkpt lat="44.47785" lon="1.64528">
        <ele>132.8</ele>
        <time>2020-10-24T09:40:52Z</time>
      </trkpt>
      <trkpt lat="44.47778" lon="1.64529">
        <ele>133.28</ele>
        <time>2020-10-24T09:41:00Z</time>
      </trkpt>
      <trkpt lat="44.47767" lon="1.64546">
        <ele>133.28</ele>
        <time>2020-10-24T09:41:14Z</time>
      </trkpt>
      <trkpt lat="44.47765" lon="1.64562">
        <ele>133.76</ele>
        <time>2020-10-24T09:41:38Z</time>
      </trkpt>
      <trkpt lat="44.47753" lon="1.64545">
        <ele>132.8</ele>
        <time>2020-10-24T09:41:55Z</time>
      </trkpt>
      <trkpt lat="44.47741" lon="1.6455">
        <ele>132.32</ele>
        <time>2020-10-24T09:42:12Z</time>
      </trkpt>
      <trkpt lat="44.47733" lon="1.64557">
        <ele>132.32</ele>
        <time>2020-10-24T09:42:27Z</time>
      </trkpt>
      <trkpt lat="44.47732" lon="1.64557">
        <ele>132.32</ele>
        <time>2020-10-24T09:42:47Z</time>
      </trkpt>
      <trkpt lat="44.47717" lon="1.6456">
        <ele>133.28</ele>
        <time>2020-10-24T09:43:03Z</time>
      </trkpt>
      <trkpt lat="44.47705" lon="1.64559">
        <ele>132.32</ele>
        <time>2020-10-24T09:43:20Z</time>
      </trkpt>
      <trkpt lat="44.47694" lon="1.64556">
        <ele>131.84</ele>
        <time>2020-10-24T09:43:38Z</time>
      </trkpt>
      <trkpt lat="44.47686" lon="1.64553">
        <ele>130.88</ele>
        <time>2020-10-24T09:43:52Z</time>
      </trkpt>
      <trkpt lat="44.47679" lon="1.64558">
        <ele>130.88</ele>
        <time>2020-10-24T09:44:06Z</time>
      </trkpt>
      <trkpt lat="44.47677" lon="1.64562">
        <ele>130.88</ele>
        <time>2020-10-24T09:44:13Z</time>
      </trkpt>
      <trkpt lat="44.4767" lon="1.64557">
        <ele>131.36</ele>
        <time>2020-10-24T09:44:32Z</time>
      </trkpt>
      <trkpt lat="44.47663" lon="1.64558">
        <ele>131.36</ele>
        <time>2020-10-24T09:44:47Z</time>
      </trkpt>
      <trkpt lat="44.4765" lon="1.64561">
        <ele>131.36</ele>
        <time>2020-10-24T09:45:00Z</time>
      </trkpt>
      <trkpt lat="44.47635" lon="1.64563">
        <ele>131.36</ele>
        <time>2020-10-24T09:45:15Z</time>
      </trkpt>
      <trkpt lat="44.47619" lon="1.64562">
        <ele>130.88</ele>
        <time>2020-10-24T09:45:30Z</time>
      </trkpt>
      <trkpt lat="44.4761" lon="1.64567">
        <ele>131.36</ele>
        <time>2020-10-24T09:45:44Z</time>
      </trkpt>
      <trkpt lat="44.47606" lon="1.64573">
        <ele>130.88</ele>
        <time>2020-10-24T09:46:02Z</time>
      </trkpt>
      <trkpt lat="44.47597" lon="1.64575">
        <ele>130.88</ele>
        <time>2020-10-24T09:46:21Z</time>
      </trkpt>
      <trkpt lat="44.47593" lon="1.64568">
        <ele>130.88</ele>
        <time>2020-10-24T09:46:38Z</time>
      </trkpt>
      <trkpt lat="44.47589" lon="1.64564">
        <ele>130.4</ele>
        <time>2020-10-24T09:46:42Z</time>
      </trkpt>
      <trkpt lat="44.47577" lon="1.64571">
        <ele>130.4</ele>
        <time>2020-10-24T09:46:53Z</time>
      </trkpt>
      <trkpt lat="44.47566" lon="1.64575">
        <ele>130.88</ele>
        <time>2020-10-24T09:47:04Z</time>
      </trkpt>
      <trkpt lat="44.47555" lon="1.64584">
        <ele>131.36</ele>
        <time>2020-10-24T09:47:14Z</time>
      </trkpt>
      <trkpt lat="44.47546" lon="1.64599">
        <ele>131.84</ele>
        <time>2020-10-24T09:47:23Z</time>
      </trkpt>
      <trkpt lat="44.47537" lon="1.64608">
        <ele>131.84</ele>
        <time>2020-10-24T09:47:33Z</time>
      </trkpt>
      <trkpt lat="44.47536" lon="1.64614">
        <ele>131.36</ele>
        <time>2020-10-24T09:47:51Z</time>
      </trkpt>
      <trkpt lat="44.47539" lon="1.64621">
        <ele>131.36</ele>
        <time>2020-10-24T09:48:10Z</time>
      </trkpt>
      <trkpt lat="44.47544" lon="1.64622">
        <ele>130.88</ele>
        <time>2020-10-24T09:48:25Z</time>
      </trkpt>
      <trkpt lat="44.47534" lon="1.64621">
        <ele>131.36</ele>
        <time>2020-10-24T09:48:41Z</time>
      </trkpt>
      <trkpt lat="44.47521" lon="1.64621">
        <ele>131.36</ele>
        <time>2020-10-24T09:48:55Z</time>
      </trkpt>
      <trkpt lat="44.47518" lon="1.64622">
        <ele>131.36</ele>
        <time>2020-10-24T09:48:58Z</time>
      </trkpt>
      <trkpt lat="44.47507" lon="1.64625">
        <ele>131.36</ele>
        <time>2020-10-24T09:49:13Z</time>
      </trkpt>
      <trkpt lat="44.47497" lon="1.64636">
        <ele>131.36</ele>
        <time>2020-10-24T09:49:32Z</time>
      </trkpt>
      <trkpt lat="44.47488" lon="1.64643">
        <ele>131.36</ele>
        <time>2020-10-24T09:49:47Z</time>
      </trkpt>
      <trkpt lat="44.47485" lon="1.64647">
        <ele>131.84</ele>
        <time>2020-10-24T09:49:50Z</time>
      </trkpt>
      <trkpt lat="44.47474" lon="1.64663">
        <ele>131.84</ele>
        <time>2020-10-24T09:50:01Z</time>
      </trkpt>
      <trkpt lat="44.47472" lon="1.64665">
        <ele>131.84</ele>
        <time>2020-10-24T09:50:03Z</time>
      </trkpt>
      <trkpt lat="44.47461" lon="1.64665">
        <ele>131.84</ele>
        <time>2020-10-24T09:50:13Z</time>
      </trkpt>
      <trkpt lat="44.47454" lon="1.64674">
        <ele>131.84</ele>
        <time>2020-10-24T09:50:21Z</time>
      </trkpt>
      <trkpt lat="44.4745" lon="1.64681">
        <ele>133.28</ele>
        <time>2020-10-24T09:50:26Z</time>
      </trkpt>
      <trkpt lat="44.47443" lon="1.64684">
        <ele>131.84</ele>
        <time>2020-10-24T09:50:40Z</time>
      </trkpt>
      <trkpt lat="44.47444" lon="1.64686">
        <ele>132.32</ele>
        <time>2020-10-24T09:51:03Z</time>
      </trkpt>
      <trkpt lat="44.47445" lon="1.64688">
        <ele>132.32</ele>
        <time>2020-10-24T09:51:22Z</time>
      </trkpt>
      <trkpt lat="44.47441" lon="1.64695">
        <ele>131.84</ele>
        <time>2020-10-24T09:51:36Z</time>
      </trkpt>
      <trkpt lat="44.47434" lon="1.64703">
        <ele>132.32</ele>
        <time>2020-10-24T09:51:49Z</time>
      </trkpt>
      <trkpt lat="44.47425" lon="1.64718">
        <ele>132.32</ele>
        <time>2020-10-24T09:52:02Z</time>
      </trkpt>
      <trkpt lat="44.47413" lon="1.64736">
        <ele>132.8</ele>
        <time>2020-10-24T09:52:17Z</time>
      </trkpt>
      <trkpt lat="44.474" lon="1.64748">
        <ele>132.32</ele>
        <time>2020-10-24T09:52:33Z</time>
      </trkpt>
      <trkpt lat="44.47387" lon="1.64756">
        <ele>132.8</ele>
        <time>2020-10-24T09:52:52Z</time>
      </trkpt>
      <trkpt lat="44.47376" lon="1.64776">
        <ele>132.8</ele>
        <time>2020-10-24T09:53:08Z</time>
      </trkpt>
      <trkpt lat="44.47366" lon="1.64798">
        <ele>132.8</ele>
        <time>2020-10-24T09:53:23Z</time>
      </trkpt>
      <trkpt lat="44.47358" lon="1.64813">
        <ele>133.28</ele>
        <time>2020-10-24T09:53:34Z</time>
      </trkpt>
      <trkpt lat="44.47356" lon="1.64818">
        <ele>133.28</ele>
        <time>2020-10-24T09:53:37Z</time>
      </trkpt>
      <trkpt lat="44.4735" lon="1.6483">
        <ele>134.24</ele>
        <time>2020-10-24T09:53:45Z</time>
      </trkpt>
      <trkpt lat="44.47337" lon="1.64845">
        <ele>133.76</ele>
        <time>2020-10-24T09:53:58Z</time>
      </trkpt>
      <trkpt lat="44.47326" lon="1.64869">
        <ele>134.72</ele>
        <time>2020-10-24T09:54:17Z</time>
      </trkpt>
      <trkpt lat="44.47319" lon="1.64895">
        <ele>133.28</ele>
        <time>2020-10-24T09:54:30Z</time>
      </trkpt>
      <trkpt lat="44.47313" lon="1.6491">
        <ele>133.28</ele>
        <time>2020-10-24T09:54:40Z</time>
      </trkpt>
      <trkpt lat="44.47309" lon="1.64934">
        <ele>133.76</ele>
        <time>2020-10-24T09:54:54Z</time>
      </trkpt>
      <trkpt lat="44.47308" lon="1.64939">
        <ele>133.76</ele>
        <time>2020-10-24T09:54:58Z</time>
      </trkpt>
      <trkpt lat="44.47308" lon="1.64941">
        <ele>134.24</ele>
        <time>2020-10-24T09:54:59Z</time>
      </trkpt>
      <trkpt lat="44.47307" lon="1.64943">
        <ele>134.24</ele>
        <time>2020-10-24T09:55:00Z</time>
      </trkpt>
      <trkpt lat="44.47304" lon="1.64962">
        <ele>134.24</ele>
        <time>2020-10-24T09:55:12Z</time>
      </trkpt>
      <trkpt lat="44.47299" lon="1.64983">
        <ele>134.24</ele>
        <time>2020-10-24T09:55:26Z</time>
      </trkpt>
      <trkpt lat="44.47295" lon="1.65006">
        <ele>133.28</ele>
        <time>2020-10-24T09:55:41Z</time>
      </trkpt>
      <trkpt lat="44.47289" lon="1.65033">
        <ele>133.28</ele>
        <time>2020-10-24T09:55:55Z</time>
      </trkpt>
      <trkpt lat="44.47287" lon="1.65063">
        <ele>133.28</ele>
        <time>2020-10-24T09:56:13Z</time>
      </trkpt>
      <trkpt lat="44.47284" lon="1.65076">
        <ele>132.8</ele>
        <time>2020-10-24T09:56:21Z</time>
      </trkpt>
      <trkpt lat="44.47283" lon="1.65078">
        <ele>133.28</ele>
        <time>2020-10-24T09:56:22Z</time>
      </trkpt>
      <trkpt lat="44.47283" lon="1.65084">
        <ele>132.8</ele>
        <time>2020-10-24T09:56:25Z</time>
      </trkpt>
      <trkpt lat="44.47283" lon="1.65087">
        <ele>132.8</ele>
        <time>2020-10-24T09:56:26Z</time>
      </trkpt>
      <trkpt lat="44.47278" lon="1.65111">
        <ele>132.8</ele>
        <time>2020-10-24T09:56:40Z</time>
      </trkpt>
      <trkpt lat="44.47275" lon="1.65135">
        <ele>132.8</ele>
        <time>2020-10-24T09:56:53Z</time>
      </trkpt>
      <trkpt lat="44.47273" lon="1.65165">
        <ele>133.76</ele>
        <time>2020-10-24T09:57:08Z</time>
      </trkpt>
      <trkpt lat="44.47272" lon="1.6519">
        <ele>133.28</ele>
        <time>2020-10-24T09:57:23Z</time>
      </trkpt>
      <trkpt lat="44.47271" lon="1.65212">
        <ele>133.28</ele>
        <time>2020-10-24T09:57:39Z</time>
      </trkpt>
      <trkpt lat="44.47272" lon="1.65227">
        <ele>133.28</ele>
        <time>2020-10-24T09:57:52Z</time>
      </trkpt>
      <trkpt lat="44.47273" lon="1.65227">
        <ele>133.28</ele>
        <time>2020-10-24T09:58:03Z</time>
      </trkpt>
      <trkpt lat="44.47272" lon="1.65229">
        <ele>133.28</ele>
        <time>2020-10-24T09:58:04Z</time>
      </trkpt>
      <trkpt lat="44.47273" lon="1.65245">
        <ele>133.28</ele>
        <time>2020-10-24T09:58:14Z</time>
      </trkpt>
      <trkpt lat="44.47272" lon="1.65246">
        <ele>133.28</ele>
        <time>2020-10-24T09:58:15Z</time>
      </trkpt>
      <trkpt lat="44.47272" lon="1.65248">
        <ele>132.8</ele>
        <time>2020-10-24T09:58:16Z</time>
      </trkpt>
      <trkpt lat="44.47273" lon="1.65276">
        <ele>132.8</ele>
        <time>2020-10-24T09:58:31Z</time>
      </trkpt>
      <trkpt lat="44.47276" lon="1.65305">
        <ele>132.8</ele>
        <time>2020-10-24T09:58:48Z</time>
      </trkpt>
      <trkpt lat="44.47278" lon="1.65333">
        <ele>133.28</ele>
        <time>2020-10-24T09:59:02Z</time>
      </trkpt>
      <trkpt lat="44.4728" lon="1.65359">
        <ele>133.28</ele>
        <time>2020-10-24T09:59:18Z</time>
      </trkpt>
      <trkpt lat="44.47282" lon="1.65386">
        <ele>133.76</ele>
        <time>2020-10-24T09:59:33Z</time>
      </trkpt>
      <trkpt lat="44.47285" lon="1.65411">
        <ele>134.24</ele>
        <time>2020-10-24T09:59:47Z</time>
      </trkpt>
      <trkpt lat="44.47287" lon="1.65442">
        <ele>134.24</ele>
        <time>2020-10-24T10:00:05Z</time>
      </trkpt>
      <trkpt lat="44.4729" lon="1.65467">
        <ele>134.24</ele>
        <time>2020-10-24T10:00:19Z</time>
      </trkpt>
      <trkpt lat="44.47292" lon="1.65468">
        <ele>134.24</ele>
        <time>2020-10-24T10:00:36Z</time>
      </trkpt>
      <trkpt lat="44.47293" lon="1.65474">
        <ele>134.24</ele>
        <time>2020-10-24T10:00:54Z</time>
      </trkpt>
      <trkpt lat="44.47289" lon="1.6549">
        <ele>134.72</ele>
        <time>2020-10-24T10:01:10Z</time>
      </trkpt>
      <trkpt lat="44.4729" lon="1.65508">
        <ele>133.76</ele>
        <time>2020-10-24T10:01:23Z</time>
      </trkpt>
      <trkpt lat="44.47292" lon="1.65528">
        <ele>134.24</ele>
        <time>2020-10-24T10:01:38Z</time>
      </trkpt>
      <trkpt lat="44.47292" lon="1.65531">
        <ele>134.72</ele>
        <time>2020-10-24T10:01:41Z</time>
      </trkpt>
      <trkpt lat="44.47291" lon="1.65556">
        <ele>133.76</ele>
        <time>2020-10-24T10:01:56Z</time>
      </trkpt>
      <trkpt lat="44.47292" lon="1.65582">
        <ele>133.76</ele>
        <time>2020-10-24T10:02:10Z</time>
      </trkpt>
      <trkpt lat="44.47292" lon="1.65586">
        <ele>133.76</ele>
        <time>2020-10-24T10:02:12Z</time>
      </trkpt>
      <trkpt lat="44.47292" lon="1.65588">
        <ele>133.76</ele>
        <time>2020-10-24T10:02:13Z</time>
      </trkpt>
      <trkpt lat="44.47292" lon="1.65589">
        <ele>133.76</ele>
        <time>2020-10-24T10:02:14Z</time>
      </trkpt>
      <trkpt lat="44.4729" lon="1.65616">
        <ele>134.24</ele>
        <time>2020-10-24T10:02:30Z</time>
      </trkpt>
      <trkpt lat="44.47289" lon="1.65646">
        <ele>134.24</ele>
        <time>2020-10-24T10:02:48Z</time>
      </trkpt>
      <trkpt lat="44.47288" lon="1.65655">
        <ele>134.24</ele>
        <time>2020-10-24T10:02:53Z</time>
      </trkpt>
      <trkpt lat="44.47288" lon="1.65657">
        <ele>134.72</ele>
        <time>2020-10-24T10:02:54Z</time>
      </trkpt>
      <trkpt lat="44.47289" lon="1.65683">
        <ele>134.72</ele>
        <time>2020-10-24T10:03:10Z</time>
      </trkpt>
      <trkpt lat="44.47288" lon="1.657">
        <ele>133.76</ele>
        <time>2020-10-24T10:03:21Z</time>
      </trkpt>
      <trkpt lat="44.47285" lon="1.6573">
        <ele>134.24</ele>
        <time>2020-10-24T10:03:38Z</time>
      </trkpt>
      <trkpt lat="44.47284" lon="1.65753">
        <ele>134.24</ele>
        <time>2020-10-24T10:03:53Z</time>
      </trkpt>
      <trkpt lat="44.47284" lon="1.65782">
        <ele>133.76</ele>
        <time>2020-10-24T10:04:08Z</time>
      </trkpt>
      <trkpt lat="44.47283" lon="1.65803">
        <ele>133.76</ele>
        <time>2020-10-24T10:04:20Z</time>
      </trkpt>
      <trkpt lat="44.47283" lon="1.65827">
        <ele>133.76</ele>
        <time>2020-10-24T10:04:36Z</time>
      </trkpt>
      <trkpt lat="44.47283" lon="1.65851">
        <ele>133.28</ele>
        <time>2020-10-24T10:04:50Z</time>
      </trkpt>
      <trkpt lat="44.47284" lon="1.65872">
        <ele>133.76</ele>
        <time>2020-10-24T10:05:01Z</time>
      </trkpt>
      <trkpt lat="44.47284" lon="1.65874">
        <ele>133.28</ele>
        <time>2020-10-24T10:05:02Z</time>
      </trkpt>
      <trkpt lat="44.47281" lon="1.65896">
        <ele>133.76</ele>
        <time>2020-10-24T10:05:17Z</time>
      </trkpt>
      <trkpt lat="44.47281" lon="1.65898">
        <ele>133.28</ele>
        <time>2020-10-24T10:05:18Z</time>
      </trkpt>
      <trkpt lat="44.4728" lon="1.659">
        <ele>133.76</ele>
        <time>2020-10-24T10:05:19Z</time>
      </trkpt>
      <trkpt lat="44.4728" lon="1.65902">
        <ele>133.28</ele>
        <time>2020-10-24T10:05:20Z</time>
      </trkpt>
      <trkpt lat="44.47279" lon="1.65911">
        <ele>132.8</ele>
        <time>2020-10-24T10:05:25Z</time>
      </trkpt>
      <trkpt lat="44.47279" lon="1.65917">
        <ele>132.8</ele>
        <time>2020-10-24T10:05:28Z</time>
      </trkpt>
      <trkpt lat="44.47275" lon="1.6593">
        <ele>133.28</ele>
        <time>2020-10-24T10:05:37Z</time>
      </trkpt>
      <trkpt lat="44.47272" lon="1.6595">
        <ele>133.28</ele>
        <time>2020-10-24T10:05:49Z</time>
      </trkpt>
      <trkpt lat="44.47269" lon="1.65972">
        <ele>133.28</ele>
        <time>2020-10-24T10:06:03Z</time>
      </trkpt>
      <trkpt lat="44.47267" lon="1.65994">
        <ele>133.28</ele>
        <time>2020-10-24T10:06:16Z</time>
      </trkpt>
      <trkpt lat="44.47271" lon="1.66">
        <ele>133.28</ele>
        <time>2020-10-24T10:06:29Z</time>
      </trkpt>
      <trkpt lat="44.47269" lon="1.66003">
        <ele>133.28</ele>
        <time>2020-10-24T10:06:35Z</time>
      </trkpt>
      <trkpt lat="44.47269" lon="1.66006">
        <ele>133.28</ele>
        <time>2020-10-24T10:06:37Z</time>
      </trkpt>
      <trkpt lat="44.4727" lon="1.66018">
        <ele>132.8</ele>
        <time>2020-10-24T10:06:48Z</time>
      </trkpt>
      <trkpt lat="44.47265" lon="1.66041">
        <ele>132.8</ele>
        <time>2020-10-24T10:07:04Z</time>
      </trkpt>
      <trkpt lat="44.47259" lon="1.66061">
        <ele>132.8</ele>
        <time>2020-10-24T10:07:18Z</time>
      </trkpt>
      <trkpt lat="44.47254" lon="1.66077">
        <ele>132.8</ele>
        <time>2020-10-24T10:07:34Z</time>
      </trkpt>
      <trkpt lat="44.47245" lon="1.66102">
        <ele>132.8</ele>
        <time>2020-10-24T10:07:50Z</time>
      </trkpt>
      <trkpt lat="44.47236" lon="1.66109">
        <ele>133.28</ele>
        <time>2020-10-24T10:07:58Z</time>
      </trkpt>
      <trkpt lat="44.4722" lon="1.66129">
        <ele>132.8</ele>
        <time>2020-10-24T10:08:15Z</time>
      </trkpt>
      <trkpt lat="44.47204" lon="1.66141">
        <ele>133.76</ele>
        <time>2020-10-24T10:08:29Z</time>
      </trkpt>
      <trkpt lat="44.47194" lon="1.66158">
        <ele>133.28</ele>
        <time>2020-10-24T10:08:44Z</time>
      </trkpt>
      <trkpt lat="44.47178" lon="1.6617">
        <ele>133.76</ele>
        <time>2020-10-24T10:08:59Z</time>
      </trkpt>
      <trkpt lat="44.47163" lon="1.66187">
        <ele>133.76</ele>
        <time>2020-10-24T10:09:16Z</time>
      </trkpt>
      <trkpt lat="44.47143" lon="1.6621">
        <ele>133.76</ele>
        <time>2020-10-24T10:09:34Z</time>
      </trkpt>
      <trkpt lat="44.47131" lon="1.66216">
        <ele>133.76</ele>
        <time>2020-10-24T10:09:48Z</time>
      </trkpt>
      <trkpt lat="44.47123" lon="1.66214">
        <ele>134.72</ele>
        <time>2020-10-24T10:09:57Z</time>
      </trkpt>
      <trkpt lat="44.47112" lon="1.66199">
        <ele>135.68</ele>
        <time>2020-10-24T10:10:11Z</time>
      </trkpt>
      <trkpt lat="44.47109" lon="1.66197">
        <ele>136.64</ele>
        <time>2020-10-24T10:10:16Z</time>
      </trkpt>
      <trkpt lat="44.47107" lon="1.66197">
        <ele>136.64</ele>
        <time>2020-10-24T10:10:18Z</time>
      </trkpt>
      <trkpt lat="44.47106" lon="1.66197">
        <ele>136.16</ele>
        <time>2020-10-24T10:10:19Z</time>
      </trkpt>
      <trkpt lat="44.47095" lon="1.66182">
        <ele>136.64</ele>
        <time>2020-10-24T10:10:32Z</time>
      </trkpt>
      <trkpt lat="44.47082" lon="1.66169">
        <ele>138.09</ele>
        <time>2020-10-24T10:10:47Z</time>
      </trkpt>
      <trkpt lat="44.47068" lon="1.6616">
        <ele>138.57</ele>
        <time>2020-10-24T10:11:01Z</time>
      </trkpt>
      <trkpt lat="44.47066" lon="1.66159">
        <ele>139.53</ele>
        <time>2020-10-24T10:11:03Z</time>
      </trkpt>
      <trkpt lat="44.4706" lon="1.6615">
        <ele>139.53</ele>
        <time>2020-10-24T10:11:13Z</time>
      </trkpt>
      <trkpt lat="44.47047" lon="1.66139">
        <ele>142.41</ele>
        <time>2020-10-24T10:11:30Z</time>
      </trkpt>
      <trkpt lat="44.47045" lon="1.66136">
        <ele>142.41</ele>
        <time>2020-10-24T10:11:35Z</time>
      </trkpt>
      <trkpt lat="44.47044" lon="1.66135">
        <ele>143.37</ele>
        <time>2020-10-24T10:11:36Z</time>
      </trkpt>
      <trkpt lat="44.47037" lon="1.66125">
        <ele>144.82</ele>
        <time>2020-10-24T10:11:48Z</time>
      </trkpt>
      <trkpt lat="44.47027" lon="1.66117">
        <ele>146.26</ele>
        <time>2020-10-24T10:12:01Z</time>
      </trkpt>
      <trkpt lat="44.47026" lon="1.66117">
        <ele>146.74</ele>
        <time>2020-10-24T10:12:02Z</time>
      </trkpt>
      <trkpt lat="44.47024" lon="1.66114">
        <ele>147.7</ele>
        <time>2020-10-24T10:12:07Z</time>
      </trkpt>
      <trkpt lat="44.4701" lon="1.66107">
        <ele>150.1</ele>
        <time>2020-10-24T10:12:22Z</time>
      </trkpt>
      <trkpt lat="44.46998" lon="1.66097">
        <ele>151.06</ele>
        <time>2020-10-24T10:12:38Z</time>
      </trkpt>
      <trkpt lat="44.46986" lon="1.66085">
        <ele>152.51</ele>
        <time>2020-10-24T10:12:52Z</time>
      </trkpt>
      <trkpt lat="44.46975" lon="1.66075">
        <ele>154.43</ele>
        <time>2020-10-24T10:13:06Z</time>
      </trkpt>
      <trkpt lat="44.46962" lon="1.66067">
        <ele>155.87</ele>
        <time>2020-10-24T10:13:20Z</time>
      </trkpt>
      <trkpt lat="44.4695" lon="1.66058">
        <ele>157.31</ele>
        <time>2020-10-24T10:13:35Z</time>
      </trkpt>
      <trkpt lat="44.4695" lon="1.66057">
        <ele>157.79</ele>
        <time>2020-10-24T10:13:36Z</time>
      </trkpt>
      <trkpt lat="44.46938" lon="1.66048">
        <ele>159.72</ele>
        <time>2020-10-24T10:13:49Z</time>
      </trkpt>
      <trkpt lat="44.46927" lon="1.66042">
        <ele>161.64</ele>
        <time>2020-10-24T10:14:01Z</time>
      </trkpt>
      <trkpt lat="44.46917" lon="1.66034">
        <ele>163.08</ele>
        <time>2020-10-24T10:14:15Z</time>
      </trkpt>
      <trkpt lat="44.46903" lon="1.66027">
        <ele>165.48</ele>
        <time>2020-10-24T10:14:31Z</time>
      </trkpt>
      <trkpt lat="44.46899" lon="1.66019">
        <ele>167.41</ele>
        <time>2020-10-24T10:14:45Z</time>
      </trkpt>
      <trkpt lat="44.46891" lon="1.66009">
        <ele>168.85</ele>
        <time>2020-10-24T10:14:58Z</time>
      </trkpt>
      <trkpt lat="44.46887" lon="1.65992">
        <ele>170.77</ele>
        <time>2020-10-24T10:15:14Z</time>
      </trkpt>
      <trkpt lat="44.46885" lon="1.65974">
        <ele>173.17</ele>
        <time>2020-10-24T10:15:29Z</time>
      </trkpt>
      <trkpt lat="44.46883" lon="1.65965">
        <ele>173.66</ele>
        <time>2020-10-24T10:15:36Z</time>
      </trkpt>
      <trkpt lat="44.46878" lon="1.65951">
        <ele>174.62</ele>
        <time>2020-10-24T10:15:48Z</time>
      </trkpt>
      <trkpt lat="44.46871" lon="1.6593">
        <ele>177.02</ele>
        <time>2020-10-24T10:16:05Z</time>
      </trkpt>
      <trkpt lat="44.46862" lon="1.65912">
        <ele>178.94</ele>
        <time>2020-10-24T10:16:20Z</time>
      </trkpt>
      <trkpt lat="44.46854" lon="1.65891">
        <ele>181.35</ele>
        <time>2020-10-24T10:16:38Z</time>
      </trkpt>
      <trkpt lat="44.46846" lon="1.65886">
        <ele>183.27</ele>
        <time>2020-10-24T10:16:54Z</time>
      </trkpt>
      <trkpt lat="44.46845" lon="1.65887">
        <ele>183.75</ele>
        <time>2020-10-24T10:16:55Z</time>
      </trkpt>
      <trkpt lat="44.46839" lon="1.65899">
        <ele>185.67</ele>
        <time>2020-10-24T10:17:07Z</time>
      </trkpt>
      <trkpt lat="44.46839" lon="1.65903">
        <ele>186.63</ele>
        <time>2020-10-24T10:17:10Z</time>
      </trkpt>
      <trkpt lat="44.46835" lon="1.65918">
        <ele>188.56</ele>
        <time>2020-10-24T10:17:24Z</time>
      </trkpt>
      <trkpt lat="44.46835" lon="1.6592">
        <ele>188.56</ele>
        <time>2020-10-24T10:17:25Z</time>
      </trkpt>
      <trkpt lat="44.4683" lon="1.65934">
        <ele>190</ele>
        <time>2020-10-24T10:17:40Z</time>
      </trkpt>
      <trkpt lat="44.46823" lon="1.6595">
        <ele>191.92</ele>
        <time>2020-10-24T10:17:55Z</time>
      </trkpt>
      <trkpt lat="44.46818" lon="1.65969">
        <ele>193.36</ele>
        <time>2020-10-24T10:18:11Z</time>
      </trkpt>
      <trkpt lat="44.46816" lon="1.65988">
        <ele>195.28</ele>
        <time>2020-10-24T10:18:25Z</time>
      </trkpt>
      <trkpt lat="44.46811" lon="1.66006">
        <ele>197.21</ele>
        <time>2020-10-24T10:18:39Z</time>
      </trkpt>
      <trkpt lat="44.46808" lon="1.66031">
        <ele>199.13</ele>
        <time>2020-10-24T10:18:56Z</time>
      </trkpt>
      <trkpt lat="44.46807" lon="1.66042">
        <ele>199.61</ele>
        <time>2020-10-24T10:19:06Z</time>
      </trkpt>
      <trkpt lat="44.468" lon="1.66061">
        <ele>201.53</ele>
        <time>2020-10-24T10:19:19Z</time>
      </trkpt>
      <trkpt lat="44.46795" lon="1.66081">
        <ele>202.49</ele>
        <time>2020-10-24T10:19:33Z</time>
      </trkpt>
      <trkpt lat="44.46788" lon="1.661">
        <ele>203.94</ele>
        <time>2020-10-24T10:19:47Z</time>
      </trkpt>
      <trkpt lat="44.46788" lon="1.66119">
        <ele>206.82</ele>
        <time>2020-10-24T10:20:01Z</time>
      </trkpt>
      <trkpt lat="44.46784" lon="1.66138">
        <ele>207.78</ele>
        <time>2020-10-24T10:20:14Z</time>
      </trkpt>
      <trkpt lat="44.46784" lon="1.66139">
        <ele>208.74</ele>
        <time>2020-10-24T10:20:15Z</time>
      </trkpt>
      <trkpt lat="44.46781" lon="1.66156">
        <ele>209.7</ele>
        <time>2020-10-24T10:20:28Z</time>
      </trkpt>
      <trkpt lat="44.4678" lon="1.66157">
        <ele>210.19</ele>
        <time>2020-10-24T10:20:29Z</time>
      </trkpt>
      <trkpt lat="44.46776" lon="1.66176">
        <ele>213.07</ele>
        <time>2020-10-24T10:20:44Z</time>
      </trkpt>
      <trkpt lat="44.46775" lon="1.66179">
        <ele>213.07</ele>
        <time>2020-10-24T10:20:46Z</time>
      </trkpt>
      <trkpt lat="44.46773" lon="1.66187">
        <ele>214.03</ele>
        <time>2020-10-24T10:20:52Z</time>
      </trkpt>
      <trkpt lat="44.46772" lon="1.66192">
        <ele>214.99</ele>
        <time>2020-10-24T10:20:56Z</time>
      </trkpt>
      <trkpt lat="44.46772" lon="1.66194">
        <ele>214.99</ele>
        <time>2020-10-24T10:20:57Z</time>
      </trkpt>
      <trkpt lat="44.46772" lon="1.66195">
        <ele>214.99</ele>
        <time>2020-10-24T10:20:58Z</time>
      </trkpt>
      <trkpt lat="44.46768" lon="1.66216">
        <ele>217.4</ele>
        <time>2020-10-24T10:21:13Z</time>
      </trkpt>
      <trkpt lat="44.46767" lon="1.66219">
        <ele>216.91</ele>
        <time>2020-10-24T10:21:15Z</time>
      </trkpt>
      <trkpt lat="44.46766" lon="1.66223">
        <ele>217.88</ele>
        <time>2020-10-24T10:21:18Z</time>
      </trkpt>
      <trkpt lat="44.46764" lon="1.66233">
        <ele>218.84</ele>
        <time>2020-10-24T10:21:26Z</time>
      </trkpt>
      <trkpt lat="44.46757" lon="1.66249">
        <ele>220.76</ele>
        <time>2020-10-24T10:21:40Z</time>
      </trkpt>
      <trkpt lat="44.46753" lon="1.66265">
        <ele>222.68</ele>
        <time>2020-10-24T10:21:54Z</time>
      </trkpt>
      <trkpt lat="44.46752" lon="1.66267">
        <ele>222.68</ele>
        <time>2020-10-24T10:21:56Z</time>
      </trkpt>
      <trkpt lat="44.46752" lon="1.66268">
        <ele>222.68</ele>
        <time>2020-10-24T10:21:57Z</time>
      </trkpt>
      <trkpt lat="44.46746" lon="1.66285">
        <ele>225.09</ele>
        <time>2020-10-24T10:22:13Z</time>
      </trkpt>
      <trkpt lat="44.4674" lon="1.66304">
        <ele>227.97</ele>
        <time>2020-10-24T10:22:29Z</time>
      </trkpt>
      <trkpt lat="44.4673" lon="1.66325">
        <ele>230.37</ele>
        <time>2020-10-24T10:22:45Z</time>
      </trkpt>
      <trkpt lat="44.46727" lon="1.66342">
        <ele>232.3</ele>
        <time>2020-10-24T10:22:58Z</time>
      </trkpt>
      <trkpt lat="44.46722" lon="1.66358">
        <ele>234.22</ele>
        <time>2020-10-24T10:23:12Z</time>
      </trkpt>
      <trkpt lat="44.46715" lon="1.66376">
        <ele>236.62</ele>
        <time>2020-10-24T10:23:28Z</time>
      </trkpt>
      <trkpt lat="44.46705" lon="1.66389">
        <ele>238.54</ele>
        <time>2020-10-24T10:23:46Z</time>
      </trkpt>
      <trkpt lat="44.46692" lon="1.66388">
        <ele>241.43</ele>
        <time>2020-10-24T10:24:02Z</time>
      </trkpt>
      <trkpt lat="44.46685" lon="1.66388">
        <ele>242.39</ele>
        <time>2020-10-24T10:24:16Z</time>
      </trkpt>
      <trkpt lat="44.4667" lon="1.66385">
        <ele>243.35</ele>
        <time>2020-10-24T10:24:32Z</time>
      </trkpt>
      <trkpt lat="44.46655" lon="1.66384">
        <ele>244.31</ele>
        <time>2020-10-24T10:24:47Z</time>
      </trkpt>
      <trkpt lat="44.4665" lon="1.66395">
        <ele>244.31</ele>
        <time>2020-10-24T10:24:58Z</time>
      </trkpt>
      <trkpt lat="44.46652" lon="1.66413">
        <ele>245.27</ele>
        <time>2020-10-24T10:25:13Z</time>
      </trkpt>
      <trkpt lat="44.46654" lon="1.66428">
        <ele>246.23</ele>
        <time>2020-10-24T10:25:25Z</time>
      </trkpt>
      <trkpt lat="44.46656" lon="1.66444">
        <ele>248.64</ele>
        <time>2020-10-24T10:25:37Z</time>
      </trkpt>
      <trkpt lat="44.46656" lon="1.66458">
        <ele>250.08</ele>
        <time>2020-10-24T10:25:49Z</time>
      </trkpt>
      <trkpt lat="44.46651" lon="1.66474">
        <ele>252</ele>
        <time>2020-10-24T10:26:04Z</time>
      </trkpt>
      <trkpt lat="44.46648" lon="1.6649">
        <ele>254.41</ele>
        <time>2020-10-24T10:26:18Z</time>
      </trkpt>
      <trkpt lat="44.46642" lon="1.66504">
        <ele>257.29</ele>
        <time>2020-10-24T10:26:32Z</time>
      </trkpt>
      <trkpt lat="44.46636" lon="1.66519">
        <ele>260.65</ele>
        <time>2020-10-24T10:26:47Z</time>
      </trkpt>
      <trkpt lat="44.46637" lon="1.66531">
        <ele>261.62</ele>
        <time>2020-10-24T10:26:55Z</time>
      </trkpt>
      <trkpt lat="44.46639" lon="1.66553">
        <ele>261.62</ele>
        <time>2020-10-24T10:27:10Z</time>
      </trkpt>
      <trkpt lat="44.46638" lon="1.66557">
        <ele>261.62</ele>
        <time>2020-10-24T10:27:13Z</time>
      </trkpt>
      <trkpt lat="44.46637" lon="1.66564">
        <ele>260.65</ele>
        <time>2020-10-24T10:27:20Z</time>
      </trkpt>
      <trkpt lat="44.46625" lon="1.66575">
        <ele>251</ele>
      </trkpt>
      <trkpt lat="44.4663" lon="1.66585">
        <ele>231.7</ele>
      </trkpt>
      <trkpt lat="44.4661" lon="1.66588">
        <ele>235</ele>
      </trkpt>
      <trkpt lat="44.46622" lon="1.66594">
        <ele>231.5</ele>
      </trkpt>
      <trkpt lat="44.46639" lon="1.66583">
        <ele>262.1</ele>
        <time>2020-10-24T10:29:49Z</time>
      </trkpt>
      <trkpt lat="44.46637" lon="1.6659">
        <ele>261.62</ele>
        <time>2020-10-24T10:30:07Z</time>
      </trkpt>
      <trkpt lat="44.46638" lon="1.66594">
        <ele>262.1</ele>
        <time>2020-10-24T10:30:31Z</time>
      </trkpt>
      <trkpt lat="44.46637" lon="1.66594">
        <ele>261.62</ele>
        <time>2020-10-24T10:31:01Z</time>
      </trkpt>
      <trkpt lat="44.46637" lon="1.66593">
        <ele>261.62</ele>
        <time>2020-10-24T10:31:28Z</time>
      </trkpt>
      <trkpt lat="44.46639" lon="1.66589">
        <ele>261.62</ele>
        <time>2020-10-24T10:31:37Z</time>
      </trkpt>
      <trkpt lat="44.46639" lon="1.66582">
        <ele>262.1</ele>
        <time>2020-10-24T10:31:43Z</time>
      </trkpt>
      <trkpt lat="44.46629" lon="1.66566">
        <ele>264.02</ele>
        <time>2020-10-24T10:31:59Z</time>
      </trkpt>
      <trkpt lat="44.46614" lon="1.66542">
        <ele>263.54</ele>
        <time>2020-10-24T10:32:19Z</time>
      </trkpt>
      <trkpt lat="44.46607" lon="1.66552">
        <ele>264.5</ele>
        <time>2020-10-24T10:32:33Z</time>
      </trkpt>
      <trkpt lat="44.46603" lon="1.66555">
        <ele>264.98</ele>
        <time>2020-10-24T10:32:47Z</time>
      </trkpt>
      <trkpt lat="44.46597" lon="1.66559">
        <ele>264.98</ele>
        <time>2020-10-24T10:33:03Z</time>
      </trkpt>
      <trkpt lat="44.46596" lon="1.66559">
        <ele>264.98</ele>
        <time>2020-10-24T10:33:05Z</time>
      </trkpt>
      <trkpt lat="44.46585" lon="1.66564">
        <ele>264.98</ele>
        <time>2020-10-24T10:33:18Z</time>
      </trkpt>
      <trkpt lat="44.46584" lon="1.66566">
        <ele>264.98</ele>
        <time>2020-10-24T10:33:46Z</time>
      </trkpt>
      <trkpt lat="44.46582" lon="1.66568">
        <ele>264.98</ele>
        <time>2020-10-24T10:34:11Z</time>
      </trkpt>
      <trkpt lat="44.46577" lon="1.66565">
        <ele>265.46</ele>
        <time>2020-10-24T10:34:21Z</time>
      </trkpt>
      <trkpt lat="44.46567" lon="1.66574">
        <ele>264.98</ele>
        <time>2020-10-24T10:34:32Z</time>
      </trkpt>
      <trkpt lat="44.46543" lon="1.66584">
        <ele>265.46</ele>
        <time>2020-10-24T10:34:53Z</time>
      </trkpt>
      <trkpt lat="44.46522" lon="1.66594">
        <ele>264.98</ele>
        <time>2020-10-24T10:35:09Z</time>
      </trkpt>
      <trkpt lat="44.46507" lon="1.66601">
        <ele>265.46</ele>
        <time>2020-10-24T10:35:21Z</time>
      </trkpt>
      <trkpt lat="44.46504" lon="1.66608">
        <ele>266.42</ele>
        <time>2020-10-24T10:35:27Z</time>
      </trkpt>
      <trkpt lat="44.46499" lon="1.66625">
        <ele>265.46</ele>
        <time>2020-10-24T10:35:40Z</time>
      </trkpt>
      <trkpt lat="44.46494" lon="1.66651">
        <ele>265.46</ele>
        <time>2020-10-24T10:35:55Z</time>
      </trkpt>
      <trkpt lat="44.46494" lon="1.66662">
        <ele>264.02</ele>
        <time>2020-10-24T10:36:01Z</time>
      </trkpt>
      <trkpt lat="44.46489" lon="1.66687">
        <ele>262.58</ele>
        <time>2020-10-24T10:36:14Z</time>
      </trkpt>
      <trkpt lat="44.46478" lon="1.6671">
        <ele>259.69</ele>
        <time>2020-10-24T10:36:27Z</time>
      </trkpt>
      <trkpt lat="44.46465" lon="1.66732">
        <ele>258.73</ele>
        <time>2020-10-24T10:36:43Z</time>
      </trkpt>
      <trkpt lat="44.46466" lon="1.66746">
        <ele>257.77</ele>
        <time>2020-10-24T10:36:56Z</time>
      </trkpt>
      <trkpt lat="44.46465" lon="1.6675">
        <ele>256.81</ele>
        <time>2020-10-24T10:37:11Z</time>
      </trkpt>
      <trkpt lat="44.46466" lon="1.66748">
        <ele>256.81</ele>
        <time>2020-10-24T10:37:41Z</time>
      </trkpt>
      <trkpt lat="44.46464" lon="1.6674">
        <ele>258.25</ele>
        <time>2020-10-24T10:38:00Z</time>
      </trkpt>
      <trkpt lat="44.46457" lon="1.66737">
        <ele>259.21</ele>
        <time>2020-10-24T10:38:09Z</time>
      </trkpt>
      <trkpt lat="44.46443" lon="1.66733">
        <ele>259.69</ele>
        <time>2020-10-24T10:38:22Z</time>
      </trkpt>
      <trkpt lat="44.46428" lon="1.66732">
        <ele>258.73</ele>
        <time>2020-10-24T10:38:37Z</time>
      </trkpt>
      <trkpt lat="44.46409" lon="1.66734">
        <ele>255.85</ele>
        <time>2020-10-24T10:38:55Z</time>
      </trkpt>
      <trkpt lat="44.46401" lon="1.66741">
        <ele>252.96</ele>
        <time>2020-10-24T10:39:08Z</time>
      </trkpt>
      <trkpt lat="44.46392" lon="1.66748">
        <ele>251.52</ele>
        <time>2020-10-24T10:39:19Z</time>
      </trkpt>
      <trkpt lat="44.46376" lon="1.66768">
        <ele>248.64</ele>
        <time>2020-10-24T10:39:37Z</time>
      </trkpt>
      <trkpt lat="44.46375" lon="1.66781">
        <ele>246.72</ele>
        <time>2020-10-24T10:39:52Z</time>
      </trkpt>
      <trkpt lat="44.4639" lon="1.66777">
        <ele>244.79</ele>
        <time>2020-10-24T10:40:09Z</time>
      </trkpt>
      <trkpt lat="44.46399" lon="1.66764">
        <ele>244.79</ele>
        <time>2020-10-24T10:40:32Z</time>
      </trkpt>
      <trkpt lat="44.46407" lon="1.66762">
        <ele>243.35</ele>
        <time>2020-10-24T10:40:49Z</time>
      </trkpt>
      <trkpt lat="44.4642" lon="1.66766">
        <ele>241.43</ele>
        <time>2020-10-24T10:41:05Z</time>
      </trkpt>
      <trkpt lat="44.46425" lon="1.66766">
        <ele>240.47</ele>
        <time>2020-10-24T10:41:17Z</time>
      </trkpt>
      <trkpt lat="44.46425" lon="1.66773">
        <ele>239.99</ele>
        <time>2020-10-24T10:41:32Z</time>
      </trkpt>
      <trkpt lat="44.46413" lon="1.66779">
        <ele>239.51</ele>
        <time>2020-10-24T10:41:48Z</time>
      </trkpt>
      <trkpt lat="44.46419" lon="1.66774">
        <ele>239.99</ele>
        <time>2020-10-24T10:42:06Z</time>
      </trkpt>
      <trkpt lat="44.46416" lon="1.66775">
        <ele>239.51</ele>
        <time>2020-10-24T10:42:26Z</time>
      </trkpt>
      <trkpt lat="44.46415" lon="1.6679">
        <ele>236.62</ele>
        <time>2020-10-24T10:42:42Z</time>
      </trkpt>
      <trkpt lat="44.46412" lon="1.66801">
        <ele>235.18</ele>
        <time>2020-10-24T10:43:01Z</time>
      </trkpt>
      <trkpt lat="44.46412" lon="1.66815">
        <ele>233.26</ele>
        <time>2020-10-24T10:43:24Z</time>
      </trkpt>
      <trkpt lat="44.46419" lon="1.66825">
        <ele>231.33</ele>
        <time>2020-10-24T10:43:43Z</time>
      </trkpt>
      <trkpt lat="44.46422" lon="1.66823">
        <ele>230.85</ele>
        <time>2020-10-24T10:44:02Z</time>
      </trkpt>
      <trkpt lat="44.46427" lon="1.6683">
        <ele>230.37</ele>
        <time>2020-10-24T10:44:20Z</time>
      </trkpt>
      <trkpt lat="44.46428" lon="1.6683">
        <ele>229.41</ele>
        <time>2020-10-24T10:44:42Z</time>
      </trkpt>
      <trkpt lat="44.46434" lon="1.66841">
        <ele>228.45</ele>
        <time>2020-10-24T10:45:05Z</time>
      </trkpt>
      <trkpt lat="44.46435" lon="1.66839">
        <ele>227.97</ele>
        <time>2020-10-24T10:45:26Z</time>
      </trkpt>
      <trkpt lat="44.46436" lon="1.66845">
        <ele>227.97</ele>
        <time>2020-10-24T10:45:48Z</time>
      </trkpt>
      <trkpt lat="44.4644" lon="1.66849">
        <ele>227.01</ele>
        <time>2020-10-24T10:46:07Z</time>
      </trkpt>
      <trkpt lat="44.46443" lon="1.66848">
        <ele>226.05</ele>
        <time>2020-10-24T10:46:31Z</time>
      </trkpt>
      <trkpt lat="44.46444" lon="1.66856">
        <ele>226.05</ele>
        <time>2020-10-24T10:46:55Z</time>
      </trkpt>
      <trkpt lat="44.46454" lon="1.66858">
        <ele>224.12</ele>
        <time>2020-10-24T10:47:12Z</time>
      </trkpt>
      <trkpt lat="44.46467" lon="1.66871">
        <ele>223.64</ele>
        <time>2020-10-24T10:47:29Z</time>
      </trkpt>
      <trkpt lat="44.46465" lon="1.66875">
        <ele>224.12</ele>
        <time>2020-10-24T10:47:44Z</time>
      </trkpt>
      <trkpt lat="44.46456" lon="1.66875">
        <ele>223.64</ele>
        <time>2020-10-24T10:48:06Z</time>
      </trkpt>
      <trkpt lat="44.46465" lon="1.66865">
        <ele>224.12</ele>
        <time>2020-10-24T10:48:22Z</time>
      </trkpt>
      <trkpt lat="44.46475" lon="1.66856">
        <ele>224.12</ele>
        <time>2020-10-24T10:48:37Z</time>
      </trkpt>
      <trkpt lat="44.46472" lon="1.66866">
        <ele>224.12</ele>
        <time>2020-10-24T10:48:51Z</time>
      </trkpt>
      <trkpt lat="44.4647" lon="1.66861">
        <ele>224.12</ele>
        <time>2020-10-24T10:49:07Z</time>
      </trkpt>
      <trkpt lat="44.46472" lon="1.66845">
        <ele>224.61</ele>
        <time>2020-10-24T10:49:22Z</time>
      </trkpt>
      <trkpt lat="44.46469" lon="1.66838">
        <ele>224.61</ele>
        <time>2020-10-24T10:49:38Z</time>
      </trkpt>
      <trkpt lat="44.46464" lon="1.6684">
        <ele>224.61</ele>
        <time>2020-10-24T10:49:54Z</time>
      </trkpt>
      <trkpt lat="44.46461" lon="1.66828">
        <ele>226.53</ele>
        <time>2020-10-24T10:50:10Z</time>
      </trkpt>
      <trkpt lat="44.46461" lon="1.66826">
        <ele>227.01</ele>
        <time>2020-10-24T10:50:28Z</time>
      </trkpt>
      <trkpt lat="44.46447" lon="1.66824">
        <ele>228.45</ele>
        <time>2020-10-24T10:50:45Z</time>
      </trkpt>
      <trkpt lat="44.46434" lon="1.66814">
        <ele>229.89</ele>
        <time>2020-10-24T10:51:04Z</time>
      </trkpt>
      <trkpt lat="44.46437" lon="1.66815">
        <ele>230.85</ele>
        <time>2020-10-24T10:51:18Z</time>
      </trkpt>
      <trkpt lat="44.46442" lon="1.6682">
        <ele>229.89</ele>
        <time>2020-10-24T10:51:31Z</time>
      </trkpt>
      <trkpt lat="44.46451" lon="1.66826">
        <ele>228.93</ele>
        <time>2020-10-24T10:51:49Z</time>
      </trkpt>
      <trkpt lat="44.46458" lon="1.66826">
        <ele>227.97</ele>
        <time>2020-10-24T10:52:06Z</time>
      </trkpt>
      <trkpt lat="44.46462" lon="1.6683">
        <ele>226.05</ele>
        <time>2020-10-24T10:52:26Z</time>
      </trkpt>
      <trkpt lat="44.46465" lon="1.66829">
        <ele>226.53</ele>
        <time>2020-10-24T10:52:41Z</time>
      </trkpt>
      <trkpt lat="44.46459" lon="1.66826">
        <ele>226.53</ele>
        <time>2020-10-24T10:52:59Z</time>
      </trkpt>
      <trkpt lat="44.46447" lon="1.66819">
        <ele>228.45</ele>
        <time>2020-10-24T10:53:16Z</time>
      </trkpt>
      <trkpt lat="44.46436" lon="1.66812">
        <ele>229.41</ele>
        <time>2020-10-24T10:53:32Z</time>
      </trkpt>
      <trkpt lat="44.46426" lon="1.66826">
        <ele>228.45</ele>
        <time>2020-10-24T10:53:48Z</time>
      </trkpt>
      <trkpt lat="44.46425" lon="1.66831">
        <ele>228.45</ele>
        <time>2020-10-24T10:54:11Z</time>
      </trkpt>
      <trkpt lat="44.46425" lon="1.6683">
        <ele>228.45</ele>
        <time>2020-10-24T10:54:31Z</time>
      </trkpt>
      <trkpt lat="44.46428" lon="1.66831">
        <ele>228.45</ele>
        <time>2020-10-24T10:54:51Z</time>
      </trkpt>
      <trkpt lat="44.46426" lon="1.66831">
        <ele>227.01</ele>
        <time>2020-10-24T10:55:09Z</time>
      </trkpt>
      <trkpt lat="44.46426" lon="1.66831">
        <ele>227.01</ele>
        <time>2020-10-24T10:55:10Z</time>
      </trkpt>
      <trkpt lat="44.46427" lon="1.66831">
        <ele>244.79</ele>
        <time>2020-10-24T12:29:47Z</time>
      </trkpt>
      <trkpt lat="44.46437" lon="1.66789">
        <ele>244.79</ele>
        <time>2020-10-24T12:29:48Z</time>
      </trkpt>
      <trkpt lat="44.46433" lon="1.66808">
        <ele>245.27</ele>
        <time>2020-10-24T12:30:20Z</time>
      </trkpt>
      <trkpt lat="44.46423" lon="1.66834">
        <ele>245.27</ele>
        <time>2020-10-24T12:30:58Z</time>
      </trkpt>
      <trkpt lat="44.46424" lon="1.66835">
        <ele>244.79</ele>
        <time>2020-10-24T12:31:31Z</time>
      </trkpt>
      <trkpt lat="44.46425" lon="1.66833">
        <ele>244.79</ele>
        <time>2020-10-24T12:32:03Z</time>
      </trkpt>
      <trkpt lat="44.46423" lon="1.66838">
        <ele>243.83</ele>
        <time>2020-10-24T12:32:43Z</time>
      </trkpt>
      <trkpt lat="44.46424" lon="1.66838">
        <ele>244.31</ele>
        <time>2020-10-24T12:33:16Z</time>
      </trkpt>
      <trkpt lat="44.46421" lon="1.66839">
        <ele>244.31</ele>
        <time>2020-10-24T12:33:52Z</time>
      </trkpt>
      <trkpt lat="44.46427" lon="1.66847">
        <ele>242.87</ele>
        <time>2020-10-24T12:34:20Z</time>
      </trkpt>
      <trkpt lat="44.46431" lon="1.66864">
        <ele>240.47</ele>
        <time>2020-10-24T12:34:34Z</time>
      </trkpt>
      <trkpt lat="44.46468" lon="1.66873">
        <ele>239.02</ele>
        <time>2020-10-24T12:34:56Z</time>
      </trkpt>
      <trkpt lat="44.46473" lon="1.66885">
        <ele>221</ele>
      </trkpt>
      <trkpt lat="44.46465" lon="1.66891">
        <ele>240.47</ele>
        <time>2020-10-24T12:35:10Z</time>
      </trkpt>
      <trkpt lat="44.46468" lon="1.66894">
        <ele>240.47</ele>
        <time>2020-10-24T12:35:26Z</time>
      </trkpt>
      <trkpt lat="44.46476" lon="1.66912">
        <ele>240.95</ele>
        <time>2020-10-24T12:35:41Z</time>
      </trkpt>
      <trkpt lat="44.4648" lon="1.66934">
        <ele>240.47</ele>
        <time>2020-10-24T12:36:00Z</time>
      </trkpt>
      <trkpt lat="44.46482" lon="1.66931">
        <ele>241.91</ele>
        <time>2020-10-24T12:36:12Z</time>
      </trkpt>
      <trkpt lat="44.46482" lon="1.66924">
        <ele>244.79</ele>
        <time>2020-10-24T12:36:26Z</time>
      </trkpt>
      <trkpt lat="44.46487" lon="1.66929">
        <ele>246.72</ele>
        <time>2020-10-24T12:36:41Z</time>
      </trkpt>
      <trkpt lat="44.46491" lon="1.66946">
        <ele>247.2</ele>
        <time>2020-10-24T12:36:55Z</time>
      </trkpt>
      <trkpt lat="44.46492" lon="1.66949">
        <ele>246.72</ele>
        <time>2020-10-24T12:37:15Z</time>
      </trkpt>
      <trkpt lat="44.46494" lon="1.66946">
        <ele>246.23</ele>
        <time>2020-10-24T12:37:30Z</time>
      </trkpt>
      <trkpt lat="44.46491" lon="1.66935">
        <ele>247.2</ele>
        <time>2020-10-24T12:37:50Z</time>
      </trkpt>
      <trkpt lat="44.46495" lon="1.66925">
        <ele>250.56</ele>
        <time>2020-10-24T12:38:01Z</time>
      </trkpt>
      <trkpt lat="44.46496" lon="1.66918">
        <ele>251.52</ele>
        <time>2020-10-24T12:38:17Z</time>
      </trkpt>
      <trkpt lat="44.46497" lon="1.66904">
        <ele>253.44</ele>
        <time>2020-10-24T12:38:35Z</time>
      </trkpt>
      <trkpt lat="44.46494" lon="1.66892">
        <ele>253.93</ele>
        <time>2020-10-24T12:38:51Z</time>
      </trkpt>
      <trkpt lat="44.46492" lon="1.66881">
        <ele>255.37</ele>
        <time>2020-10-24T12:39:10Z</time>
      </trkpt>
      <trkpt lat="44.46484" lon="1.66876">
        <ele>256.33</ele>
        <time>2020-10-24T12:39:35Z</time>
      </trkpt>
      <trkpt lat="44.46497" lon="1.66862">
        <ele>259.21</ele>
        <time>2020-10-24T12:39:50Z</time>
      </trkpt>
      <trkpt lat="44.46506" lon="1.66866">
        <ele>260.17</ele>
        <time>2020-10-24T12:40:11Z</time>
      </trkpt>
      <trkpt lat="44.46507" lon="1.6687">
        <ele>259.69</ele>
        <time>2020-10-24T12:40:35Z</time>
      </trkpt>
      <trkpt lat="44.4651" lon="1.66872">
        <ele>258.73</ele>
        <time>2020-10-24T12:41:06Z</time>
      </trkpt>
      <trkpt lat="44.46503" lon="1.66869">
        <ele>258.73</ele>
        <time>2020-10-24T12:41:46Z</time>
      </trkpt>
      <trkpt lat="44.46505" lon="1.66869">
        <ele>258.25</ele>
        <time>2020-10-24T12:42:24Z</time>
      </trkpt>
      <trkpt lat="44.46505" lon="1.6687">
        <ele>258.25</ele>
        <time>2020-10-24T12:42:50Z</time>
      </trkpt>
      <trkpt lat="44.46503" lon="1.66862">
        <ele>257.77</ele>
        <time>2020-10-24T12:43:13Z</time>
      </trkpt>
      <trkpt lat="44.46508" lon="1.66866">
        <ele>257.77</ele>
        <time>2020-10-24T12:43:42Z</time>
      </trkpt>
      <trkpt lat="44.46491" lon="1.66883">
        <ele>174.62</ele>
        <time>2020-10-24T12:49:23Z</time>
      </trkpt>
      <trkpt lat="44.46494" lon="1.66891">
        <ele>178.46</ele>
        <time>2020-10-24T12:49:30Z</time>
      </trkpt>
      <trkpt lat="44.46495" lon="1.66893">
        <ele>181.35</ele>
        <time>2020-10-24T12:49:32Z</time>
      </trkpt>
      <trkpt lat="44.46496" lon="1.66895">
        <ele>185.67</ele>
        <time>2020-10-24T12:49:34Z</time>
      </trkpt>
      <trkpt lat="44.46497" lon="1.66898">
        <ele>190.48</ele>
        <time>2020-10-24T12:49:37Z</time>
      </trkpt>
      <trkpt lat="44.46497" lon="1.669">
        <ele>190.48</ele>
        <time>2020-10-24T12:49:38Z</time>
      </trkpt>
      <trkpt lat="44.46497" lon="1.66901">
        <ele>193.84</ele>
        <time>2020-10-24T12:49:39Z</time>
      </trkpt>
      <trkpt lat="44.46496" lon="1.66905">
        <ele>197.21</ele>
        <time>2020-10-24T12:49:42Z</time>
      </trkpt>
      <trkpt lat="44.46495" lon="1.66908">
        <ele>200.57</ele>
        <time>2020-10-24T12:49:45Z</time>
      </trkpt>
      <trkpt lat="44.46496" lon="1.66915">
        <ele>204.9</ele>
        <time>2020-10-24T12:49:50Z</time>
      </trkpt>
      <trkpt lat="44.46496" lon="1.66918">
        <ele>208.26</ele>
        <time>2020-10-24T12:49:54Z</time>
      </trkpt>
      <trkpt lat="44.46496" lon="1.66922">
        <ele>210.19</ele>
        <time>2020-10-24T12:49:57Z</time>
      </trkpt>
      <trkpt lat="44.46495" lon="1.66925">
        <ele>211.63</ele>
        <time>2020-10-24T12:50:00Z</time>
      </trkpt>
      <trkpt lat="44.46493" lon="1.66933">
        <ele>214.99</ele>
        <time>2020-10-24T12:50:07Z</time>
      </trkpt>
      <trkpt lat="44.46491" lon="1.66934">
        <ele>216.43</ele>
        <time>2020-10-24T12:50:10Z</time>
      </trkpt>
      <trkpt lat="44.46486" lon="1.66932">
        <ele>216.91</ele>
        <time>2020-10-24T12:50:16Z</time>
      </trkpt>
      <trkpt lat="44.46482" lon="1.66928">
        <ele>219.32</ele>
        <time>2020-10-24T12:50:26Z</time>
      </trkpt>
      <trkpt lat="44.46481" lon="1.66931">
        <ele>219.32</ele>
        <time>2020-10-24T12:50:28Z</time>
      </trkpt>
      <trkpt lat="44.46477" lon="1.66931">
        <ele>220.28</ele>
        <time>2020-10-24T12:50:38Z</time>
      </trkpt>
      <trkpt lat="44.46473" lon="1.66918">
        <ele>243.83</ele>
        <time>2020-10-24T12:50:47Z</time>
      </trkpt>
      <trkpt lat="44.46473" lon="1.66917">
        <ele>243.83</ele>
        <time>2020-10-24T12:50:48Z</time>
      </trkpt>
      <trkpt lat="44.46472" lon="1.66916">
        <ele>221.24</ele>
        <time>2020-10-24T12:50:49Z</time>
      </trkpt>
      <trkpt lat="44.46472" lon="1.66915">
        <ele>221.24</ele>
        <time>2020-10-24T12:50:50Z</time>
      </trkpt>
      <trkpt lat="44.46472" lon="1.66915">
        <ele>221.72</ele>
        <time>2020-10-24T12:50:51Z</time>
      </trkpt>
      <trkpt lat="44.46469" lon="1.66894">
        <ele>220.76</ele>
        <time>2020-10-24T12:51:07Z</time>
      </trkpt>
      <trkpt lat="44.46466" lon="1.66888">
        <ele>221.9</ele>
      </trkpt>
      <trkpt lat="44.46462" lon="1.66878">
        <ele>218.36</ele>
        <time>2020-10-24T12:51:20Z</time>
      </trkpt>
      <trkpt lat="44.4646" lon="1.66888">
        <ele>217.88</ele>
        <time>2020-10-24T12:51:35Z</time>
      </trkpt>
      <trkpt lat="44.4646" lon="1.66894">
        <ele>216.91</ele>
        <time>2020-10-24T12:51:54Z</time>
      </trkpt>
      <trkpt lat="44.46461" lon="1.66902">
        <ele>216.43</ele>
        <time>2020-10-24T12:52:13Z</time>
      </trkpt>
      <trkpt lat="44.46462" lon="1.66916">
        <ele>214.99</ele>
        <time>2020-10-24T12:52:32Z</time>
      </trkpt>
      <trkpt lat="44.46462" lon="1.66925">
        <ele>213.55</ele>
        <time>2020-10-24T12:52:52Z</time>
      </trkpt>
      <trkpt lat="44.46458" lon="1.66932">
        <ele>213.07</ele>
        <time>2020-10-24T12:53:12Z</time>
      </trkpt>
      <trkpt lat="44.46459" lon="1.66937">
        <ele>213.07</ele>
        <time>2020-10-24T12:53:29Z</time>
      </trkpt>
      <trkpt lat="44.4646" lon="1.66948">
        <ele>211.15</ele>
        <time>2020-10-24T12:53:47Z</time>
      </trkpt>
      <trkpt lat="44.46461" lon="1.66945">
        <ele>211.63</ele>
        <time>2020-10-24T12:54:00Z</time>
      </trkpt>
      <trkpt lat="44.46462" lon="1.66956">
        <ele>210.19</ele>
        <time>2020-10-24T12:54:19Z</time>
      </trkpt>
      <trkpt lat="44.46474" lon="1.66963">
        <ele>209.22</ele>
        <time>2020-10-24T12:54:37Z</time>
      </trkpt>
      <trkpt lat="44.46467" lon="1.6698">
        <ele>207.78</ele>
        <time>2020-10-24T12:54:55Z</time>
      </trkpt>
      <trkpt lat="44.46468" lon="1.66994">
        <ele>205.38</ele>
        <time>2020-10-24T12:55:10Z</time>
      </trkpt>
      <trkpt lat="44.46474" lon="1.67004">
        <ele>203.94</ele>
        <time>2020-10-24T12:55:24Z</time>
      </trkpt>
      <trkpt lat="44.46475" lon="1.67003">
        <ele>202.98</ele>
        <time>2020-10-24T12:55:41Z</time>
      </trkpt>
      <trkpt lat="44.46473" lon="1.67001">
        <ele>202.98</ele>
        <time>2020-10-24T12:56:03Z</time>
      </trkpt>
      <trkpt lat="44.46465" lon="1.66991">
        <ele>204.9</ele>
        <time>2020-10-24T12:56:22Z</time>
      </trkpt>
      <trkpt lat="44.46454" lon="1.66993">
        <ele>202.49</ele>
        <time>2020-10-24T12:56:41Z</time>
      </trkpt>
      <trkpt lat="44.46448" lon="1.6699">
        <ele>201.53</ele>
        <time>2020-10-24T12:56:58Z</time>
      </trkpt>
      <trkpt lat="44.46449" lon="1.6699">
        <ele>201.05</ele>
        <time>2020-10-24T12:57:14Z</time>
      </trkpt>
      <trkpt lat="44.46447" lon="1.66987">
        <ele>201.05</ele>
        <time>2020-10-24T12:57:45Z</time>
      </trkpt>
      <trkpt lat="44.46448" lon="1.66991">
        <ele>201.53</ele>
        <time>2020-10-24T12:58:13Z</time>
      </trkpt>
      <trkpt lat="44.46451" lon="1.66996">
        <ele>200.57</ele>
        <time>2020-10-24T12:58:38Z</time>
      </trkpt>
      <trkpt lat="44.46448" lon="1.67001">
        <ele>200.09</ele>
        <time>2020-10-24T12:58:55Z</time>
      </trkpt>
      <trkpt lat="44.4645" lon="1.67001">
        <ele>199.61</ele>
        <time>2020-10-24T12:59:25Z</time>
      </trkpt>
      <trkpt lat="44.46446" lon="1.6701">
        <ele>198.65</ele>
        <time>2020-10-24T12:59:43Z</time>
      </trkpt>
      <trkpt lat="44.46449" lon="1.67015">
        <ele>197.21</ele>
        <time>2020-10-24T13:00:02Z</time>
      </trkpt>
      <trkpt lat="44.4645" lon="1.67018">
        <ele>196.73</ele>
        <time>2020-10-24T13:00:04Z</time>
      </trkpt>
      <trkpt lat="44.46449" lon="1.67021">
        <ele>196.25</ele>
        <time>2020-10-24T13:00:06Z</time>
      </trkpt>
      <trkpt lat="44.4645" lon="1.67041">
        <ele>194.32</ele>
        <time>2020-10-24T13:00:24Z</time>
      </trkpt>
      <trkpt lat="44.46467" lon="1.67034">
        <ele>193.84</ele>
        <time>2020-10-24T13:00:44Z</time>
      </trkpt>
      <trkpt lat="44.46469" lon="1.67031">
        <ele>194.32</ele>
        <time>2020-10-24T13:01:11Z</time>
      </trkpt>
      <trkpt lat="44.4646" lon="1.67037">
        <ele>194.32</ele>
        <time>2020-10-24T13:01:27Z</time>
      </trkpt>
      <trkpt lat="44.46455" lon="1.67049">
        <ele>193.36</ele>
        <time>2020-10-24T13:01:44Z</time>
      </trkpt>
      <trkpt lat="44.46447" lon="1.67046">
        <ele>191.92</ele>
        <time>2020-10-24T13:02:06Z</time>
      </trkpt>
      <trkpt lat="44.46447" lon="1.6706">
        <ele>190.48</ele>
        <time>2020-10-24T13:02:22Z</time>
      </trkpt>
      <trkpt lat="44.46453" lon="1.67065">
        <ele>190.48</ele>
        <time>2020-10-24T13:02:42Z</time>
      </trkpt>
      <trkpt lat="44.46453" lon="1.67062">
        <ele>190.48</ele>
        <time>2020-10-24T13:03:04Z</time>
      </trkpt>
      <trkpt lat="44.46445" lon="1.6706">
        <ele>190.48</ele>
        <time>2020-10-24T13:03:20Z</time>
      </trkpt>
      <trkpt lat="44.46449" lon="1.6707">
        <ele>190.96</ele>
        <time>2020-10-24T13:03:39Z</time>
      </trkpt>
      <trkpt lat="44.46445" lon="1.67068">
        <ele>190</ele>
        <time>2020-10-24T13:04:00Z</time>
      </trkpt>
      <trkpt lat="44.46446" lon="1.67064">
        <ele>190</ele>
        <time>2020-10-24T13:04:21Z</time>
      </trkpt>
      <trkpt lat="44.46446" lon="1.67063">
        <ele>190</ele>
        <time>2020-10-24T13:04:22Z</time>
      </trkpt>
      <trkpt lat="44.46448" lon="1.67052">
        <ele>192.4</ele>
        <time>2020-10-24T13:04:37Z</time>
      </trkpt>
      <trkpt lat="44.4645" lon="1.67038">
        <ele>194.8</ele>
        <time>2020-10-24T13:04:48Z</time>
      </trkpt>
      <trkpt lat="44.46455" lon="1.67028">
        <ele>196.25</ele>
        <time>2020-10-24T13:05:09Z</time>
      </trkpt>
      <trkpt lat="44.46452" lon="1.67024">
        <ele>197.69</ele>
        <time>2020-10-24T13:05:32Z</time>
      </trkpt>
      <trkpt lat="44.46444" lon="1.67005">
        <ele>200.57</ele>
        <time>2020-10-24T13:05:48Z</time>
      </trkpt>
      <trkpt lat="44.46454" lon="1.66995">
        <ele>202.98</ele>
        <time>2020-10-24T13:06:07Z</time>
      </trkpt>
      <trkpt lat="44.4647" lon="1.66995">
        <ele>206.34</ele>
        <time>2020-10-24T13:06:20Z</time>
      </trkpt>
      <trkpt lat="44.46474" lon="1.67001">
        <ele>206.34</ele>
        <time>2020-10-24T13:06:26Z</time>
      </trkpt>
      <trkpt lat="44.46477" lon="1.67018">
        <ele>202.49</ele>
        <time>2020-10-24T13:06:40Z</time>
      </trkpt>
      <trkpt lat="44.46477" lon="1.67028">
        <ele>201.05</ele>
        <time>2020-10-24T13:06:55Z</time>
      </trkpt>
      <trkpt lat="44.4647" lon="1.6704">
        <ele>198.17</ele>
        <time>2020-10-24T13:07:12Z</time>
      </trkpt>
      <trkpt lat="44.4646" lon="1.67033">
        <ele>196.25</ele>
        <time>2020-10-24T13:07:29Z</time>
      </trkpt>
      <trkpt lat="44.46452" lon="1.67032">
        <ele>194.32</ele>
        <time>2020-10-24T13:07:47Z</time>
      </trkpt>
      <trkpt lat="44.46448" lon="1.67049">
        <ele>190.96</ele>
        <time>2020-10-24T13:08:02Z</time>
      </trkpt>
      <trkpt lat="44.46445" lon="1.67078">
        <ele>188.56</ele>
        <time>2020-10-24T13:08:20Z</time>
      </trkpt>
      <trkpt lat="44.46446" lon="1.67095">
        <ele>186.15</ele>
        <time>2020-10-24T13:08:37Z</time>
      </trkpt>
      <trkpt lat="44.46457" lon="1.67106">
        <ele>185.19</ele>
        <time>2020-10-24T13:08:56Z</time>
      </trkpt>
      <trkpt lat="44.46451" lon="1.67094">
        <ele>185.67</ele>
        <time>2020-10-24T13:09:14Z</time>
      </trkpt>
      <trkpt lat="44.46436" lon="1.671">
        <ele>186.63</ele>
        <time>2020-10-24T13:09:30Z</time>
      </trkpt>
      <trkpt lat="44.46435" lon="1.67113">
        <ele>184.71</ele>
        <time>2020-10-24T13:09:46Z</time>
      </trkpt>
      <trkpt lat="44.46434" lon="1.67119">
        <ele>184.23</ele>
        <time>2020-10-24T13:09:56Z</time>
      </trkpt>
      <trkpt lat="44.46454" lon="1.67108">
        <ele>182.79</ele>
        <time>2020-10-24T13:10:15Z</time>
      </trkpt>
      <trkpt lat="44.46461" lon="1.67116">
        <ele>179.9</ele>
        <time>2020-10-24T13:10:30Z</time>
      </trkpt>
      <trkpt lat="44.46454" lon="1.67129">
        <ele>177.98</ele>
        <time>2020-10-24T13:10:43Z</time>
      </trkpt>
      <trkpt lat="44.46455" lon="1.67134">
        <ele>177.98</ele>
        <time>2020-10-24T13:10:59Z</time>
      </trkpt>
      <trkpt lat="44.46454" lon="1.67136">
        <ele>177.98</ele>
        <time>2020-10-24T13:11:15Z</time>
      </trkpt>
      <trkpt lat="44.46446" lon="1.67136">
        <ele>178.94</ele>
        <time>2020-10-24T13:11:29Z</time>
      </trkpt>
      <trkpt lat="44.46438" lon="1.6714">
        <ele>180.38</ele>
        <time>2020-10-24T13:11:37Z</time>
      </trkpt>
      <trkpt lat="44.46431" lon="1.67133">
        <ele>182.79</ele>
        <time>2020-10-24T13:11:53Z</time>
      </trkpt>
      <trkpt lat="44.46427" lon="1.67137">
        <ele>182.79</ele>
        <time>2020-10-24T13:12:17Z</time>
      </trkpt>
      <trkpt lat="44.46433" lon="1.67152">
        <ele>181.35</ele>
        <time>2020-10-24T13:12:32Z</time>
      </trkpt>
      <trkpt lat="44.46433" lon="1.67182">
        <ele>178.94</ele>
        <time>2020-10-24T13:12:49Z</time>
      </trkpt>
      <trkpt lat="44.46434" lon="1.67187">
        <ele>178.46</ele>
        <time>2020-10-24T13:12:52Z</time>
      </trkpt>
      <trkpt lat="44.46435" lon="1.67191">
        <ele>177.98</ele>
        <time>2020-10-24T13:12:55Z</time>
      </trkpt>
      <trkpt lat="44.46438" lon="1.67204">
        <ele>177.02</ele>
        <time>2020-10-24T13:13:04Z</time>
      </trkpt>
      <trkpt lat="44.46449" lon="1.6722">
        <ele>175.1</ele>
        <time>2020-10-24T13:13:23Z</time>
      </trkpt>
      <trkpt lat="44.46459" lon="1.67232">
        <ele>174.62</ele>
        <time>2020-10-24T13:13:37Z</time>
      </trkpt>
      <trkpt lat="44.46469" lon="1.67252">
        <ele>175.58</ele>
        <time>2020-10-24T13:13:55Z</time>
      </trkpt>
      <trkpt lat="44.46472" lon="1.67261">
        <ele>176.06</ele>
        <time>2020-10-24T13:14:12Z</time>
      </trkpt>
      <trkpt lat="44.46479" lon="1.67277">
        <ele>177.5</ele>
        <time>2020-10-24T13:14:29Z</time>
      </trkpt>
      <trkpt lat="44.46486" lon="1.67291">
        <ele>178.94</ele>
        <time>2020-10-24T13:14:47Z</time>
      </trkpt>
      <trkpt lat="44.46492" lon="1.67299">
        <ele>180.87</ele>
        <time>2020-10-24T13:15:03Z</time>
      </trkpt>
      <trkpt lat="44.46497" lon="1.67306">
        <ele>181.83</ele>
        <time>2020-10-24T13:15:18Z</time>
      </trkpt>
      <trkpt lat="44.46504" lon="1.67305">
        <ele>182.31</ele>
        <time>2020-10-24T13:15:33Z</time>
      </trkpt>
      <trkpt lat="44.46507" lon="1.6731">
        <ele>181.35</ele>
        <time>2020-10-24T13:16:07Z</time>
      </trkpt>
      <trkpt lat="44.46511" lon="1.67317">
        <ele>181.35</ele>
        <time>2020-10-24T13:16:16Z</time>
      </trkpt>
      <trkpt lat="44.46515" lon="1.67336">
        <ele>179.42</ele>
        <time>2020-10-24T13:16:31Z</time>
      </trkpt>
      <trkpt lat="44.4652" lon="1.67356">
        <ele>176.06</ele>
        <time>2020-10-24T13:16:46Z</time>
      </trkpt>
      <trkpt lat="44.46524" lon="1.67371">
        <ele>175.1</ele>
        <time>2020-10-24T13:17:05Z</time>
      </trkpt>
      <trkpt lat="44.46531" lon="1.67386">
        <ele>171.73</ele>
        <time>2020-10-24T13:17:18Z</time>
      </trkpt>
      <trkpt lat="44.46541" lon="1.67412">
        <ele>169.81</ele>
        <time>2020-10-24T13:17:38Z</time>
      </trkpt>
      <trkpt lat="44.46545" lon="1.67417">
        <ele>169.33</ele>
        <time>2020-10-24T13:17:54Z</time>
      </trkpt>
      <trkpt lat="44.46546" lon="1.67435">
        <ele>168.85</ele>
        <time>2020-10-24T13:18:04Z</time>
      </trkpt>
      <trkpt lat="44.46552" lon="1.67454">
        <ele>168.85</ele>
        <time>2020-10-24T13:18:16Z</time>
      </trkpt>
      <trkpt lat="44.46561" lon="1.67476">
        <ele>167.41</ele>
        <time>2020-10-24T13:18:31Z</time>
      </trkpt>
      <trkpt lat="44.46568" lon="1.6749">
        <ele>166.45</ele>
        <time>2020-10-24T13:18:46Z</time>
      </trkpt>
      <trkpt lat="44.46572" lon="1.67491">
        <ele>165.96</ele>
        <time>2020-10-24T13:19:11Z</time>
      </trkpt>
      <trkpt lat="44.46576" lon="1.6752">
        <ele>163.08</ele>
        <time>2020-10-24T13:19:29Z</time>
      </trkpt>
      <trkpt lat="44.46585" lon="1.67539">
        <ele>160.68</ele>
        <time>2020-10-24T13:19:44Z</time>
      </trkpt>
      <trkpt lat="44.46593" lon="1.67564">
        <ele>158.27</ele>
        <time>2020-10-24T13:20:01Z</time>
      </trkpt>
      <trkpt lat="44.46603" lon="1.67587">
        <ele>158.27</ele>
        <time>2020-10-24T13:20:16Z</time>
      </trkpt>
      <trkpt lat="44.46614" lon="1.67612">
        <ele>157.79</ele>
        <time>2020-10-24T13:20:32Z</time>
      </trkpt>
      <trkpt lat="44.46622" lon="1.67631">
        <ele>158.27</ele>
        <time>2020-10-24T13:20:45Z</time>
      </trkpt>
      <trkpt lat="44.46634" lon="1.6765">
        <ele>158.75</ele>
        <time>2020-10-24T13:20:58Z</time>
      </trkpt>
      <trkpt lat="44.46641" lon="1.67662">
        <ele>159.24</ele>
        <time>2020-10-24T13:21:08Z</time>
      </trkpt>
      <trkpt lat="44.46643" lon="1.67665">
        <ele>159.72</ele>
        <time>2020-10-24T13:21:11Z</time>
      </trkpt>
      <trkpt lat="44.46656" lon="1.67676">
        <ele>159.72</ele>
        <time>2020-10-24T13:21:22Z</time>
      </trkpt>
      <trkpt lat="44.4666" lon="1.67683">
        <ele>159.24</ele>
        <time>2020-10-24T13:21:26Z</time>
      </trkpt>
      <trkpt lat="44.46669" lon="1.67701">
        <ele>158.27</ele>
        <time>2020-10-24T13:21:41Z</time>
      </trkpt>
      <trkpt lat="44.46674" lon="1.67709">
        <ele>158.27</ele>
        <time>2020-10-24T13:21:47Z</time>
      </trkpt>
      <trkpt lat="44.46687" lon="1.67729">
        <ele>155.39</ele>
        <time>2020-10-24T13:22:03Z</time>
      </trkpt>
      <trkpt lat="44.46698" lon="1.67749">
        <ele>152.51</ele>
        <time>2020-10-24T13:22:17Z</time>
      </trkpt>
      <trkpt lat="44.46702" lon="1.67768">
        <ele>150.58</ele>
        <time>2020-10-24T13:22:30Z</time>
      </trkpt>
      <trkpt lat="44.46708" lon="1.67772">
        <ele>149.62</ele>
        <time>2020-10-24T13:22:43Z</time>
      </trkpt>
      <trkpt lat="44.46712" lon="1.67789">
        <ele>147.22</ele>
        <time>2020-10-24T13:22:56Z</time>
      </trkpt>
      <trkpt lat="44.46718" lon="1.67797">
        <ele>145.3</ele>
        <time>2020-10-24T13:23:03Z</time>
      </trkpt>
      <trkpt lat="44.46734" lon="1.67819">
        <ele>143.85</ele>
        <time>2020-10-24T13:23:20Z</time>
      </trkpt>
      <trkpt lat="44.46748" lon="1.67846">
        <ele>144.34</ele>
        <time>2020-10-24T13:23:38Z</time>
      </trkpt>
      <trkpt lat="44.46759" lon="1.67861">
        <ele>142.41</ele>
        <time>2020-10-24T13:23:52Z</time>
      </trkpt>
      <trkpt lat="44.46759" lon="1.67862">
        <ele>142.41</ele>
        <time>2020-10-24T13:23:55Z</time>
      </trkpt>
      <trkpt lat="44.46765" lon="1.6787">
        <ele>142.41</ele>
        <time>2020-10-24T13:24:02Z</time>
      </trkpt>
      <trkpt lat="44.46777" lon="1.67892">
        <ele>141.45</ele>
        <time>2020-10-24T13:24:20Z</time>
      </trkpt>
      <trkpt lat="44.46779" lon="1.67894">
        <ele>140.97</ele>
        <time>2020-10-24T13:24:23Z</time>
      </trkpt>
      <trkpt lat="44.46793" lon="1.67913">
        <ele>140.97</ele>
        <time>2020-10-24T13:24:41Z</time>
      </trkpt>
      <trkpt lat="44.46809" lon="1.67935">
        <ele>140.49</ele>
        <time>2020-10-24T13:24:58Z</time>
      </trkpt>
      <trkpt lat="44.46821" lon="1.67955">
        <ele>140.49</ele>
        <time>2020-10-24T13:25:14Z</time>
      </trkpt>
      <trkpt lat="44.46834" lon="1.67976">
        <ele>140.97</ele>
        <time>2020-10-24T13:25:32Z</time>
      </trkpt>
      <trkpt lat="44.46843" lon="1.67996">
        <ele>140.97</ele>
        <time>2020-10-24T13:25:45Z</time>
      </trkpt>
      <trkpt lat="44.46853" lon="1.68017">
        <ele>140.49</ele>
        <time>2020-10-24T13:26:00Z</time>
      </trkpt>
      <trkpt lat="44.46861" lon="1.68027">
        <ele>140.49</ele>
        <time>2020-10-24T13:26:07Z</time>
      </trkpt>
      <trkpt lat="44.46865" lon="1.68042">
        <ele>141.45</ele>
        <time>2020-10-24T13:26:20Z</time>
      </trkpt>
      <trkpt lat="44.46867" lon="1.68047">
        <ele>142.41</ele>
        <time>2020-10-24T13:26:25Z</time>
      </trkpt>
      <trkpt lat="44.46867" lon="1.68053">
        <ele>142.89</ele>
        <time>2020-10-24T13:26:29Z</time>
      </trkpt>
      <trkpt lat="44.46868" lon="1.68062">
        <ele>143.85</ele>
        <time>2020-10-24T13:26:35Z</time>
      </trkpt>
      <trkpt lat="44.4687" lon="1.68068">
        <ele>143.37</ele>
        <time>2020-10-24T13:26:39Z</time>
      </trkpt>
      <trkpt lat="44.46877" lon="1.6808">
        <ele>143.37</ele>
        <time>2020-10-24T13:26:48Z</time>
      </trkpt>
      <trkpt lat="44.46892" lon="1.681">
        <ele>142.41</ele>
        <time>2020-10-24T13:27:04Z</time>
      </trkpt>
      <trkpt lat="44.46903" lon="1.68123">
        <ele>141.93</ele>
        <time>2020-10-24T13:27:19Z</time>
      </trkpt>
      <trkpt lat="44.4691" lon="1.68146">
        <ele>141.93</ele>
        <time>2020-10-24T13:27:35Z</time>
      </trkpt>
      <trkpt lat="44.46917" lon="1.68171">
        <ele>141.93</ele>
        <time>2020-10-24T13:27:51Z</time>
      </trkpt>
      <trkpt lat="44.46922" lon="1.6819">
        <ele>141.93</ele>
        <time>2020-10-24T13:28:04Z</time>
      </trkpt>
      <trkpt lat="44.46927" lon="1.6821">
        <ele>142.41</ele>
        <time>2020-10-24T13:28:17Z</time>
      </trkpt>
      <trkpt lat="44.46932" lon="1.68235">
        <ele>142.41</ele>
        <time>2020-10-24T13:28:31Z</time>
      </trkpt>
      <trkpt lat="44.46936" lon="1.68251">
        <ele>142.89</ele>
        <time>2020-10-24T13:28:42Z</time>
      </trkpt>
      <trkpt lat="44.46943" lon="1.68267">
        <ele>143.37</ele>
        <time>2020-10-24T13:28:57Z</time>
      </trkpt>
      <trkpt lat="44.46948" lon="1.68283">
        <ele>142.89</ele>
        <time>2020-10-24T13:29:12Z</time>
      </trkpt>
      <trkpt lat="44.46949" lon="1.68284">
        <ele>143.37</ele>
        <time>2020-10-24T13:29:14Z</time>
      </trkpt>
      <trkpt lat="44.46951" lon="1.6829">
        <ele>143.37</ele>
        <time>2020-10-24T13:29:18Z</time>
      </trkpt>
      <trkpt lat="44.46955" lon="1.68302">
        <ele>143.37</ele>
        <time>2020-10-24T13:29:30Z</time>
      </trkpt>
      <trkpt lat="44.46954" lon="1.683">
        <ele>144.34</ele>
        <time>2020-10-24T13:29:56Z</time>
      </trkpt>
      <trkpt lat="44.46959" lon="1.68311">
        <ele>143.37</ele>
        <time>2020-10-24T13:30:24Z</time>
      </trkpt>
      <trkpt lat="44.46964" lon="1.68329">
        <ele>143.37</ele>
        <time>2020-10-24T13:30:36Z</time>
      </trkpt>
      <trkpt lat="44.4697" lon="1.68352">
        <ele>142.89</ele>
        <time>2020-10-24T13:30:51Z</time>
      </trkpt>
      <trkpt lat="44.46971" lon="1.68355">
        <ele>142.89</ele>
        <time>2020-10-24T13:31:14Z</time>
      </trkpt>
      <trkpt lat="44.46969" lon="1.68354">
        <ele>143.37</ele>
        <time>2020-10-24T13:31:36Z</time>
      </trkpt>
      <trkpt lat="44.4697" lon="1.68357">
        <ele>143.37</ele>
        <time>2020-10-24T13:31:38Z</time>
      </trkpt>
      <trkpt lat="44.46973" lon="1.68363">
        <ele>142.89</ele>
        <time>2020-10-24T13:31:42Z</time>
      </trkpt>
      <trkpt lat="44.46975" lon="1.6837">
        <ele>143.37</ele>
        <time>2020-10-24T13:31:46Z</time>
      </trkpt>
      <trkpt lat="44.4698" lon="1.68386">
        <ele>142.41</ele>
        <time>2020-10-24T13:31:57Z</time>
      </trkpt>
      <trkpt lat="44.46981" lon="1.68387">
        <ele>142.41</ele>
        <time>2020-10-24T13:32:01Z</time>
      </trkpt>
      <trkpt lat="44.46979" lon="1.68388">
        <ele>142.41</ele>
        <time>2020-10-24T13:32:03Z</time>
      </trkpt>
      <trkpt lat="44.46973" lon="1.68389">
        <ele>139.05</ele>
        <time>2020-10-24T13:32:12Z</time>
      </trkpt>
      <trkpt lat="44.46972" lon="1.68389">
        <ele>139.05</ele>
        <time>2020-10-24T13:32:13Z</time>
      </trkpt>
      <trkpt lat="44.46969" lon="1.68391">
        <ele>136.64</ele>
        <time>2020-10-24T13:32:18Z</time>
      </trkpt>
      <trkpt lat="44.46967" lon="1.68392">
        <ele>134.72</ele>
        <time>2020-10-24T13:32:21Z</time>
      </trkpt>
      <trkpt lat="44.46957" lon="1.68389">
        <ele>134.24</ele>
        <time>2020-10-24T13:32:33Z</time>
      </trkpt>
      <trkpt lat="44.46951" lon="1.68389">
        <ele>134.24</ele>
        <time>2020-10-24T13:32:37Z</time>
      </trkpt>
      <trkpt lat="44.46932" lon="1.684">
        <ele>135.68</ele>
        <time>2020-10-24T13:32:55Z</time>
      </trkpt>
      <trkpt lat="44.46914" lon="1.68407">
        <ele>135.68</ele>
        <time>2020-10-24T13:33:13Z</time>
      </trkpt>
      <trkpt lat="44.46893" lon="1.68413">
        <ele>135.68</ele>
        <time>2020-10-24T13:33:32Z</time>
      </trkpt>
      <trkpt lat="44.46873" lon="1.6842">
        <ele>135.68</ele>
        <time>2020-10-24T13:33:50Z</time>
      </trkpt>
      <trkpt lat="44.46866" lon="1.68423">
        <ele>135.2</ele>
        <time>2020-10-24T13:33:56Z</time>
      </trkpt>
      <trkpt lat="44.46847" lon="1.68427">
        <ele>135.2</ele>
        <time>2020-10-24T13:34:12Z</time>
      </trkpt>
      <trkpt lat="44.4683" lon="1.68436">
        <ele>136.16</ele>
        <time>2020-10-24T13:34:28Z</time>
      </trkpt>
      <trkpt lat="44.46815" lon="1.68441">
        <ele>135.68</ele>
        <time>2020-10-24T13:34:43Z</time>
      </trkpt>
      <trkpt lat="44.46807" lon="1.68443">
        <ele>135.68</ele>
        <time>2020-10-24T13:34:49Z</time>
      </trkpt>
      <trkpt lat="44.46796" lon="1.68444">
        <ele>135.2</ele>
        <time>2020-10-24T13:35:03Z</time>
      </trkpt>
      <trkpt lat="44.46784" lon="1.68451">
        <ele>135.68</ele>
        <time>2020-10-24T13:35:14Z</time>
      </trkpt>
      <trkpt lat="44.46771" lon="1.68454">
        <ele>135.68</ele>
        <time>2020-10-24T13:35:28Z</time>
      </trkpt>
      <trkpt lat="44.46749" lon="1.6846">
        <ele>135.2</ele>
        <time>2020-10-24T13:35:45Z</time>
      </trkpt>
      <trkpt lat="44.46734" lon="1.68466">
        <ele>136.16</ele>
        <time>2020-10-24T13:35:57Z</time>
      </trkpt>
      <trkpt lat="44.46717" lon="1.68471">
        <ele>136.16</ele>
        <time>2020-10-24T13:36:11Z</time>
      </trkpt>
      <trkpt lat="44.46704" lon="1.68478">
        <ele>136.16</ele>
        <time>2020-10-24T13:36:24Z</time>
      </trkpt>
      <trkpt lat="44.46687" lon="1.68483">
        <ele>135.68</ele>
        <time>2020-10-24T13:36:38Z</time>
      </trkpt>
      <trkpt lat="44.46672" lon="1.6849">
        <ele>136.16</ele>
        <time>2020-10-24T13:36:52Z</time>
      </trkpt>
      <trkpt lat="44.46653" lon="1.68498">
        <ele>135.68</ele>
        <time>2020-10-24T13:37:08Z</time>
      </trkpt>
      <trkpt lat="44.46634" lon="1.68507">
        <ele>135.2</ele>
        <time>2020-10-24T13:37:24Z</time>
      </trkpt>
      <trkpt lat="44.46618" lon="1.68514">
        <ele>135.68</ele>
        <time>2020-10-24T13:37:38Z</time>
      </trkpt>
      <trkpt lat="44.46599" lon="1.68523">
        <ele>135.68</ele>
        <time>2020-10-24T13:37:54Z</time>
      </trkpt>
      <trkpt lat="44.46597" lon="1.68524">
        <ele>135.2</ele>
        <time>2020-10-24T13:37:56Z</time>
      </trkpt>
      <trkpt lat="44.46592" lon="1.68526">
        <ele>135.68</ele>
        <time>2020-10-24T13:38:00Z</time>
      </trkpt>
      <trkpt lat="44.46574" lon="1.68532">
        <ele>135.68</ele>
        <time>2020-10-24T13:38:15Z</time>
      </trkpt>
      <trkpt lat="44.46556" lon="1.68539">
        <ele>135.68</ele>
        <time>2020-10-24T13:38:31Z</time>
      </trkpt>
      <trkpt lat="44.4654" lon="1.68544">
        <ele>135.68</ele>
        <time>2020-10-24T13:38:46Z</time>
      </trkpt>
      <trkpt lat="44.46521" lon="1.68553">
        <ele>135.68</ele>
        <time>2020-10-24T13:39:02Z</time>
      </trkpt>
      <trkpt lat="44.46507" lon="1.6856">
        <ele>135.68</ele>
        <time>2020-10-24T13:39:15Z</time>
      </trkpt>
      <trkpt lat="44.4649" lon="1.68569">
        <ele>135.68</ele>
        <time>2020-10-24T13:39:31Z</time>
      </trkpt>
      <trkpt lat="44.46476" lon="1.68578">
        <ele>136.16</ele>
        <time>2020-10-24T13:39:46Z</time>
      </trkpt>
      <trkpt lat="44.46457" lon="1.68588">
        <ele>136.16</ele>
        <time>2020-10-24T13:40:02Z</time>
      </trkpt>
      <trkpt lat="44.46441" lon="1.68597">
        <ele>135.68</ele>
        <time>2020-10-24T13:40:16Z</time>
      </trkpt>
      <trkpt lat="44.46428" lon="1.68602">
        <ele>136.16</ele>
        <time>2020-10-24T13:40:30Z</time>
      </trkpt>
      <trkpt lat="44.4642" lon="1.68607">
        <ele>136.16</ele>
        <time>2020-10-24T13:40:41Z</time>
      </trkpt>
      <trkpt lat="44.46416" lon="1.68615">
        <ele>136.16</ele>
        <time>2020-10-24T13:40:47Z</time>
      </trkpt>
      <trkpt lat="44.4642" lon="1.68636">
        <ele>136.16</ele>
        <time>2020-10-24T13:41:01Z</time>
      </trkpt>
      <trkpt lat="44.46427" lon="1.68655">
        <ele>137.13</ele>
        <time>2020-10-24T13:41:16Z</time>
      </trkpt>
      <trkpt lat="44.46434" lon="1.68672">
        <ele>137.13</ele>
        <time>2020-10-24T13:41:29Z</time>
      </trkpt>
      <trkpt lat="44.46437" lon="1.68684">
        <ele>137.61</ele>
        <time>2020-10-24T13:41:37Z</time>
      </trkpt>
      <trkpt lat="44.46444" lon="1.68704">
        <ele>138.09</ele>
        <time>2020-10-24T13:41:51Z</time>
      </trkpt>
      <trkpt lat="44.46452" lon="1.68725">
        <ele>138.57</ele>
        <time>2020-10-24T13:42:06Z</time>
      </trkpt>
      <trkpt lat="44.4646" lon="1.68747">
        <ele>138.09</ele>
        <time>2020-10-24T13:42:21Z</time>
      </trkpt>
      <trkpt lat="44.46468" lon="1.68768">
        <ele>139.05</ele>
        <time>2020-10-24T13:42:35Z</time>
      </trkpt>
      <trkpt lat="44.46478" lon="1.68794">
        <ele>138.09</ele>
        <time>2020-10-24T13:42:55Z</time>
      </trkpt>
      <trkpt lat="44.46485" lon="1.68816">
        <ele>138.57</ele>
        <time>2020-10-24T13:43:10Z</time>
      </trkpt>
      <trkpt lat="44.46493" lon="1.68837">
        <ele>138.09</ele>
        <time>2020-10-24T13:43:24Z</time>
      </trkpt>
      <trkpt lat="44.46503" lon="1.6886">
        <ele>138.09</ele>
        <time>2020-10-24T13:43:40Z</time>
      </trkpt>
      <trkpt lat="44.46511" lon="1.68882">
        <ele>137.61</ele>
        <time>2020-10-24T13:43:56Z</time>
      </trkpt>
      <trkpt lat="44.46518" lon="1.68899">
        <ele>137.61</ele>
        <time>2020-10-24T13:44:08Z</time>
      </trkpt>
      <trkpt lat="44.46519" lon="1.68903">
        <ele>137.61</ele>
        <time>2020-10-24T13:44:11Z</time>
      </trkpt>
      <trkpt lat="44.46528" lon="1.68925">
        <ele>137.13</ele>
        <time>2020-10-24T13:44:27Z</time>
      </trkpt>
      <trkpt lat="44.46535" lon="1.68945">
        <ele>138.57</ele>
        <time>2020-10-24T13:44:41Z</time>
      </trkpt>
      <trkpt lat="44.46542" lon="1.6896">
        <ele>138.09</ele>
        <time>2020-10-24T13:44:52Z</time>
      </trkpt>
      <trkpt lat="44.4655" lon="1.68981">
        <ele>137.61</ele>
        <time>2020-10-24T13:45:06Z</time>
      </trkpt>
      <trkpt lat="44.46558" lon="1.69005">
        <ele>137.61</ele>
        <time>2020-10-24T13:45:22Z</time>
      </trkpt>
      <trkpt lat="44.46569" lon="1.69033">
        <ele>138.57</ele>
        <time>2020-10-24T13:45:40Z</time>
      </trkpt>
      <trkpt lat="44.46578" lon="1.69058">
        <ele>137.61</ele>
        <time>2020-10-24T13:45:57Z</time>
      </trkpt>
      <trkpt lat="44.46582" lon="1.69069">
        <ele>138.09</ele>
        <time>2020-10-24T13:46:05Z</time>
      </trkpt>
      <trkpt lat="44.4659" lon="1.69083">
        <ele>139.05</ele>
        <time>2020-10-24T13:46:17Z</time>
      </trkpt>
      <trkpt lat="44.46598" lon="1.69082">
        <ele>139.53</ele>
        <time>2020-10-24T13:46:25Z</time>
      </trkpt>
      <trkpt lat="44.46604" lon="1.6908">
        <ele>140.01</ele>
        <time>2020-10-24T13:46:30Z</time>
      </trkpt>
      <trkpt lat="44.46616" lon="1.69076">
        <ele>140.01</ele>
        <time>2020-10-24T13:46:42Z</time>
      </trkpt>
      <trkpt lat="44.46621" lon="1.69074">
        <ele>140.49</ele>
        <time>2020-10-24T13:46:46Z</time>
      </trkpt>
      <trkpt lat="44.46624" lon="1.69076">
        <ele>140.49</ele>
        <time>2020-10-24T13:46:49Z</time>
      </trkpt>
      <trkpt lat="44.46624" lon="1.69077">
        <ele>140.97</ele>
        <time>2020-10-24T13:46:50Z</time>
      </trkpt>
      <trkpt lat="44.46624" lon="1.69079">
        <ele>141.45</ele>
        <time>2020-10-24T13:46:51Z</time>
      </trkpt>
      <trkpt lat="44.46632" lon="1.69103">
        <ele>141.93</ele>
        <time>2020-10-24T13:47:07Z</time>
      </trkpt>
      <trkpt lat="44.46637" lon="1.69114">
        <ele>142.41</ele>
        <time>2020-10-24T13:47:16Z</time>
      </trkpt>
      <trkpt lat="44.46639" lon="1.69117">
        <ele>142.41</ele>
        <time>2020-10-24T13:47:19Z</time>
      </trkpt>
      <trkpt lat="44.46655" lon="1.69109">
        <ele>141.93</ele>
        <time>2020-10-24T13:47:34Z</time>
      </trkpt>
      <trkpt lat="44.46661" lon="1.6911">
        <ele>141.93</ele>
        <time>2020-10-24T13:47:40Z</time>
      </trkpt>
      <trkpt lat="44.46669" lon="1.69117">
        <ele>141.93</ele>
        <time>2020-10-24T13:47:55Z</time>
      </trkpt>
      <trkpt lat="44.46671" lon="1.69122">
        <ele>141.93</ele>
        <time>2020-10-24T13:48:00Z</time>
      </trkpt>
      <trkpt lat="44.46667" lon="1.69125">
        <ele>142.41</ele>
        <time>2020-10-24T13:48:04Z</time>
      </trkpt>
      <trkpt lat="44.46658" lon="1.69131">
        <ele>142.89</ele>
        <time>2020-10-24T13:48:13Z</time>
      </trkpt>
      <trkpt lat="44.46647" lon="1.69146">
        <ele>143.37</ele>
        <time>2020-10-24T13:48:26Z</time>
      </trkpt>
      <trkpt lat="44.4663" lon="1.69158">
        <ele>143.85</ele>
        <time>2020-10-24T13:48:42Z</time>
      </trkpt>
      <trkpt lat="44.4662" lon="1.69166">
        <ele>143.85</ele>
        <time>2020-10-24T13:48:54Z</time>
      </trkpt>
      <trkpt lat="44.46605" lon="1.69183">
        <ele>144.82</ele>
        <time>2020-10-24T13:49:10Z</time>
      </trkpt>
      <trkpt lat="44.46596" lon="1.69204">
        <ele>144.82</ele>
        <time>2020-10-24T13:49:22Z</time>
      </trkpt>
      <trkpt lat="44.46582" lon="1.69219">
        <ele>145.3</ele>
        <time>2020-10-24T13:49:38Z</time>
      </trkpt>
      <trkpt lat="44.46568" lon="1.69234">
        <ele>145.78</ele>
        <time>2020-10-24T13:49:54Z</time>
      </trkpt>
      <trkpt lat="44.46558" lon="1.69247">
        <ele>145.3</ele>
        <time>2020-10-24T13:50:06Z</time>
      </trkpt>
      <trkpt lat="44.46558" lon="1.69247">
        <ele>145.3</ele>
        <time>2020-10-24T13:50:07Z</time>
      </trkpt>
      <trkpt lat="44.46547" lon="1.69262">
        <ele>145.78</ele>
        <time>2020-10-24T13:50:20Z</time>
      </trkpt>
      <trkpt lat="44.46547" lon="1.69263">
        <ele>145.78</ele>
        <time>2020-10-24T13:50:21Z</time>
      </trkpt>
      <trkpt lat="44.46542" lon="1.69272">
        <ele>146.74</ele>
        <time>2020-10-24T13:50:35Z</time>
      </trkpt>
      <trkpt lat="44.46543" lon="1.69269">
        <ele>146.26</ele>
        <time>2020-10-24T13:50:49Z</time>
      </trkpt>
      <trkpt lat="44.46543" lon="1.69269">
        <ele>146.26</ele>
        <time>2020-10-24T13:51:05Z</time>
      </trkpt>
      <trkpt lat="44.46544" lon="1.69269">
        <ele>146.74</ele>
        <time>2020-10-24T13:51:17Z</time>
      </trkpt>
      <trkpt lat="44.46548" lon="1.69272">
        <ele>147.22</ele>
        <time>2020-10-24T13:51:29Z</time>
      </trkpt>
      <trkpt lat="44.46547" lon="1.69271">
        <ele>146.74</ele>
        <time>2020-10-24T13:51:37Z</time>
      </trkpt>
      <trkpt lat="44.46545" lon="1.69277">
        <ele>146.26</ele>
        <time>2020-10-24T13:51:42Z</time>
      </trkpt>
      <trkpt lat="44.46551" lon="1.69292">
        <ele>147.22</ele>
        <time>2020-10-24T13:51:53Z</time>
      </trkpt>
      <trkpt lat="44.46567" lon="1.69311">
        <ele>147.7</ele>
        <time>2020-10-24T13:52:09Z</time>
      </trkpt>
      <trkpt lat="44.46576" lon="1.6933">
        <ele>149.62</ele>
        <time>2020-10-24T13:52:25Z</time>
      </trkpt>
      <trkpt lat="44.46579" lon="1.6934">
        <ele>149.14</ele>
        <time>2020-10-24T13:52:35Z</time>
      </trkpt>
      <trkpt lat="44.46581" lon="1.69347">
        <ele>149.14</ele>
        <time>2020-10-24T13:52:40Z</time>
      </trkpt>
      <trkpt lat="44.46593" lon="1.69365">
        <ele>149.62</ele>
        <time>2020-10-24T13:52:57Z</time>
      </trkpt>
      <trkpt lat="44.46599" lon="1.69365">
        <ele>150.1</ele>
        <time>2020-10-24T13:53:00Z</time>
      </trkpt>
      <trkpt lat="44.46603" lon="1.6937">
        <ele>150.58</ele>
        <time>2020-10-24T13:53:03Z</time>
      </trkpt>
      <trkpt lat="44.46602" lon="1.69377">
        <ele>150.1</ele>
        <time>2020-10-24T13:53:09Z</time>
      </trkpt>
      <trkpt lat="44.46597" lon="1.69386">
        <ele>150.58</ele>
        <time>2020-10-24T13:53:15Z</time>
      </trkpt>
      <trkpt lat="44.46594" lon="1.69395">
        <ele>150.58</ele>
        <time>2020-10-24T13:53:21Z</time>
      </trkpt>
      <trkpt lat="44.46596" lon="1.69401">
        <ele>151.06</ele>
        <time>2020-10-24T13:53:25Z</time>
      </trkpt>
      <trkpt lat="44.46599" lon="1.69404">
        <ele>151.06</ele>
        <time>2020-10-24T13:53:28Z</time>
      </trkpt>
      <trkpt lat="44.46607" lon="1.69411">
        <ele>151.06</ele>
        <time>2020-10-24T13:53:35Z</time>
      </trkpt>
      <trkpt lat="44.46615" lon="1.69423">
        <ele>152.99</ele>
        <time>2020-10-24T13:53:45Z</time>
      </trkpt>
      <trkpt lat="44.46627" lon="1.69435">
        <ele>152.03</ele>
        <time>2020-10-24T13:54:01Z</time>
      </trkpt>
      <trkpt lat="44.46637" lon="1.69443">
        <ele>152.51</ele>
        <time>2020-10-24T13:54:12Z</time>
      </trkpt>
      <trkpt lat="44.46654" lon="1.69456">
        <ele>152.51</ele>
        <time>2020-10-24T13:54:28Z</time>
      </trkpt>
      <trkpt lat="44.46664" lon="1.69473">
        <ele>153.47</ele>
        <time>2020-10-24T13:54:43Z</time>
      </trkpt>
      <trkpt lat="44.46673" lon="1.69483">
        <ele>154.43</ele>
        <time>2020-10-24T13:54:56Z</time>
      </trkpt>
      <trkpt lat="44.46688" lon="1.69503">
        <ele>155.87</ele>
        <time>2020-10-24T13:55:12Z</time>
      </trkpt>
      <trkpt lat="44.46698" lon="1.69517">
        <ele>157.31</ele>
        <time>2020-10-24T13:55:26Z</time>
      </trkpt>
      <trkpt lat="44.46698" lon="1.69519">
        <ele>157.31</ele>
        <time>2020-10-24T13:55:27Z</time>
      </trkpt>
      <trkpt lat="44.46703" lon="1.69529">
        <ele>159.24</ele>
        <time>2020-10-24T13:55:40Z</time>
      </trkpt>
      <trkpt lat="44.4671" lon="1.69541">
        <ele>160.68</ele>
        <time>2020-10-24T13:55:51Z</time>
      </trkpt>
      <trkpt lat="44.46719" lon="1.6955">
        <ele>162.6</ele>
        <time>2020-10-24T13:56:07Z</time>
      </trkpt>
      <trkpt lat="44.46728" lon="1.69555">
        <ele>164.04</ele>
        <time>2020-10-24T13:56:21Z</time>
      </trkpt>
      <trkpt lat="44.4673" lon="1.69559">
        <ele>165</ele>
        <time>2020-10-24T13:56:32Z</time>
      </trkpt>
      <trkpt lat="44.46732" lon="1.69555">
        <ele>165</ele>
        <time>2020-10-24T13:56:43Z</time>
      </trkpt>
      <trkpt lat="44.46732" lon="1.69553">
        <ele>165</ele>
        <time>2020-10-24T13:56:53Z</time>
      </trkpt>
      <trkpt lat="44.46729" lon="1.69553">
        <ele>165</ele>
        <time>2020-10-24T13:57:10Z</time>
      </trkpt>
      <trkpt lat="44.46729" lon="1.69553">
        <ele>165</ele>
        <time>2020-10-24T13:57:37Z</time>
      </trkpt>
      <trkpt lat="44.4673" lon="1.69554">
        <ele>165</ele>
        <time>2020-10-24T13:57:59Z</time>
      </trkpt>
      <trkpt lat="44.46731" lon="1.69557">
        <ele>164.52</ele>
        <time>2020-10-24T13:58:25Z</time>
      </trkpt>
      <trkpt lat="44.46729" lon="1.69548">
        <ele>164.52</ele>
        <time>2020-10-24T13:58:59Z</time>
      </trkpt>
      <trkpt lat="44.46729" lon="1.69548">
        <ele>164.52</ele>
        <time>2020-10-24T13:59:37Z</time>
      </trkpt>
      <trkpt lat="44.46728" lon="1.69546">
        <ele>164.52</ele>
        <time>2020-10-24T13:59:59Z</time>
      </trkpt>
      <trkpt lat="44.46729" lon="1.69549">
        <ele>164.52</ele>
        <time>2020-10-24T14:00:24Z</time>
      </trkpt>
      <trkpt lat="44.46731" lon="1.69553">
        <ele>165</ele>
        <time>2020-10-24T14:00:41Z</time>
      </trkpt>
      <trkpt lat="44.46731" lon="1.69558">
        <ele>164.04</ele>
        <time>2020-10-24T14:00:57Z</time>
      </trkpt>
      <trkpt lat="44.46733" lon="1.69556">
        <ele>164.52</ele>
        <time>2020-10-24T14:01:12Z</time>
      </trkpt>
      <trkpt lat="44.46734" lon="1.69556">
        <ele>164.52</ele>
        <time>2020-10-24T14:01:29Z</time>
      </trkpt>
      <trkpt lat="44.46736" lon="1.69563">
        <ele>166.45</ele>
        <time>2020-10-24T14:01:38Z</time>
      </trkpt>
      <trkpt lat="44.46737" lon="1.69563">
        <ele>166.45</ele>
        <time>2020-10-24T14:01:39Z</time>
      </trkpt>
      <trkpt lat="44.46744" lon="1.69572">
        <ele>168.37</ele>
        <time>2020-10-24T14:01:49Z</time>
      </trkpt>
      <trkpt lat="44.46748" lon="1.69578">
        <ele>170.29</ele>
        <time>2020-10-24T14:02:01Z</time>
      </trkpt>
      <trkpt lat="44.46757" lon="1.69582">
        <ele>173.17</ele>
        <time>2020-10-24T14:02:15Z</time>
      </trkpt>
      <trkpt lat="44.46759" lon="1.69582">
        <ele>173.66</ele>
        <time>2020-10-24T14:02:17Z</time>
      </trkpt>
      <trkpt lat="44.46768" lon="1.69583">
        <ele>175.58</ele>
        <time>2020-10-24T14:02:31Z</time>
      </trkpt>
      <trkpt lat="44.46773" lon="1.69587">
        <ele>177.02</ele>
        <time>2020-10-24T14:02:44Z</time>
      </trkpt>
      <trkpt lat="44.46773" lon="1.69588">
        <ele>177.98</ele>
        <time>2020-10-24T14:02:54Z</time>
      </trkpt>
      <trkpt lat="44.46772" lon="1.69598">
        <ele>179.9</ele>
        <time>2020-10-24T14:03:06Z</time>
      </trkpt>
      <trkpt lat="44.46773" lon="1.69614">
        <ele>182.31</ele>
        <time>2020-10-24T14:03:20Z</time>
      </trkpt>
      <trkpt lat="44.46775" lon="1.69622">
        <ele>183.27</ele>
        <time>2020-10-24T14:03:29Z</time>
      </trkpt>
      <trkpt lat="44.46778" lon="1.69633">
        <ele>185.19</ele>
        <time>2020-10-24T14:03:41Z</time>
      </trkpt>
      <trkpt lat="44.46782" lon="1.69645">
        <ele>188.08</ele>
        <time>2020-10-24T14:03:54Z</time>
      </trkpt>
      <trkpt lat="44.46785" lon="1.69656">
        <ele>190.48</ele>
        <time>2020-10-24T14:04:06Z</time>
      </trkpt>
      <trkpt lat="44.46786" lon="1.6966">
        <ele>191.92</ele>
        <time>2020-10-24T14:04:11Z</time>
      </trkpt>
      <trkpt lat="44.4679" lon="1.69672">
        <ele>193.84</ele>
        <time>2020-10-24T14:04:23Z</time>
      </trkpt>
      <trkpt lat="44.46793" lon="1.69684">
        <ele>196.73</ele>
        <time>2020-10-24T14:04:36Z</time>
      </trkpt>
      <trkpt lat="44.46798" lon="1.69697">
        <ele>199.61</ele>
        <time>2020-10-24T14:04:51Z</time>
      </trkpt>
      <trkpt lat="44.468" lon="1.69701">
        <ele>200.09</ele>
        <time>2020-10-24T14:04:56Z</time>
      </trkpt>
      <trkpt lat="44.46809" lon="1.69711">
        <ele>202.98</ele>
        <time>2020-10-24T14:05:09Z</time>
      </trkpt>
      <trkpt lat="44.46812" lon="1.69723">
        <ele>205.38</ele>
        <time>2020-10-24T14:05:25Z</time>
      </trkpt>
      <trkpt lat="44.46814" lon="1.69734">
        <ele>207.78</ele>
        <time>2020-10-24T14:05:40Z</time>
      </trkpt>
      <trkpt lat="44.46819" lon="1.69743">
        <ele>209.7</ele>
        <time>2020-10-24T14:05:53Z</time>
      </trkpt>
      <trkpt lat="44.46824" lon="1.69756">
        <ele>212.11</ele>
        <time>2020-10-24T14:06:08Z</time>
      </trkpt>
      <trkpt lat="44.46826" lon="1.69768">
        <ele>214.99</ele>
        <time>2020-10-24T14:06:24Z</time>
      </trkpt>
      <trkpt lat="44.46832" lon="1.69775">
        <ele>216.91</ele>
        <time>2020-10-24T14:06:37Z</time>
      </trkpt>
      <trkpt lat="44.46837" lon="1.69781">
        <ele>217.88</ele>
        <time>2020-10-24T14:06:55Z</time>
      </trkpt>
      <trkpt lat="44.4684" lon="1.6979">
        <ele>220.28</ele>
        <time>2020-10-24T14:07:10Z</time>
      </trkpt>
      <trkpt lat="44.46845" lon="1.69796">
        <ele>223.16</ele>
        <time>2020-10-24T14:07:24Z</time>
      </trkpt>
      <trkpt lat="44.46849" lon="1.698">
        <ele>224.12</ele>
        <time>2020-10-24T14:07:37Z</time>
      </trkpt>
      <trkpt lat="44.46853" lon="1.69812">
        <ele>227.01</ele>
        <time>2020-10-24T14:07:52Z</time>
      </trkpt>
      <trkpt lat="44.46861" lon="1.69823">
        <ele>230.37</ele>
        <time>2020-10-24T14:08:09Z</time>
      </trkpt>
      <trkpt lat="44.46872" lon="1.69826">
        <ele>233.74</ele>
        <time>2020-10-24T14:08:26Z</time>
      </trkpt>
      <trkpt lat="44.46881" lon="1.69833">
        <ele>236.62</ele>
        <time>2020-10-24T14:08:43Z</time>
      </trkpt>
      <trkpt lat="44.4689" lon="1.69838">
        <ele>239.99</ele>
        <time>2020-10-24T14:08:59Z</time>
      </trkpt>
      <trkpt lat="44.46898" lon="1.69847">
        <ele>241.91</ele>
        <time>2020-10-24T14:09:13Z</time>
      </trkpt>
      <trkpt lat="44.46901" lon="1.69847">
        <ele>242.87</ele>
        <time>2020-10-24T14:09:17Z</time>
      </trkpt>
      <trkpt lat="44.46909" lon="1.69849">
        <ele>245.27</ele>
        <time>2020-10-24T14:09:28Z</time>
      </trkpt>
      <trkpt lat="44.4692" lon="1.69861">
        <ele>246.72</ele>
        <time>2020-10-24T14:09:45Z</time>
      </trkpt>
      <trkpt lat="44.46929" lon="1.69867">
        <ele>249.12</ele>
        <time>2020-10-24T14:09:58Z</time>
      </trkpt>
      <trkpt lat="44.46943" lon="1.69874">
        <ele>250.56</ele>
        <time>2020-10-24T14:10:14Z</time>
      </trkpt>
      <trkpt lat="44.46954" lon="1.69882">
        <ele>252.48</ele>
        <time>2020-10-24T14:10:29Z</time>
      </trkpt>
      <trkpt lat="44.4696" lon="1.69883">
        <ele>253.44</ele>
        <time>2020-10-24T14:10:35Z</time>
      </trkpt>
      <trkpt lat="44.46968" lon="1.69879">
        <ele>253.93</ele>
        <time>2020-10-24T14:10:52Z</time>
      </trkpt>
      <trkpt lat="44.46969" lon="1.69889">
        <ele>254.41</ele>
        <time>2020-10-24T14:11:21Z</time>
      </trkpt>
      <trkpt lat="44.46963" lon="1.69896">
        <ele>254.41</ele>
        <time>2020-10-24T14:11:50Z</time>
      </trkpt>
      <trkpt lat="44.46969" lon="1.69894">
        <ele>253.93</ele>
        <time>2020-10-24T14:12:14Z</time>
      </trkpt>
      <trkpt lat="44.46977" lon="1.69887">
        <ele>254.89</ele>
        <time>2020-10-24T14:12:32Z</time>
      </trkpt>
      <trkpt lat="44.46966" lon="1.69889">
        <ele>254.89</ele>
        <time>2020-10-24T14:13:01Z</time>
      </trkpt>
      <trkpt lat="44.46976" lon="1.69891">
        <ele>255.37</ele>
        <time>2020-10-24T14:13:24Z</time>
      </trkpt>
      <trkpt lat="44.46993" lon="1.69886">
        <ele>256.81</ele>
        <time>2020-10-24T14:13:35Z</time>
      </trkpt>
      <trkpt lat="44.47013" lon="1.69882">
        <ele>259.21</ele>
        <time>2020-10-24T14:13:51Z</time>
      </trkpt>
      <trkpt lat="44.4702" lon="1.69881">
        <ele>260.17</ele>
        <time>2020-10-24T14:13:57Z</time>
      </trkpt>
      <trkpt lat="44.4703" lon="1.69878">
        <ele>260.65</ele>
        <time>2020-10-24T14:14:06Z</time>
      </trkpt>
      <trkpt lat="44.47045" lon="1.69874">
        <ele>262.1</ele>
        <time>2020-10-24T14:14:19Z</time>
      </trkpt>
      <trkpt lat="44.47062" lon="1.6987">
        <ele>261.62</ele>
        <time>2020-10-24T14:14:33Z</time>
      </trkpt>
      <trkpt lat="44.47081" lon="1.69863">
        <ele>263.06</ele>
        <time>2020-10-24T14:14:50Z</time>
      </trkpt>
      <trkpt lat="44.47097" lon="1.69859">
        <ele>264.5</ele>
        <time>2020-10-24T14:15:06Z</time>
      </trkpt>
      <trkpt lat="44.47117" lon="1.6985">
        <ele>265.94</ele>
        <time>2020-10-24T14:15:19Z</time>
      </trkpt>
      <trkpt lat="44.47129" lon="1.6985">
        <ele>268.35</ele>
        <time>2020-10-24T14:15:33Z</time>
      </trkpt>
      <trkpt lat="44.47139" lon="1.69843">
        <ele>270.27</ele>
        <time>2020-10-24T14:15:42Z</time>
      </trkpt>
      <trkpt lat="44.47146" lon="1.69839">
        <ele>273.63</ele>
        <time>2020-10-24T14:15:55Z</time>
      </trkpt>
      <trkpt lat="44.47155" lon="1.69843">
        <ele>276.04</ele>
        <time>2020-10-24T14:16:08Z</time>
      </trkpt>
      <trkpt lat="44.47156" lon="1.69847">
        <ele>276.52</ele>
        <time>2020-10-24T14:16:12Z</time>
      </trkpt>
      <trkpt lat="44.47164" lon="1.69861">
        <ele>278.92</ele>
        <time>2020-10-24T14:16:25Z</time>
      </trkpt>
      <trkpt lat="44.47175" lon="1.69873">
        <ele>281.32</ele>
        <time>2020-10-24T14:16:40Z</time>
      </trkpt>
      <trkpt lat="44.47191" lon="1.69886">
        <ele>284.21</ele>
        <time>2020-10-24T14:16:57Z</time>
      </trkpt>
      <trkpt lat="44.47206" lon="1.69893">
        <ele>286.13</ele>
        <time>2020-10-24T14:17:14Z</time>
      </trkpt>
      <trkpt lat="44.47222" lon="1.69902">
        <ele>288.53</ele>
        <time>2020-10-24T14:17:30Z</time>
      </trkpt>
      <trkpt lat="44.47235" lon="1.69906">
        <ele>290.94</ele>
        <time>2020-10-24T14:17:44Z</time>
      </trkpt>
      <trkpt lat="44.47251" lon="1.69911">
        <ele>293.82</ele>
        <time>2020-10-24T14:18:00Z</time>
      </trkpt>
      <trkpt lat="44.47257" lon="1.69914">
        <ele>295.26</ele>
        <time>2020-10-24T14:18:09Z</time>
      </trkpt>
      <trkpt lat="44.47267" lon="1.69915">
        <ele>297.18</ele>
        <time>2020-10-24T14:18:20Z</time>
      </trkpt>
      <trkpt lat="44.4728" lon="1.69921">
        <ele>298.15</ele>
        <time>2020-10-24T14:18:32Z</time>
      </trkpt>
      <trkpt lat="44.47287" lon="1.6993">
        <ele>299.11</ele>
        <time>2020-10-24T14:18:42Z</time>
      </trkpt>
      <trkpt lat="44.47294" lon="1.69936">
        <ele>299.59</ele>
        <time>2020-10-24T14:18:49Z</time>
      </trkpt>
      <trkpt lat="44.47308" lon="1.69946">
        <ele>301.51</ele>
        <time>2020-10-24T14:19:04Z</time>
      </trkpt>
      <trkpt lat="44.47316" lon="1.69953">
        <ele>302.95</ele>
        <time>2020-10-24T14:19:13Z</time>
      </trkpt>
      <trkpt lat="44.47333" lon="1.69958">
        <ele>303.91</ele>
        <time>2020-10-24T14:19:28Z</time>
      </trkpt>
      <trkpt lat="44.47349" lon="1.69965">
        <ele>304.88</ele>
        <time>2020-10-24T14:19:41Z</time>
      </trkpt>
      <trkpt lat="44.47352" lon="1.69965">
        <ele>305.36</ele>
        <time>2020-10-24T14:19:44Z</time>
      </trkpt>
      <trkpt lat="44.47379" lon="1.69969">
        <ele>306.32</ele>
        <time>2020-10-24T14:20:03Z</time>
      </trkpt>
      <trkpt lat="44.47394" lon="1.69972">
        <ele>307.28</ele>
        <time>2020-10-24T14:20:17Z</time>
      </trkpt>
      <trkpt lat="44.47416" lon="1.69973">
        <ele>307.76</ele>
        <time>2020-10-24T14:20:32Z</time>
      </trkpt>
      <trkpt lat="44.47425" lon="1.69973">
        <ele>308.24</ele>
        <time>2020-10-24T14:20:41Z</time>
      </trkpt>
      <trkpt lat="44.47441" lon="1.69975">
        <ele>308.72</ele>
        <time>2020-10-24T14:20:55Z</time>
      </trkpt>
      <trkpt lat="44.47457" lon="1.69969">
        <ele>309.2</ele>
        <time>2020-10-24T14:21:06Z</time>
      </trkpt>
      <trkpt lat="44.47469" lon="1.69965">
        <ele>309.2</ele>
        <time>2020-10-24T14:21:15Z</time>
      </trkpt>
      <trkpt lat="44.47481" lon="1.69963">
        <ele>309.68</ele>
        <time>2020-10-24T14:21:24Z</time>
      </trkpt>
      <trkpt lat="44.475" lon="1.6996">
        <ele>309.2</ele>
        <time>2020-10-24T14:21:40Z</time>
      </trkpt>
      <trkpt lat="44.47501" lon="1.6996">
        <ele>309.2</ele>
        <time>2020-10-24T14:21:41Z</time>
      </trkpt>
      <trkpt lat="44.47507" lon="1.69959">
        <ele>309.68</ele>
        <time>2020-10-24T14:21:45Z</time>
      </trkpt>
      <trkpt lat="44.47526" lon="1.69956">
        <ele>309.68</ele>
        <time>2020-10-24T14:22:02Z</time>
      </trkpt>
      <trkpt lat="44.47529" lon="1.69955">
        <ele>309.2</ele>
        <time>2020-10-24T14:22:06Z</time>
      </trkpt>
      <trkpt lat="44.47539" lon="1.69951">
        <ele>309.68</ele>
        <time>2020-10-24T14:22:19Z</time>
      </trkpt>
      <trkpt lat="44.47551" lon="1.69948">
        <ele>309.68</ele>
        <time>2020-10-24T14:22:31Z</time>
      </trkpt>
      <trkpt lat="44.47568" lon="1.69939">
        <ele>309.68</ele>
        <time>2020-10-24T14:22:44Z</time>
      </trkpt>
      <trkpt lat="44.47578" lon="1.69937">
        <ele>309.68</ele>
        <time>2020-10-24T14:22:53Z</time>
      </trkpt>
      <trkpt lat="44.47582" lon="1.69936">
        <ele>309.68</ele>
        <time>2020-10-24T14:22:57Z</time>
      </trkpt>
      <trkpt lat="44.476" lon="1.69934">
        <ele>309.68</ele>
        <time>2020-10-24T14:23:11Z</time>
      </trkpt>
      <trkpt lat="44.47612" lon="1.69931">
        <ele>310.16</ele>
        <time>2020-10-24T14:23:20Z</time>
      </trkpt>
      <trkpt lat="44.47635" lon="1.69926">
        <ele>310.64</ele>
        <time>2020-10-24T14:23:38Z</time>
      </trkpt>
      <trkpt lat="44.47651" lon="1.69922">
        <ele>311.6</ele>
        <time>2020-10-24T14:23:54Z</time>
      </trkpt>
      <trkpt lat="44.47668" lon="1.69915">
        <ele>312.57</ele>
        <time>2020-10-24T14:24:07Z</time>
      </trkpt>
      <trkpt lat="44.47683" lon="1.69909">
        <ele>312.57</ele>
        <time>2020-10-24T14:24:20Z</time>
      </trkpt>
      <trkpt lat="44.47685" lon="1.69907">
        <ele>312.57</ele>
        <time>2020-10-24T14:24:22Z</time>
      </trkpt>
      <trkpt lat="44.47691" lon="1.69905">
        <ele>313.05</ele>
        <time>2020-10-24T14:24:26Z</time>
      </trkpt>
      <trkpt lat="44.47709" lon="1.69898">
        <ele>313.53</ele>
        <time>2020-10-24T14:24:42Z</time>
      </trkpt>
      <trkpt lat="44.47727" lon="1.69893">
        <ele>314.01</ele>
        <time>2020-10-24T14:24:56Z</time>
      </trkpt>
      <trkpt lat="44.47742" lon="1.6989">
        <ele>314.01</ele>
        <time>2020-10-24T14:25:09Z</time>
      </trkpt>
      <trkpt lat="44.47765" lon="1.69888">
        <ele>314.49</ele>
        <time>2020-10-24T14:25:27Z</time>
      </trkpt>
      <trkpt lat="44.47774" lon="1.69888">
        <ele>314.97</ele>
        <time>2020-10-24T14:25:36Z</time>
      </trkpt>
      <trkpt lat="44.47794" lon="1.6989">
        <ele>314.97</ele>
        <time>2020-10-24T14:25:53Z</time>
      </trkpt>
      <trkpt lat="44.47796" lon="1.69889">
        <ele>315.45</ele>
        <time>2020-10-24T14:25:55Z</time>
      </trkpt>
      <trkpt lat="44.47802" lon="1.69888">
        <ele>315.45</ele>
        <time>2020-10-24T14:25:59Z</time>
      </trkpt>
      <trkpt lat="44.47826" lon="1.69888">
        <ele>315.45</ele>
        <time>2020-10-24T14:26:15Z</time>
      </trkpt>
      <trkpt lat="44.47844" lon="1.69888">
        <ele>316.41</ele>
        <time>2020-10-24T14:26:30Z</time>
      </trkpt>
      <trkpt lat="44.47857" lon="1.69885">
        <ele>316.41</ele>
        <time>2020-10-24T14:26:41Z</time>
      </trkpt>
      <trkpt lat="44.47869" lon="1.69881">
        <ele>316.89</ele>
        <time>2020-10-24T14:26:51Z</time>
      </trkpt>
      <trkpt lat="44.4789" lon="1.69872">
        <ele>316.89</ele>
        <time>2020-10-24T14:27:07Z</time>
      </trkpt>
      <trkpt lat="44.47891" lon="1.69871">
        <ele>316.41</ele>
        <time>2020-10-24T14:27:08Z</time>
      </trkpt>
      <trkpt lat="44.47893" lon="1.6987">
        <ele>316.41</ele>
        <time>2020-10-24T14:27:09Z</time>
      </trkpt>
      <trkpt lat="44.47909" lon="1.6986">
        <ele>317.37</ele>
        <time>2020-10-24T14:27:23Z</time>
      </trkpt>
      <trkpt lat="44.47915" lon="1.69856">
        <ele>317.85</ele>
        <time>2020-10-24T14:27:30Z</time>
      </trkpt>
      <trkpt lat="44.47921" lon="1.69854">
        <ele>318.33</ele>
        <time>2020-10-24T14:27:36Z</time>
      </trkpt>
      <trkpt lat="44.47927" lon="1.6985">
        <ele>319.78</ele>
        <time>2020-10-24T14:27:43Z</time>
      </trkpt>
      <trkpt lat="44.47935" lon="1.69847">
        <ele>320.74</ele>
        <time>2020-10-24T14:27:51Z</time>
      </trkpt>
      <trkpt lat="44.47936" lon="1.69846">
        <ele>320.26</ele>
        <time>2020-10-24T14:27:52Z</time>
      </trkpt>
      <trkpt lat="44.47949" lon="1.69839">
        <ele>321.7</ele>
        <time>2020-10-24T14:28:05Z</time>
      </trkpt>
      <trkpt lat="44.47951" lon="1.69838">
        <ele>322.18</ele>
        <time>2020-10-24T14:28:07Z</time>
      </trkpt>
      <trkpt lat="44.47965" lon="1.69832">
        <ele>322.66</ele>
        <time>2020-10-24T14:28:20Z</time>
      </trkpt>
      <trkpt lat="44.47967" lon="1.69831">
        <ele>323.62</ele>
        <time>2020-10-24T14:28:22Z</time>
      </trkpt>
      <trkpt lat="44.47968" lon="1.6983">
        <ele>323.62</ele>
        <time>2020-10-24T14:28:23Z</time>
      </trkpt>
      <trkpt lat="44.47981" lon="1.69823">
        <ele>325.06</ele>
        <time>2020-10-24T14:28:36Z</time>
      </trkpt>
      <trkpt lat="44.47995" lon="1.69812">
        <ele>326.02</ele>
        <time>2020-10-24T14:28:50Z</time>
      </trkpt>
      <trkpt lat="44.48007" lon="1.69802">
        <ele>326.5</ele>
        <time>2020-10-24T14:29:02Z</time>
      </trkpt>
      <trkpt lat="44.48021" lon="1.69789">
        <ele>327.47</ele>
        <time>2020-10-24T14:29:16Z</time>
      </trkpt>
      <trkpt lat="44.48036" lon="1.69775">
        <ele>327.95</ele>
        <time>2020-10-24T14:29:32Z</time>
      </trkpt>
      <trkpt lat="44.4804" lon="1.6977">
        <ele>327.95</ele>
        <time>2020-10-24T14:29:36Z</time>
      </trkpt>
      <trkpt lat="44.48041" lon="1.69768">
        <ele>327.95</ele>
        <time>2020-10-24T14:29:37Z</time>
      </trkpt>
      <trkpt lat="44.48048" lon="1.69756">
        <ele>328.43</ele>
        <time>2020-10-24T14:29:46Z</time>
      </trkpt>
      <trkpt lat="44.48049" lon="1.69755">
        <ele>328.91</ele>
        <time>2020-10-24T14:29:47Z</time>
      </trkpt>
      <trkpt lat="44.48061" lon="1.69738">
        <ele>329.87</ele>
        <time>2020-10-24T14:30:01Z</time>
      </trkpt>
      <trkpt lat="44.4807" lon="1.69724">
        <ele>331.79</ele>
        <time>2020-10-24T14:30:14Z</time>
      </trkpt>
      <trkpt lat="44.48076" lon="1.69713">
        <ele>332.75</ele>
        <time>2020-10-24T14:30:23Z</time>
      </trkpt>
      <trkpt lat="44.48077" lon="1.69711">
        <ele>332.27</ele>
        <time>2020-10-24T14:30:24Z</time>
      </trkpt>
      <trkpt lat="44.48085" lon="1.69696">
        <ele>333.71</ele>
        <time>2020-10-24T14:30:37Z</time>
      </trkpt>
      <trkpt lat="44.48086" lon="1.69694">
        <ele>334.2</ele>
        <time>2020-10-24T14:30:38Z</time>
      </trkpt>
      <trkpt lat="44.48096" lon="1.6968">
        <ele>336.12</ele>
        <time>2020-10-24T14:30:51Z</time>
      </trkpt>
      <trkpt lat="44.48104" lon="1.69664">
        <ele>338.04</ele>
        <time>2020-10-24T14:31:07Z</time>
      </trkpt>
      <trkpt lat="44.48107" lon="1.69645">
        <ele>339.96</ele>
        <time>2020-10-24T14:31:20Z</time>
      </trkpt>
      <trkpt lat="44.48108" lon="1.69621">
        <ele>340.92</ele>
        <time>2020-10-24T14:31:33Z</time>
      </trkpt>
      <trkpt lat="44.48105" lon="1.69601">
        <ele>341.89</ele>
        <time>2020-10-24T14:31:46Z</time>
      </trkpt>
      <trkpt lat="44.48101" lon="1.69584">
        <ele>342.37</ele>
        <time>2020-10-24T14:31:56Z</time>
      </trkpt>
      <trkpt lat="44.48096" lon="1.69564">
        <ele>343.81</ele>
        <time>2020-10-24T14:32:09Z</time>
      </trkpt>
      <trkpt lat="44.4809" lon="1.69545">
        <ele>344.77</ele>
        <time>2020-10-24T14:32:22Z</time>
      </trkpt>
      <trkpt lat="44.48085" lon="1.69527">
        <ele>345.25</ele>
        <time>2020-10-24T14:32:35Z</time>
      </trkpt>
      <trkpt lat="44.48079" lon="1.6951">
        <ele>346.21</ele>
        <time>2020-10-24T14:32:46Z</time>
      </trkpt>
      <trkpt lat="44.48078" lon="1.69508">
        <ele>346.21</ele>
        <time>2020-10-24T14:32:47Z</time>
      </trkpt>
      <trkpt lat="44.48078" lon="1.69506">
        <ele>346.21</ele>
        <time>2020-10-24T14:32:48Z</time>
      </trkpt>
      <trkpt lat="44.48077" lon="1.69504">
        <ele>346.21</ele>
        <time>2020-10-24T14:32:49Z</time>
      </trkpt>
      <trkpt lat="44.48076" lon="1.69502">
        <ele>346.21</ele>
        <time>2020-10-24T14:32:50Z</time>
      </trkpt>
      <trkpt lat="44.48075" lon="1.69501">
        <ele>346.21</ele>
        <time>2020-10-24T14:32:51Z</time>
      </trkpt>
      <trkpt lat="44.48074" lon="1.69499">
        <ele>346.21</ele>
        <time>2020-10-24T14:32:52Z</time>
      </trkpt>
      <trkpt lat="44.4807" lon="1.6949">
        <ele>346.69</ele>
        <time>2020-10-24T14:32:59Z</time>
      </trkpt>
      <trkpt lat="44.48069" lon="1.69488">
        <ele>346.69</ele>
        <time>2020-10-24T14:33:00Z</time>
      </trkpt>
      <trkpt lat="44.48063" lon="1.69469">
        <ele>347.65</ele>
        <time>2020-10-24T14:33:14Z</time>
      </trkpt>
      <trkpt lat="44.48059" lon="1.69447">
        <ele>348.13</ele>
        <time>2020-10-24T14:33:26Z</time>
      </trkpt>
      <trkpt lat="44.48053" lon="1.69424">
        <ele>347.65</ele>
        <time>2020-10-24T14:33:39Z</time>
      </trkpt>
      <trkpt lat="44.4805" lon="1.6941">
        <ele>347.65</ele>
        <time>2020-10-24T14:33:49Z</time>
      </trkpt>
      <trkpt lat="44.48051" lon="1.69409">
        <ele>348.13</ele>
        <time>2020-10-24T14:33:50Z</time>
      </trkpt>
      <trkpt lat="44.48046" lon="1.69392">
        <ele>347.17</ele>
        <time>2020-10-24T14:34:01Z</time>
      </trkpt>
      <trkpt lat="44.48045" lon="1.6939">
        <ele>346.69</ele>
        <time>2020-10-24T14:34:02Z</time>
      </trkpt>
      <trkpt lat="44.48037" lon="1.69371">
        <ele>346.21</ele>
        <time>2020-10-24T14:34:13Z</time>
      </trkpt>
      <trkpt lat="44.48032" lon="1.69349">
        <ele>346.21</ele>
        <time>2020-10-24T14:34:25Z</time>
      </trkpt>
      <trkpt lat="44.48028" lon="1.69332">
        <ele>345.25</ele>
        <time>2020-10-24T14:34:37Z</time>
      </trkpt>
      <trkpt lat="44.48028" lon="1.69331">
        <ele>344.77</ele>
        <time>2020-10-24T14:34:38Z</time>
      </trkpt>
      <trkpt lat="44.48028" lon="1.69329">
        <ele>345.25</ele>
        <time>2020-10-24T14:34:39Z</time>
      </trkpt>
      <trkpt lat="44.48025" lon="1.69308">
        <ele>343.81</ele>
        <time>2020-10-24T14:34:51Z</time>
      </trkpt>
      <trkpt lat="44.48023" lon="1.69286">
        <ele>342.85</ele>
        <time>2020-10-24T14:35:02Z</time>
      </trkpt>
      <trkpt lat="44.48019" lon="1.69266">
        <ele>341.89</ele>
        <time>2020-10-24T14:35:12Z</time>
      </trkpt>
      <trkpt lat="44.48018" lon="1.69261">
        <ele>341.41</ele>
        <time>2020-10-24T14:35:17Z</time>
      </trkpt>
      <trkpt lat="44.48018" lon="1.69259">
        <ele>340.92</ele>
        <time>2020-10-24T14:35:18Z</time>
      </trkpt>
      <trkpt lat="44.48014" lon="1.69239">
        <ele>339.96</ele>
        <time>2020-10-24T14:35:31Z</time>
      </trkpt>
      <trkpt lat="44.48007" lon="1.69222">
        <ele>339</ele>
        <time>2020-10-24T14:35:41Z</time>
      </trkpt>
      <trkpt lat="44.48007" lon="1.69221">
        <ele>339</ele>
        <time>2020-10-24T14:35:42Z</time>
      </trkpt>
      <trkpt lat="44.48004" lon="1.69217">
        <ele>338.52</ele>
        <time>2020-10-24T14:35:43Z</time>
      </trkpt>
      <trkpt lat="44.47997" lon="1.69196">
        <ele>337.56</ele>
        <time>2020-10-24T14:35:55Z</time>
      </trkpt>
      <trkpt lat="44.47994" lon="1.69175">
        <ele>336.12</ele>
        <time>2020-10-24T14:36:05Z</time>
      </trkpt>
      <trkpt lat="44.47988" lon="1.69155">
        <ele>334.2</ele>
        <time>2020-10-24T14:36:18Z</time>
      </trkpt>
      <trkpt lat="44.47976" lon="1.69133">
        <ele>333.23</ele>
        <time>2020-10-24T14:36:32Z</time>
      </trkpt>
      <trkpt lat="44.47974" lon="1.69127">
        <ele>332.27</ele>
        <time>2020-10-24T14:36:38Z</time>
      </trkpt>
      <trkpt lat="44.47974" lon="1.69125">
        <ele>332.27</ele>
        <time>2020-10-24T14:36:39Z</time>
      </trkpt>
      <trkpt lat="44.47973" lon="1.69124">
        <ele>332.27</ele>
        <time>2020-10-24T14:36:40Z</time>
      </trkpt>
      <trkpt lat="44.47971" lon="1.69122">
        <ele>331.79</ele>
        <time>2020-10-24T14:36:41Z</time>
      </trkpt>
      <trkpt lat="44.4797" lon="1.69119">
        <ele>331.31</ele>
        <time>2020-10-24T14:36:42Z</time>
      </trkpt>
      <trkpt lat="44.4797" lon="1.69117">
        <ele>331.31</ele>
        <time>2020-10-24T14:36:43Z</time>
      </trkpt>
      <trkpt lat="44.47968" lon="1.69115">
        <ele>331.31</ele>
        <time>2020-10-24T14:36:44Z</time>
      </trkpt>
      <trkpt lat="44.47964" lon="1.691">
        <ele>330.35</ele>
        <time>2020-10-24T14:36:56Z</time>
      </trkpt>
      <trkpt lat="44.47961" lon="1.69085">
        <ele>328.91</ele>
        <time>2020-10-24T14:37:04Z</time>
      </trkpt>
      <trkpt lat="44.4796" lon="1.69083">
        <ele>328.43</ele>
        <time>2020-10-24T14:37:05Z</time>
      </trkpt>
      <trkpt lat="44.47959" lon="1.6908">
        <ele>328.43</ele>
        <time>2020-10-24T14:37:06Z</time>
      </trkpt>
      <trkpt lat="44.4795" lon="1.69059">
        <ele>326.99</ele>
        <time>2020-10-24T14:37:17Z</time>
      </trkpt>
      <trkpt lat="44.47942" lon="1.69041">
        <ele>325.54</ele>
        <time>2020-10-24T14:37:29Z</time>
      </trkpt>
      <trkpt lat="44.47936" lon="1.69025">
        <ele>323.14</ele>
        <time>2020-10-24T14:37:43Z</time>
      </trkpt>
      <trkpt lat="44.47928" lon="1.69004">
        <ele>321.7</ele>
        <time>2020-10-24T14:37:56Z</time>
      </trkpt>
      <trkpt lat="44.47926" lon="1.68996">
        <ele>320.74</ele>
        <time>2020-10-24T14:38:02Z</time>
      </trkpt>
      <trkpt lat="44.47925" lon="1.68994">
        <ele>320.74</ele>
        <time>2020-10-24T14:38:03Z</time>
      </trkpt>
      <trkpt lat="44.47925" lon="1.68991">
        <ele>320.26</ele>
        <time>2020-10-24T14:38:04Z</time>
      </trkpt>
      <trkpt lat="44.47925" lon="1.68987">
        <ele>320.26</ele>
        <time>2020-10-24T14:38:05Z</time>
      </trkpt>
      <trkpt lat="44.47925" lon="1.68985">
        <ele>319.78</ele>
        <time>2020-10-24T14:38:06Z</time>
      </trkpt>
      <trkpt lat="44.47925" lon="1.68982">
        <ele>319.78</ele>
        <time>2020-10-24T14:38:07Z</time>
      </trkpt>
      <trkpt lat="44.47918" lon="1.68964">
        <ele>317.85</ele>
        <time>2020-10-24T14:38:19Z</time>
      </trkpt>
      <trkpt lat="44.47916" lon="1.68942">
        <ele>316.89</ele>
        <time>2020-10-24T14:38:32Z</time>
      </trkpt>
      <trkpt lat="44.47914" lon="1.6892">
        <ele>315.45</ele>
        <time>2020-10-24T14:38:41Z</time>
      </trkpt>
      <trkpt lat="44.47914" lon="1.68913">
        <ele>314.49</ele>
        <time>2020-10-24T14:38:47Z</time>
      </trkpt>
      <trkpt lat="44.47914" lon="1.68911">
        <ele>314.01</ele>
        <time>2020-10-24T14:38:48Z</time>
      </trkpt>
      <trkpt lat="44.47915" lon="1.68909">
        <ele>314.49</ele>
        <time>2020-10-24T14:38:49Z</time>
      </trkpt>
      <trkpt lat="44.47914" lon="1.68907">
        <ele>314.49</ele>
        <time>2020-10-24T14:38:50Z</time>
      </trkpt>
      <trkpt lat="44.47914" lon="1.68904">
        <ele>314.49</ele>
        <time>2020-10-24T14:38:51Z</time>
      </trkpt>
      <trkpt lat="44.47913" lon="1.68902">
        <ele>314.01</ele>
        <time>2020-10-24T14:38:52Z</time>
      </trkpt>
      <trkpt lat="44.47913" lon="1.68899">
        <ele>314.01</ele>
        <time>2020-10-24T14:38:53Z</time>
      </trkpt>
      <trkpt lat="44.47913" lon="1.68897">
        <ele>314.01</ele>
        <time>2020-10-24T14:38:54Z</time>
      </trkpt>
      <trkpt lat="44.47915" lon="1.68886">
        <ele>312.57</ele>
        <time>2020-10-24T14:39:03Z</time>
      </trkpt>
      <trkpt lat="44.47915" lon="1.68884">
        <ele>312.57</ele>
        <time>2020-10-24T14:39:04Z</time>
      </trkpt>
      <trkpt lat="44.47914" lon="1.68881">
        <ele>312.09</ele>
        <time>2020-10-24T14:39:05Z</time>
      </trkpt>
      <trkpt lat="44.47912" lon="1.68878">
        <ele>312.57</ele>
        <time>2020-10-24T14:39:06Z</time>
      </trkpt>
      <trkpt lat="44.47912" lon="1.68875">
        <ele>312.09</ele>
        <time>2020-10-24T14:39:07Z</time>
      </trkpt>
      <trkpt lat="44.47912" lon="1.68873">
        <ele>312.09</ele>
        <time>2020-10-24T14:39:08Z</time>
      </trkpt>
      <trkpt lat="44.47912" lon="1.6887">
        <ele>312.09</ele>
        <time>2020-10-24T14:39:09Z</time>
      </trkpt>
      <trkpt lat="44.47912" lon="1.68868">
        <ele>312.09</ele>
        <time>2020-10-24T14:39:10Z</time>
      </trkpt>
      <trkpt lat="44.4791" lon="1.68859">
        <ele>311.12</ele>
        <time>2020-10-24T14:39:16Z</time>
      </trkpt>
      <trkpt lat="44.47905" lon="1.68841">
        <ele>310.16</ele>
        <time>2020-10-24T14:39:24Z</time>
      </trkpt>
      <trkpt lat="44.47903" lon="1.68832">
        <ele>309.68</ele>
        <time>2020-10-24T14:39:31Z</time>
      </trkpt>
      <trkpt lat="44.47902" lon="1.6883">
        <ele>309.68</ele>
        <time>2020-10-24T14:39:32Z</time>
      </trkpt>
      <trkpt lat="44.47901" lon="1.68829">
        <ele>309.68</ele>
        <time>2020-10-24T14:39:33Z</time>
      </trkpt>
      <trkpt lat="44.479" lon="1.68827">
        <ele>309.68</ele>
        <time>2020-10-24T14:39:34Z</time>
      </trkpt>
      <trkpt lat="44.47897" lon="1.68823">
        <ele>309.68</ele>
        <time>2020-10-24T14:39:37Z</time>
      </trkpt>
      <trkpt lat="44.47892" lon="1.68814">
        <ele>309.2</ele>
        <time>2020-10-24T14:39:43Z</time>
      </trkpt>
      <trkpt lat="44.47891" lon="1.68812">
        <ele>309.2</ele>
        <time>2020-10-24T14:39:44Z</time>
      </trkpt>
      <trkpt lat="44.47887" lon="1.68806">
        <ele>308.72</ele>
        <time>2020-10-24T14:39:47Z</time>
      </trkpt>
      <trkpt lat="44.47875" lon="1.68791">
        <ele>308.72</ele>
        <time>2020-10-24T14:40:00Z</time>
      </trkpt>
      <trkpt lat="44.47867" lon="1.68769">
        <ele>308.24</ele>
        <time>2020-10-24T14:40:10Z</time>
      </trkpt>
      <trkpt lat="44.47868" lon="1.68759">
        <ele>306.8</ele>
        <time>2020-10-24T14:40:20Z</time>
      </trkpt>
      <trkpt lat="44.47866" lon="1.68733">
        <ele>306.32</ele>
        <time>2020-10-24T14:40:33Z</time>
      </trkpt>
      <trkpt lat="44.47867" lon="1.68726">
        <ele>306.32</ele>
        <time>2020-10-24T14:40:38Z</time>
      </trkpt>
      <trkpt lat="44.47867" lon="1.68723">
        <ele>305.84</ele>
        <time>2020-10-24T14:40:41Z</time>
      </trkpt>
      <trkpt lat="44.47866" lon="1.6872">
        <ele>305.36</ele>
        <time>2020-10-24T14:40:42Z</time>
      </trkpt>
      <trkpt lat="44.47865" lon="1.68718">
        <ele>304.88</ele>
        <time>2020-10-24T14:40:43Z</time>
      </trkpt>
      <trkpt lat="44.47863" lon="1.68715">
        <ele>305.36</ele>
        <time>2020-10-24T14:40:44Z</time>
      </trkpt>
      <trkpt lat="44.47862" lon="1.68712">
        <ele>304.88</ele>
        <time>2020-10-24T14:40:45Z</time>
      </trkpt>
      <trkpt lat="44.47857" lon="1.687">
        <ele>304.88</ele>
        <time>2020-10-24T14:40:50Z</time>
      </trkpt>
      <trkpt lat="44.47855" lon="1.68676">
        <ele>303.91</ele>
        <time>2020-10-24T14:41:03Z</time>
      </trkpt>
      <trkpt lat="44.47857" lon="1.68661">
        <ele>302.95</ele>
        <time>2020-10-24T14:41:12Z</time>
      </trkpt>
      <trkpt lat="44.47856" lon="1.68638">
        <ele>302.47</ele>
        <time>2020-10-24T14:41:23Z</time>
      </trkpt>
      <trkpt lat="44.47857" lon="1.68636">
        <ele>301.99</ele>
        <time>2020-10-24T14:41:25Z</time>
      </trkpt>
      <trkpt lat="44.47858" lon="1.68634">
        <ele>301.99</ele>
        <time>2020-10-24T14:41:26Z</time>
      </trkpt>
      <trkpt lat="44.47859" lon="1.68632">
        <ele>301.99</ele>
        <time>2020-10-24T14:41:27Z</time>
      </trkpt>
      <trkpt lat="44.4786" lon="1.68629">
        <ele>301.51</ele>
        <time>2020-10-24T14:41:28Z</time>
      </trkpt>
      <trkpt lat="44.4786" lon="1.68626">
        <ele>301.51</ele>
        <time>2020-10-24T14:41:29Z</time>
      </trkpt>
      <trkpt lat="44.47861" lon="1.68624">
        <ele>301.51</ele>
        <time>2020-10-24T14:41:30Z</time>
      </trkpt>
      <trkpt lat="44.47861" lon="1.68622">
        <ele>301.51</ele>
        <time>2020-10-24T14:41:31Z</time>
      </trkpt>
      <trkpt lat="44.47861" lon="1.6862">
        <ele>301.03</ele>
        <time>2020-10-24T14:41:32Z</time>
      </trkpt>
      <trkpt lat="44.47861" lon="1.68619">
        <ele>301.51</ele>
        <time>2020-10-24T14:41:33Z</time>
      </trkpt>
      <trkpt lat="44.47861" lon="1.68615">
        <ele>301.03</ele>
        <time>2020-10-24T14:41:36Z</time>
      </trkpt>
      <trkpt lat="44.47861" lon="1.68613">
        <ele>301.03</ele>
        <time>2020-10-24T14:41:37Z</time>
      </trkpt>
      <trkpt lat="44.47863" lon="1.6858">
        <ele>300.07</ele>
        <time>2020-10-24T14:41:57Z</time>
      </trkpt>
      <trkpt lat="44.47862" lon="1.68541">
        <ele>298.63</ele>
        <time>2020-10-24T14:42:15Z</time>
      </trkpt>
      <trkpt lat="44.47863" lon="1.68504">
        <ele>297.18</ele>
        <time>2020-10-24T14:42:35Z</time>
      </trkpt>
      <trkpt lat="44.47862" lon="1.68499">
        <ele>296.7</ele>
        <time>2020-10-24T14:42:38Z</time>
      </trkpt>
      <trkpt lat="44.47863" lon="1.68494">
        <ele>296.7</ele>
        <time>2020-10-24T14:42:41Z</time>
      </trkpt>
      <trkpt lat="44.47863" lon="1.68492">
        <ele>296.7</ele>
        <time>2020-10-24T14:42:42Z</time>
      </trkpt>
      <trkpt lat="44.47862" lon="1.68489">
        <ele>296.22</ele>
        <time>2020-10-24T14:42:43Z</time>
      </trkpt>
      <trkpt lat="44.47862" lon="1.68487">
        <ele>296.7</ele>
        <time>2020-10-24T14:42:44Z</time>
      </trkpt>
      <trkpt lat="44.47862" lon="1.68484">
        <ele>296.22</ele>
        <time>2020-10-24T14:42:45Z</time>
      </trkpt>
      <trkpt lat="44.47862" lon="1.68482">
        <ele>295.74</ele>
        <time>2020-10-24T14:42:46Z</time>
      </trkpt>
      <trkpt lat="44.47862" lon="1.68479">
        <ele>295.74</ele>
        <time>2020-10-24T14:42:47Z</time>
      </trkpt>
      <trkpt lat="44.47863" lon="1.68476">
        <ele>296.22</ele>
        <time>2020-10-24T14:42:48Z</time>
      </trkpt>
      <trkpt lat="44.47863" lon="1.68474">
        <ele>295.74</ele>
        <time>2020-10-24T14:42:49Z</time>
      </trkpt>
      <trkpt lat="44.47863" lon="1.68472">
        <ele>296.22</ele>
        <time>2020-10-24T14:42:50Z</time>
      </trkpt>
      <trkpt lat="44.47864" lon="1.6847">
        <ele>295.74</ele>
        <time>2020-10-24T14:42:51Z</time>
      </trkpt>
      <trkpt lat="44.47863" lon="1.68457">
        <ele>294.3</ele>
        <time>2020-10-24T14:43:00Z</time>
      </trkpt>
      <trkpt lat="44.47863" lon="1.68456">
        <ele>294.78</ele>
        <time>2020-10-24T14:43:01Z</time>
      </trkpt>
      <trkpt lat="44.47861" lon="1.68449">
        <ele>294.78</ele>
        <time>2020-10-24T14:43:04Z</time>
      </trkpt>
      <trkpt lat="44.47861" lon="1.68446">
        <ele>294.78</ele>
        <time>2020-10-24T14:43:05Z</time>
      </trkpt>
      <trkpt lat="44.4786" lon="1.68443">
        <ele>294.3</ele>
        <time>2020-10-24T14:43:06Z</time>
      </trkpt>
      <trkpt lat="44.4786" lon="1.68441">
        <ele>294.3</ele>
        <time>2020-10-24T14:43:07Z</time>
      </trkpt>
      <trkpt lat="44.47859" lon="1.6844">
        <ele>294.3</ele>
        <time>2020-10-24T14:43:08Z</time>
      </trkpt>
      <trkpt lat="44.4786" lon="1.68434">
        <ele>293.82</ele>
        <time>2020-10-24T14:43:14Z</time>
      </trkpt>
      <trkpt lat="44.4786" lon="1.68432">
        <ele>293.34</ele>
        <time>2020-10-24T14:43:15Z</time>
      </trkpt>
      <trkpt lat="44.47859" lon="1.68429">
        <ele>293.34</ele>
        <time>2020-10-24T14:43:16Z</time>
      </trkpt>
      <trkpt lat="44.47859" lon="1.68427">
        <ele>293.34</ele>
        <time>2020-10-24T14:43:17Z</time>
      </trkpt>
      <trkpt lat="44.47859" lon="1.68424">
        <ele>293.34</ele>
        <time>2020-10-24T14:43:18Z</time>
      </trkpt>
      <trkpt lat="44.4786" lon="1.68406">
        <ele>292.38</ele>
        <time>2020-10-24T14:43:25Z</time>
      </trkpt>
      <trkpt lat="44.47863" lon="1.68389">
        <ele>291.42</ele>
        <time>2020-10-24T14:43:37Z</time>
      </trkpt>
      <trkpt lat="44.47868" lon="1.68366">
        <ele>290.94</ele>
        <time>2020-10-24T14:43:49Z</time>
      </trkpt>
      <trkpt lat="44.47867" lon="1.68359">
        <ele>290.46</ele>
        <time>2020-10-24T14:43:53Z</time>
      </trkpt>
      <trkpt lat="44.47867" lon="1.68357">
        <ele>290.46</ele>
        <time>2020-10-24T14:43:54Z</time>
      </trkpt>
      <trkpt lat="44.47868" lon="1.68355">
        <ele>290.46</ele>
        <time>2020-10-24T14:43:55Z</time>
      </trkpt>
      <trkpt lat="44.4787" lon="1.68326">
        <ele>289.97</ele>
        <time>2020-10-24T14:44:10Z</time>
      </trkpt>
      <trkpt lat="44.47871" lon="1.68318">
        <ele>289.49</ele>
        <time>2020-10-24T14:44:14Z</time>
      </trkpt>
      <trkpt lat="44.47872" lon="1.68316">
        <ele>289.97</ele>
        <time>2020-10-24T14:44:15Z</time>
      </trkpt>
      <trkpt lat="44.47874" lon="1.68295">
        <ele>290.46</ele>
        <time>2020-10-24T14:44:28Z</time>
      </trkpt>
      <trkpt lat="44.47873" lon="1.68293">
        <ele>289.97</ele>
        <time>2020-10-24T14:44:29Z</time>
      </trkpt>
      <trkpt lat="44.47873" lon="1.6829">
        <ele>290.46</ele>
        <time>2020-10-24T14:44:30Z</time>
      </trkpt>
      <trkpt lat="44.47873" lon="1.68289">
        <ele>289.97</ele>
        <time>2020-10-24T14:44:31Z</time>
      </trkpt>
      <trkpt lat="44.47874" lon="1.68287">
        <ele>289.97</ele>
        <time>2020-10-24T14:44:32Z</time>
      </trkpt>
      <trkpt lat="44.47874" lon="1.68264">
        <ele>290.46</ele>
        <time>2020-10-24T14:44:45Z</time>
      </trkpt>
      <trkpt lat="44.47878" lon="1.68243">
        <ele>291.42</ele>
        <time>2020-10-24T14:44:59Z</time>
      </trkpt>
      <trkpt lat="44.47885" lon="1.68217">
        <ele>291.9</ele>
        <time>2020-10-24T14:45:14Z</time>
      </trkpt>
      <trkpt lat="44.47888" lon="1.68194">
        <ele>293.34</ele>
        <time>2020-10-24T14:45:28Z</time>
      </trkpt>
      <trkpt lat="44.47895" lon="1.68173">
        <ele>293.82</ele>
        <time>2020-10-24T14:45:41Z</time>
      </trkpt>
      <trkpt lat="44.47896" lon="1.68171">
        <ele>294.3</ele>
        <time>2020-10-24T14:45:42Z</time>
      </trkpt>
      <trkpt lat="44.47901" lon="1.68146">
        <ele>295.26</ele>
        <time>2020-10-24T14:45:58Z</time>
      </trkpt>
      <trkpt lat="44.47901" lon="1.68134">
        <ele>295.74</ele>
        <time>2020-10-24T14:46:04Z</time>
      </trkpt>
      <trkpt lat="44.47907" lon="1.68116">
        <ele>295.26</ele>
        <time>2020-10-24T14:46:15Z</time>
      </trkpt>
      <trkpt lat="44.47913" lon="1.68099">
        <ele>295.26</ele>
        <time>2020-10-24T14:46:25Z</time>
      </trkpt>
      <trkpt lat="44.47916" lon="1.68079">
        <ele>295.74</ele>
        <time>2020-10-24T14:46:37Z</time>
      </trkpt>
      <trkpt lat="44.47915" lon="1.68077">
        <ele>295.74</ele>
        <time>2020-10-24T14:46:38Z</time>
      </trkpt>
      <trkpt lat="44.47915" lon="1.68076">
        <ele>296.22</ele>
        <time>2020-10-24T14:46:39Z</time>
      </trkpt>
      <trkpt lat="44.47916" lon="1.68074">
        <ele>295.74</ele>
        <time>2020-10-24T14:46:40Z</time>
      </trkpt>
      <trkpt lat="44.47916" lon="1.68072">
        <ele>295.74</ele>
        <time>2020-10-24T14:46:41Z</time>
      </trkpt>
      <trkpt lat="44.47916" lon="1.68071">
        <ele>295.74</ele>
        <time>2020-10-24T14:46:42Z</time>
      </trkpt>
      <trkpt lat="44.47917" lon="1.68069">
        <ele>296.22</ele>
        <time>2020-10-24T14:46:43Z</time>
      </trkpt>
      <trkpt lat="44.47925" lon="1.68041">
        <ele>296.7</ele>
        <time>2020-10-24T14:47:00Z</time>
      </trkpt>
      <trkpt lat="44.47924" lon="1.68021">
        <ele>297.67</ele>
        <time>2020-10-24T14:47:11Z</time>
      </trkpt>
      <trkpt lat="44.47927" lon="1.68">
        <ele>297.18</ele>
        <time>2020-10-24T14:47:24Z</time>
      </trkpt>
      <trkpt lat="44.4793" lon="1.67977">
        <ele>297.67</ele>
        <time>2020-10-24T14:47:37Z</time>
      </trkpt>
      <trkpt lat="44.47932" lon="1.67956">
        <ele>298.15</ele>
        <time>2020-10-24T14:47:50Z</time>
      </trkpt>
      <trkpt lat="44.47934" lon="1.67929">
        <ele>299.59</ele>
        <time>2020-10-24T14:48:06Z</time>
      </trkpt>
      <trkpt lat="44.47938" lon="1.67917">
        <ele>299.59</ele>
        <time>2020-10-24T14:48:14Z</time>
      </trkpt>
      <trkpt lat="44.47939" lon="1.67915">
        <ele>299.11</ele>
        <time>2020-10-24T14:48:15Z</time>
      </trkpt>
      <trkpt lat="44.47944" lon="1.679">
        <ele>300.55</ele>
        <time>2020-10-24T14:48:26Z</time>
      </trkpt>
      <trkpt lat="44.47951" lon="1.67874">
        <ele>301.99</ele>
        <time>2020-10-24T14:48:43Z</time>
      </trkpt>
      <trkpt lat="44.47952" lon="1.67869">
        <ele>301.51</ele>
        <time>2020-10-24T14:48:47Z</time>
      </trkpt>
      <trkpt lat="44.47953" lon="1.67868">
        <ele>301.99</ele>
        <time>2020-10-24T14:48:48Z</time>
      </trkpt>
      <trkpt lat="44.47962" lon="1.6785">
        <ele>302.95</ele>
        <time>2020-10-24T14:49:02Z</time>
      </trkpt>
      <trkpt lat="44.47962" lon="1.67849">
        <ele>303.43</ele>
        <time>2020-10-24T14:49:03Z</time>
      </trkpt>
      <trkpt lat="44.47963" lon="1.67847">
        <ele>302.95</ele>
        <time>2020-10-24T14:49:04Z</time>
      </trkpt>
      <trkpt lat="44.47975" lon="1.67834">
        <ele>304.88</ele>
        <time>2020-10-24T14:49:18Z</time>
      </trkpt>
      <trkpt lat="44.47976" lon="1.67831">
        <ele>305.36</ele>
        <time>2020-10-24T14:49:20Z</time>
      </trkpt>
      <trkpt lat="44.47988" lon="1.6781">
        <ele>306.32</ele>
        <time>2020-10-24T14:49:35Z</time>
      </trkpt>
      <trkpt lat="44.47989" lon="1.67799">
        <ele>307.76</ele>
        <time>2020-10-24T14:49:42Z</time>
      </trkpt>
      <trkpt lat="44.47989" lon="1.67797">
        <ele>308.24</ele>
        <time>2020-10-24T14:49:43Z</time>
      </trkpt>
      <trkpt lat="44.47991" lon="1.67794">
        <ele>306.8</ele>
        <time>2020-10-24T14:49:45Z</time>
      </trkpt>
      <trkpt lat="44.47993" lon="1.67791">
        <ele>307.28</ele>
        <time>2020-10-24T14:49:47Z</time>
      </trkpt>
      <trkpt lat="44.47993" lon="1.67789">
        <ele>307.28</ele>
        <time>2020-10-24T14:49:48Z</time>
      </trkpt>
      <trkpt lat="44.47999" lon="1.67769">
        <ele>308.24</ele>
        <time>2020-10-24T14:50:01Z</time>
      </trkpt>
      <trkpt lat="44.47999" lon="1.67759">
        <ele>308.24</ele>
        <time>2020-10-24T14:50:07Z</time>
      </trkpt>
      <trkpt lat="44.47998" lon="1.67758">
        <ele>307.76</ele>
        <time>2020-10-24T14:50:08Z</time>
      </trkpt>
      <trkpt lat="44.48" lon="1.67735">
        <ele>308.24</ele>
        <time>2020-10-24T14:50:22Z</time>
      </trkpt>
      <trkpt lat="44.48001" lon="1.67712">
        <ele>307.76</ele>
        <time>2020-10-24T14:50:34Z</time>
      </trkpt>
      <trkpt lat="44.48001" lon="1.67703">
        <ele>307.76</ele>
        <time>2020-10-24T14:50:41Z</time>
      </trkpt>
      <trkpt lat="44.47996" lon="1.67693">
        <ele>309.68</ele>
        <time>2020-10-24T14:50:51Z</time>
      </trkpt>
      <trkpt lat="44.47994" lon="1.67685">
        <ele>309.2</ele>
        <time>2020-10-24T14:51:04Z</time>
      </trkpt>
      <trkpt lat="44.47991" lon="1.67684">
        <ele>309.2</ele>
        <time>2020-10-24T14:51:27Z</time>
      </trkpt>
      <trkpt lat="44.47991" lon="1.67681">
        <ele>309.2</ele>
        <time>2020-10-24T14:52:01Z</time>
      </trkpt>
      <trkpt lat="44.47997" lon="1.67695">
        <ele>308.72</ele>
        <time>2020-10-24T14:52:26Z</time>
      </trkpt>
      <trkpt lat="44.48002" lon="1.677">
        <ele>307.28</ele>
        <time>2020-10-24T14:52:32Z</time>
      </trkpt>
      <trkpt lat="44.48004" lon="1.67698">
        <ele>307.28</ele>
        <time>2020-10-24T14:52:35Z</time>
      </trkpt>
      <trkpt lat="44.48008" lon="1.67689">
        <ele>307.28</ele>
        <time>2020-10-24T14:52:48Z</time>
      </trkpt>
      <trkpt lat="44.48012" lon="1.67677">
        <ele>307.76</ele>
        <time>2020-10-24T14:53:03Z</time>
      </trkpt>
      <trkpt lat="44.48014" lon="1.67676">
        <ele>307.28</ele>
        <time>2020-10-24T14:53:05Z</time>
      </trkpt>
      <trkpt lat="44.48018" lon="1.67674">
        <ele>307.76</ele>
        <time>2020-10-24T14:53:10Z</time>
      </trkpt>
      <trkpt lat="44.48026" lon="1.67668">
        <ele>308.24</ele>
        <time>2020-10-24T14:53:23Z</time>
      </trkpt>
      <trkpt lat="44.48021" lon="1.67673">
        <ele>308.72</ele>
        <time>2020-10-24T14:53:41Z</time>
      </trkpt>
      <trkpt lat="44.48037" lon="1.67661">
        <ele>309.2</ele>
        <time>2020-10-24T14:53:58Z</time>
      </trkpt>
      <trkpt lat="44.48043" lon="1.67656">
        <ele>309.2</ele>
        <time>2020-10-24T14:54:06Z</time>
      </trkpt>
      <trkpt lat="44.48045" lon="1.67654">
        <ele>308.72</ele>
        <time>2020-10-24T14:54:09Z</time>
      </trkpt>
      <trkpt lat="44.48055" lon="1.67645">
        <ele>309.68</ele>
        <time>2020-10-24T14:54:21Z</time>
      </trkpt>
      <trkpt lat="44.48056" lon="1.67643">
        <ele>309.2</ele>
        <time>2020-10-24T14:54:23Z</time>
      </trkpt>
      <trkpt lat="44.48057" lon="1.67643">
        <ele>309.2</ele>
        <time>2020-10-24T14:54:24Z</time>
      </trkpt>
      <trkpt lat="44.48064" lon="1.67632">
        <ele>309.2</ele>
        <time>2020-10-24T14:54:34Z</time>
      </trkpt>
      <trkpt lat="44.48069" lon="1.67625">
        <ele>309.68</ele>
        <time>2020-10-24T14:54:41Z</time>
      </trkpt>
      <trkpt lat="44.48069" lon="1.67623">
        <ele>309.68</ele>
        <time>2020-10-24T14:54:42Z</time>
      </trkpt>
      <trkpt lat="44.48073" lon="1.67618">
        <ele>309.68</ele>
        <time>2020-10-24T14:54:46Z</time>
      </trkpt>
      <trkpt lat="44.48074" lon="1.67617">
        <ele>309.68</ele>
        <time>2020-10-24T14:54:47Z</time>
      </trkpt>
      <trkpt lat="44.48075" lon="1.67615">
        <ele>309.68</ele>
        <time>2020-10-24T14:54:48Z</time>
      </trkpt>
      <trkpt lat="44.48077" lon="1.67611">
        <ele>309.68</ele>
        <time>2020-10-24T14:54:51Z</time>
      </trkpt>
      <trkpt lat="44.48082" lon="1.67597">
        <ele>309.68</ele>
        <time>2020-10-24T14:55:04Z</time>
      </trkpt>
      <trkpt lat="44.48082" lon="1.67595">
        <ele>309.68</ele>
        <time>2020-10-24T14:55:06Z</time>
      </trkpt>
      <trkpt lat="44.48083" lon="1.67593">
        <ele>309.68</ele>
        <time>2020-10-24T14:55:07Z</time>
      </trkpt>
      <trkpt lat="44.48086" lon="1.67587">
        <ele>310.16</ele>
        <time>2020-10-24T14:55:12Z</time>
      </trkpt>
      <trkpt lat="44.48097" lon="1.67567">
        <ele>309.68</ele>
        <time>2020-10-24T14:55:25Z</time>
      </trkpt>
      <trkpt lat="44.48104" lon="1.67547">
        <ele>309.68</ele>
        <time>2020-10-24T14:55:39Z</time>
      </trkpt>
      <trkpt lat="44.48105" lon="1.67537">
        <ele>309.2</ele>
        <time>2020-10-24T14:55:46Z</time>
      </trkpt>
      <trkpt lat="44.48105" lon="1.67535">
        <ele>309.2</ele>
        <time>2020-10-24T14:55:47Z</time>
      </trkpt>
      <trkpt lat="44.48106" lon="1.67528">
        <ele>308.72</ele>
        <time>2020-10-24T14:55:52Z</time>
      </trkpt>
      <trkpt lat="44.48106" lon="1.67525">
        <ele>309.2</ele>
        <time>2020-10-24T14:55:53Z</time>
      </trkpt>
      <trkpt lat="44.48107" lon="1.67523">
        <ele>309.2</ele>
        <time>2020-10-24T14:55:54Z</time>
      </trkpt>
      <trkpt lat="44.48108" lon="1.67513">
        <ele>309.2</ele>
        <time>2020-10-24T14:56:01Z</time>
      </trkpt>
      <trkpt lat="44.48108" lon="1.67503">
        <ele>308.72</ele>
        <time>2020-10-24T14:56:07Z</time>
      </trkpt>
      <trkpt lat="44.48108" lon="1.67501">
        <ele>308.72</ele>
        <time>2020-10-24T14:56:08Z</time>
      </trkpt>
      <trkpt lat="44.48108" lon="1.67498">
        <ele>308.72</ele>
        <time>2020-10-24T14:56:09Z</time>
      </trkpt>
      <trkpt lat="44.48109" lon="1.67495">
        <ele>308.24</ele>
        <time>2020-10-24T14:56:10Z</time>
      </trkpt>
      <trkpt lat="44.48109" lon="1.67493">
        <ele>308.24</ele>
        <time>2020-10-24T14:56:11Z</time>
      </trkpt>
      <trkpt lat="44.48108" lon="1.67489">
        <ele>308.72</ele>
        <time>2020-10-24T14:56:15Z</time>
      </trkpt>
      <trkpt lat="44.48108" lon="1.67487">
        <ele>308.72</ele>
        <time>2020-10-24T14:56:16Z</time>
      </trkpt>
      <trkpt lat="44.48112" lon="1.67475">
        <ele>308.24</ele>
        <time>2020-10-24T14:56:25Z</time>
      </trkpt>
      <trkpt lat="44.4812" lon="1.67466">
        <ele>308.24</ele>
        <time>2020-10-24T14:56:36Z</time>
      </trkpt>
      <trkpt lat="44.48133" lon="1.67461">
        <ele>306.8</ele>
        <time>2020-10-24T14:56:51Z</time>
      </trkpt>
      <trkpt lat="44.48149" lon="1.67458">
        <ele>305.36</ele>
        <time>2020-10-24T14:57:05Z</time>
      </trkpt>
      <trkpt lat="44.48162" lon="1.67453">
        <ele>304.39</ele>
        <time>2020-10-24T14:57:15Z</time>
      </trkpt>
      <trkpt lat="44.48177" lon="1.67453">
        <ele>303.91</ele>
        <time>2020-10-24T14:57:26Z</time>
      </trkpt>
      <trkpt lat="44.48183" lon="1.67452">
        <ele>303.91</ele>
        <time>2020-10-24T14:57:34Z</time>
      </trkpt>
      <trkpt lat="44.48187" lon="1.67451">
        <ele>303.43</ele>
        <time>2020-10-24T14:57:38Z</time>
      </trkpt>
      <trkpt lat="44.48191" lon="1.67451">
        <ele>303.43</ele>
        <time>2020-10-24T14:57:41Z</time>
      </trkpt>
      <trkpt lat="44.48197" lon="1.6745">
        <ele>302.95</ele>
        <time>2020-10-24T14:57:52Z</time>
      </trkpt>
      <trkpt lat="44.48201" lon="1.67447">
        <ele>302.47</ele>
        <time>2020-10-24T14:58:02Z</time>
      </trkpt>
      <trkpt lat="44.48206" lon="1.67441">
        <ele>302.47</ele>
        <time>2020-10-24T14:58:14Z</time>
      </trkpt>
      <trkpt lat="44.48212" lon="1.67438">
        <ele>302.95</ele>
        <time>2020-10-24T14:58:19Z</time>
      </trkpt>
      <trkpt lat="44.48221" lon="1.67435">
        <ele>302.47</ele>
        <time>2020-10-24T14:58:30Z</time>
      </trkpt>
      <trkpt lat="44.48229" lon="1.67421">
        <ele>301.99</ele>
        <time>2020-10-24T14:58:48Z</time>
      </trkpt>
      <trkpt lat="44.48228" lon="1.67416">
        <ele>302.47</ele>
        <time>2020-10-24T14:59:13Z</time>
      </trkpt>
      <trkpt lat="44.48236" lon="1.67419">
        <ele>301.99</ele>
        <time>2020-10-24T14:59:46Z</time>
      </trkpt>
      <trkpt lat="44.48231" lon="1.67417">
        <ele>302.47</ele>
        <time>2020-10-24T15:00:19Z</time>
      </trkpt>
      <trkpt lat="44.48233" lon="1.67423">
        <ele>301.99</ele>
        <time>2020-10-24T15:00:48Z</time>
      </trkpt>
      <trkpt lat="44.4823" lon="1.67425">
        <ele>302.95</ele>
        <time>2020-10-24T15:01:10Z</time>
      </trkpt>
      <trkpt lat="44.48233" lon="1.6742">
        <ele>303.43</ele>
        <time>2020-10-24T15:01:25Z</time>
      </trkpt>
      <trkpt lat="44.48231" lon="1.67421">
        <ele>302.95</ele>
        <time>2020-10-24T15:01:39Z</time>
      </trkpt>
      <trkpt lat="44.4823" lon="1.67418">
        <ele>302.95</ele>
        <time>2020-10-24T15:01:51Z</time>
      </trkpt>
      <trkpt lat="44.48228" lon="1.67421">
        <ele>302.95</ele>
        <time>2020-10-24T15:02:05Z</time>
      </trkpt>
      <trkpt lat="44.48234" lon="1.6742">
        <ele>302.95</ele>
        <time>2020-10-24T15:02:21Z</time>
      </trkpt>
      <trkpt lat="44.48235" lon="1.67418">
        <ele>302.95</ele>
        <time>2020-10-24T15:02:23Z</time>
      </trkpt>
      <trkpt lat="44.48237" lon="1.67417">
        <ele>302.95</ele>
        <time>2020-10-24T15:02:25Z</time>
      </trkpt>
      <trkpt lat="44.48238" lon="1.67416">
        <ele>302.95</ele>
        <time>2020-10-24T15:02:26Z</time>
      </trkpt>
      <trkpt lat="44.48253" lon="1.67404">
        <ele>302.47</ele>
        <time>2020-10-24T15:02:43Z</time>
      </trkpt>
      <trkpt lat="44.48278" lon="1.67396">
        <ele>302.47</ele>
        <time>2020-10-24T15:03:01Z</time>
      </trkpt>
      <trkpt lat="44.48297" lon="1.67382">
        <ele>302.95</ele>
        <time>2020-10-24T15:03:18Z</time>
      </trkpt>
      <trkpt lat="44.48318" lon="1.67371">
        <ele>303.43</ele>
        <time>2020-10-24T15:03:37Z</time>
      </trkpt>
      <trkpt lat="44.48341" lon="1.67363">
        <ele>303.91</ele>
        <time>2020-10-24T15:03:56Z</time>
      </trkpt>
      <trkpt lat="44.48356" lon="1.67355">
        <ele>305.84</ele>
        <time>2020-10-24T15:04:12Z</time>
      </trkpt>
      <trkpt lat="44.48371" lon="1.67351">
        <ele>307.28</ele>
        <time>2020-10-24T15:04:26Z</time>
      </trkpt>
      <trkpt lat="44.48384" lon="1.67345">
        <ele>308.72</ele>
        <time>2020-10-24T15:04:37Z</time>
      </trkpt>
      <trkpt lat="44.48387" lon="1.67344">
        <ele>309.2</ele>
        <time>2020-10-24T15:04:39Z</time>
      </trkpt>
      <trkpt lat="44.484" lon="1.67335">
        <ele>310.16</ele>
        <time>2020-10-24T15:04:53Z</time>
      </trkpt>
      <trkpt lat="44.48417" lon="1.6733">
        <ele>311.6</ele>
        <time>2020-10-24T15:05:08Z</time>
      </trkpt>
      <trkpt lat="44.48442" lon="1.67325">
        <ele>313.53</ele>
        <time>2020-10-24T15:05:27Z</time>
      </trkpt>
      <trkpt lat="44.48443" lon="1.67325">
        <ele>313.53</ele>
        <time>2020-10-24T15:05:28Z</time>
      </trkpt>
      <trkpt lat="44.48444" lon="1.67324">
        <ele>313.53</ele>
        <time>2020-10-24T15:05:29Z</time>
      </trkpt>
      <trkpt lat="44.4846" lon="1.67315">
        <ele>314.97</ele>
        <time>2020-10-24T15:05:42Z</time>
      </trkpt>
      <trkpt lat="44.48475" lon="1.67311">
        <ele>316.89</ele>
        <time>2020-10-24T15:05:58Z</time>
      </trkpt>
      <trkpt lat="44.48491" lon="1.67305">
        <ele>316.89</ele>
        <time>2020-10-24T15:06:12Z</time>
      </trkpt>
      <trkpt lat="44.4851" lon="1.67299">
        <ele>318.33</ele>
        <time>2020-10-24T15:06:28Z</time>
      </trkpt>
      <trkpt lat="44.48512" lon="1.67299">
        <ele>318.33</ele>
        <time>2020-10-24T15:06:30Z</time>
      </trkpt>
      <trkpt lat="44.48513" lon="1.67299">
        <ele>318.33</ele>
        <time>2020-10-24T15:06:31Z</time>
      </trkpt>
      <trkpt lat="44.48514" lon="1.67299">
        <ele>318.33</ele>
        <time>2020-10-24T15:06:32Z</time>
      </trkpt>
      <trkpt lat="44.4853" lon="1.67303">
        <ele>318.33</ele>
        <time>2020-10-24T15:06:47Z</time>
      </trkpt>
      <trkpt lat="44.48545" lon="1.67313">
        <ele>319.3</ele>
        <time>2020-10-24T15:07:02Z</time>
      </trkpt>
      <trkpt lat="44.48565" lon="1.67324">
        <ele>320.26</ele>
        <time>2020-10-24T15:07:18Z</time>
      </trkpt>
      <trkpt lat="44.4858" lon="1.67332">
        <ele>320.74</ele>
        <time>2020-10-24T15:07:31Z</time>
      </trkpt>
      <trkpt lat="44.486" lon="1.6734">
        <ele>321.7</ele>
        <time>2020-10-24T15:07:48Z</time>
      </trkpt>
      <trkpt lat="44.48622" lon="1.67348">
        <ele>322.18</ele>
        <time>2020-10-24T15:08:03Z</time>
      </trkpt>
      <trkpt lat="44.48627" lon="1.67351">
        <ele>322.66</ele>
        <time>2020-10-24T15:08:09Z</time>
      </trkpt>
      <trkpt lat="44.48629" lon="1.67351">
        <ele>322.66</ele>
        <time>2020-10-24T15:08:10Z</time>
      </trkpt>
      <trkpt lat="44.48651" lon="1.67362">
        <ele>323.14</ele>
        <time>2020-10-24T15:08:26Z</time>
      </trkpt>
      <trkpt lat="44.48655" lon="1.67364">
        <ele>323.14</ele>
        <time>2020-10-24T15:08:31Z</time>
      </trkpt>
      <trkpt lat="44.48656" lon="1.67365">
        <ele>323.62</ele>
        <time>2020-10-24T15:08:32Z</time>
      </trkpt>
      <trkpt lat="44.48657" lon="1.67366">
        <ele>323.14</ele>
        <time>2020-10-24T15:08:33Z</time>
      </trkpt>
      <trkpt lat="44.48669" lon="1.67372">
        <ele>324.58</ele>
        <time>2020-10-24T15:08:43Z</time>
      </trkpt>
      <trkpt lat="44.48669" lon="1.67373">
        <ele>324.1</ele>
        <time>2020-10-24T15:08:44Z</time>
      </trkpt>
      <trkpt lat="44.48686" lon="1.67378">
        <ele>325.54</ele>
        <time>2020-10-24T15:08:58Z</time>
      </trkpt>
      <trkpt lat="44.48705" lon="1.67374">
        <ele>325.54</ele>
        <time>2020-10-24T15:09:13Z</time>
      </trkpt>
      <trkpt lat="44.48713" lon="1.6737">
        <ele>325.54</ele>
        <time>2020-10-24T15:09:20Z</time>
      </trkpt>
      <trkpt lat="44.48719" lon="1.67368">
        <ele>325.54</ele>
        <time>2020-10-24T15:09:25Z</time>
      </trkpt>
      <trkpt lat="44.4872" lon="1.67367">
        <ele>325.54</ele>
        <time>2020-10-24T15:09:26Z</time>
      </trkpt>
      <trkpt lat="44.48737" lon="1.67361">
        <ele>325.54</ele>
        <time>2020-10-24T15:09:40Z</time>
      </trkpt>
      <trkpt lat="44.48756" lon="1.67357">
        <ele>325.06</ele>
        <time>2020-10-24T15:09:57Z</time>
      </trkpt>
      <trkpt lat="44.48774" lon="1.67347">
        <ele>325.06</ele>
        <time>2020-10-24T15:10:12Z</time>
      </trkpt>
      <trkpt lat="44.48787" lon="1.67342">
        <ele>324.1</ele>
        <time>2020-10-24T15:10:22Z</time>
      </trkpt>
      <trkpt lat="44.4879" lon="1.67339">
        <ele>323.62</ele>
        <time>2020-10-24T15:10:24Z</time>
      </trkpt>
      <trkpt lat="44.48791" lon="1.67338">
        <ele>324.58</ele>
        <time>2020-10-24T15:10:25Z</time>
      </trkpt>
      <trkpt lat="44.48812" lon="1.67324">
        <ele>323.62</ele>
        <time>2020-10-24T15:10:41Z</time>
      </trkpt>
      <trkpt lat="44.48829" lon="1.67311">
        <ele>322.18</ele>
        <time>2020-10-24T15:10:56Z</time>
      </trkpt>
      <trkpt lat="44.48835" lon="1.67307">
        <ele>321.7</ele>
        <time>2020-10-24T15:11:04Z</time>
      </trkpt>
      <trkpt lat="44.48839" lon="1.67305">
        <ele>321.22</ele>
        <time>2020-10-24T15:11:07Z</time>
      </trkpt>
      <trkpt lat="44.48856" lon="1.67294">
        <ele>320.74</ele>
        <time>2020-10-24T15:11:20Z</time>
      </trkpt>
      <trkpt lat="44.48857" lon="1.67293">
        <ele>320.26</ele>
        <time>2020-10-24T15:11:21Z</time>
      </trkpt>
      <trkpt lat="44.48872" lon="1.67281">
        <ele>319.3</ele>
        <time>2020-10-24T15:11:34Z</time>
      </trkpt>
      <trkpt lat="44.48886" lon="1.67273">
        <ele>316.89</ele>
        <time>2020-10-24T15:11:47Z</time>
      </trkpt>
      <trkpt lat="44.489" lon="1.67253">
        <ele>314.97</ele>
        <time>2020-10-24T15:11:57Z</time>
      </trkpt>
      <trkpt lat="44.48905" lon="1.67241">
        <ele>313.53</ele>
        <time>2020-10-24T15:12:12Z</time>
      </trkpt>
      <trkpt lat="44.48911" lon="1.67233">
        <ele>312.09</ele>
        <time>2020-10-24T15:12:32Z</time>
      </trkpt>
      <trkpt lat="44.48923" lon="1.67226">
        <ele>311.6</ele>
        <time>2020-10-24T15:12:48Z</time>
      </trkpt>
      <trkpt lat="44.48916" lon="1.67224">
        <ele>311.6</ele>
        <time>2020-10-24T15:13:17Z</time>
      </trkpt>
      <trkpt lat="44.4892" lon="1.67224">
        <ele>311.12</ele>
        <time>2020-10-24T15:13:43Z</time>
      </trkpt>
      <trkpt lat="44.48918" lon="1.67221">
        <ele>311.6</ele>
        <time>2020-10-24T15:14:13Z</time>
      </trkpt>
      <trkpt lat="44.48928" lon="1.67223">
        <ele>310.16</ele>
        <time>2020-10-24T15:14:39Z</time>
      </trkpt>
      <trkpt lat="44.48938" lon="1.67212">
        <ele>308.24</ele>
        <time>2020-10-24T15:14:58Z</time>
      </trkpt>
      <trkpt lat="44.48943" lon="1.67206">
        <ele>307.28</ele>
        <time>2020-10-24T15:15:07Z</time>
      </trkpt>
      <trkpt lat="44.48944" lon="1.67204">
        <ele>307.28</ele>
        <time>2020-10-24T15:15:08Z</time>
      </trkpt>
      <trkpt lat="44.48955" lon="1.67187">
        <ele>305.36</ele>
        <time>2020-10-24T15:15:23Z</time>
      </trkpt>
      <trkpt lat="44.48955" lon="1.67167">
        <ele>303.43</ele>
        <time>2020-10-24T15:15:36Z</time>
      </trkpt>
      <trkpt lat="44.48948" lon="1.67155">
        <ele>301.99</ele>
        <time>2020-10-24T15:15:49Z</time>
      </trkpt>
      <trkpt lat="44.48936" lon="1.67146">
        <ele>300.55</ele>
        <time>2020-10-24T15:16:04Z</time>
      </trkpt>
      <trkpt lat="44.4892" lon="1.67135">
        <ele>299.11</ele>
        <time>2020-10-24T15:16:18Z</time>
      </trkpt>
      <trkpt lat="44.48921" lon="1.67133">
        <ele>299.11</ele>
        <time>2020-10-24T15:16:20Z</time>
      </trkpt>
      <trkpt lat="44.48921" lon="1.6713">
        <ele>299.11</ele>
        <time>2020-10-24T15:16:22Z</time>
      </trkpt>
      <trkpt lat="44.48921" lon="1.67129">
        <ele>299.11</ele>
        <time>2020-10-24T15:16:23Z</time>
      </trkpt>
      <trkpt lat="44.48921" lon="1.67127">
        <ele>298.63</ele>
        <time>2020-10-24T15:16:24Z</time>
      </trkpt>
      <trkpt lat="44.48922" lon="1.67125">
        <ele>298.15</ele>
        <time>2020-10-24T15:16:25Z</time>
      </trkpt>
      <trkpt lat="44.48922" lon="1.67123">
        <ele>297.67</ele>
        <time>2020-10-24T15:16:26Z</time>
      </trkpt>
      <trkpt lat="44.48923" lon="1.67121">
        <ele>297.67</ele>
        <time>2020-10-24T15:16:27Z</time>
      </trkpt>
      <trkpt lat="44.48923" lon="1.6712">
        <ele>297.67</ele>
        <time>2020-10-24T15:16:28Z</time>
      </trkpt>
      <trkpt lat="44.48925" lon="1.67114">
        <ele>296.22</ele>
        <time>2020-10-24T15:16:34Z</time>
      </trkpt>
      <trkpt lat="44.48933" lon="1.67103">
        <ele>294.78</ele>
        <time>2020-10-24T15:16:47Z</time>
      </trkpt>
      <trkpt lat="44.48939" lon="1.67096">
        <ele>292.38</ele>
        <time>2020-10-24T15:16:57Z</time>
      </trkpt>
      <trkpt lat="44.4895" lon="1.67076">
        <ele>290.46</ele>
        <time>2020-10-24T15:17:10Z</time>
      </trkpt>
      <trkpt lat="44.48951" lon="1.67075">
        <ele>290.46</ele>
        <time>2020-10-24T15:17:12Z</time>
      </trkpt>
      <trkpt lat="44.48958" lon="1.67066">
        <ele>289.01</ele>
        <time>2020-10-24T15:17:25Z</time>
      </trkpt>
      <trkpt lat="44.4897" lon="1.67059">
        <ele>287.57</ele>
        <time>2020-10-24T15:17:38Z</time>
      </trkpt>
      <trkpt lat="44.48979" lon="1.67059">
        <ele>286.61</ele>
        <time>2020-10-24T15:17:45Z</time>
      </trkpt>
      <trkpt lat="44.48982" lon="1.67059">
        <ele>286.13</ele>
        <time>2020-10-24T15:17:47Z</time>
      </trkpt>
      <trkpt lat="44.48996" lon="1.67058">
        <ele>284.21</ele>
        <time>2020-10-24T15:17:59Z</time>
      </trkpt>
      <trkpt lat="44.49009" lon="1.67066">
        <ele>283.25</ele>
        <time>2020-10-24T15:18:08Z</time>
      </trkpt>
      <trkpt lat="44.4902" lon="1.67074">
        <ele>281.8</ele>
        <time>2020-10-24T15:18:18Z</time>
      </trkpt>
      <trkpt lat="44.49033" lon="1.67088">
        <ele>282.77</ele>
        <time>2020-10-24T15:18:31Z</time>
      </trkpt>
      <trkpt lat="44.49034" lon="1.67089">
        <ele>282.77</ele>
        <time>2020-10-24T15:18:32Z</time>
      </trkpt>
      <trkpt lat="44.49035" lon="1.6709">
        <ele>282.77</ele>
        <time>2020-10-24T15:18:33Z</time>
      </trkpt>
      <trkpt lat="44.49035" lon="1.67092">
        <ele>282.77</ele>
        <time>2020-10-24T15:18:34Z</time>
      </trkpt>
      <trkpt lat="44.49036" lon="1.67094">
        <ele>282.77</ele>
        <time>2020-10-24T15:18:35Z</time>
      </trkpt>
      <trkpt lat="44.49036" lon="1.67095">
        <ele>283.25</ele>
        <time>2020-10-24T15:18:36Z</time>
      </trkpt>
      <trkpt lat="44.49037" lon="1.67097">
        <ele>282.77</ele>
        <time>2020-10-24T15:18:37Z</time>
      </trkpt>
      <trkpt lat="44.49041" lon="1.67108">
        <ele>283.25</ele>
        <time>2020-10-24T15:18:46Z</time>
      </trkpt>
      <trkpt lat="44.49041" lon="1.67121">
        <ele>283.25</ele>
        <time>2020-10-24T15:18:54Z</time>
      </trkpt>
      <trkpt lat="44.49041" lon="1.67126">
        <ele>283.25</ele>
        <time>2020-10-24T15:18:57Z</time>
      </trkpt>
      <trkpt lat="44.49041" lon="1.67128">
        <ele>283.25</ele>
        <time>2020-10-24T15:18:58Z</time>
      </trkpt>
      <trkpt lat="44.49041" lon="1.6713">
        <ele>283.25</ele>
        <time>2020-10-24T15:18:59Z</time>
      </trkpt>
      <trkpt lat="44.49041" lon="1.67145">
        <ele>283.25</ele>
        <time>2020-10-24T15:19:08Z</time>
      </trkpt>
      <trkpt lat="44.49044" lon="1.67166">
        <ele>282.77</ele>
        <time>2020-10-24T15:19:22Z</time>
      </trkpt>
      <trkpt lat="44.49044" lon="1.67174">
        <ele>283.25</ele>
        <time>2020-10-24T15:19:27Z</time>
      </trkpt>
      <trkpt lat="44.49045" lon="1.67181">
        <ele>283.25</ele>
        <time>2020-10-24T15:19:31Z</time>
      </trkpt>
      <trkpt lat="44.49046" lon="1.67183">
        <ele>283.73</ele>
        <time>2020-10-24T15:19:32Z</time>
      </trkpt>
      <trkpt lat="44.49054" lon="1.67195">
        <ele>284.69</ele>
        <time>2020-10-24T15:19:44Z</time>
      </trkpt>
      <trkpt lat="44.49058" lon="1.67198">
        <ele>284.69</ele>
        <time>2020-10-24T15:19:48Z</time>
      </trkpt>
      <trkpt lat="44.4906" lon="1.67199">
        <ele>284.69</ele>
        <time>2020-10-24T15:19:49Z</time>
      </trkpt>
      <trkpt lat="44.49072" lon="1.67208">
        <ele>285.65</ele>
        <time>2020-10-24T15:20:03Z</time>
      </trkpt>
      <trkpt lat="44.49077" lon="1.67213">
        <ele>286.13</ele>
        <time>2020-10-24T15:20:09Z</time>
      </trkpt>
      <trkpt lat="44.4909" lon="1.67222">
        <ele>287.09</ele>
        <time>2020-10-24T15:20:21Z</time>
      </trkpt>
      <trkpt lat="44.49105" lon="1.67235">
        <ele>287.57</ele>
        <time>2020-10-24T15:20:36Z</time>
      </trkpt>
      <trkpt lat="44.49112" lon="1.67242">
        <ele>289.01</ele>
        <time>2020-10-24T15:20:50Z</time>
      </trkpt>
      <trkpt lat="44.49114" lon="1.67244">
        <ele>288.05</ele>
        <time>2020-10-24T15:20:58Z</time>
      </trkpt>
      <trkpt lat="44.49116" lon="1.67245">
        <ele>287.57</ele>
        <time>2020-10-24T15:20:59Z</time>
      </trkpt>
      <trkpt lat="44.49117" lon="1.67246">
        <ele>287.57</ele>
        <time>2020-10-24T15:21:00Z</time>
      </trkpt>
      <trkpt lat="44.49136" lon="1.67261">
        <ele>287.57</ele>
        <time>2020-10-24T15:21:15Z</time>
      </trkpt>
      <trkpt lat="44.49145" lon="1.67278">
        <ele>288.05</ele>
        <time>2020-10-24T15:21:27Z</time>
      </trkpt>
      <trkpt lat="44.49144" lon="1.67303">
        <ele>289.01</ele>
        <time>2020-10-24T15:21:43Z</time>
      </trkpt>
      <trkpt lat="44.49142" lon="1.67333">
        <ele>289.97</ele>
        <time>2020-10-24T15:22:00Z</time>
      </trkpt>
      <trkpt lat="44.49135" lon="1.67353">
        <ele>289.49</ele>
        <time>2020-10-24T15:22:12Z</time>
      </trkpt>
      <trkpt lat="44.49128" lon="1.67374">
        <ele>289.49</ele>
        <time>2020-10-24T15:22:25Z</time>
      </trkpt>
      <trkpt lat="44.49118" lon="1.67395">
        <ele>289.49</ele>
        <time>2020-10-24T15:22:42Z</time>
      </trkpt>
      <trkpt lat="44.49118" lon="1.67398">
        <ele>289.49</ele>
        <time>2020-10-24T15:22:44Z</time>
      </trkpt>
      <trkpt lat="44.49117" lon="1.67399">
        <ele>289.49</ele>
        <time>2020-10-24T15:22:45Z</time>
      </trkpt>
      <trkpt lat="44.49116" lon="1.67413">
        <ele>289.97</ele>
        <time>2020-10-24T15:22:54Z</time>
      </trkpt>
      <trkpt lat="44.49124" lon="1.67438">
        <ele>290.94</ele>
        <time>2020-10-24T15:23:09Z</time>
      </trkpt>
      <trkpt lat="44.49126" lon="1.67458">
        <ele>291.42</ele>
        <time>2020-10-24T15:23:22Z</time>
      </trkpt>
      <trkpt lat="44.49134" lon="1.67481">
        <ele>290.46</ele>
        <time>2020-10-24T15:23:37Z</time>
      </trkpt>
      <trkpt lat="44.49135" lon="1.67483">
        <ele>290.46</ele>
        <time>2020-10-24T15:23:38Z</time>
      </trkpt>
      <trkpt lat="44.49142" lon="1.67504">
        <ele>289.01</ele>
        <time>2020-10-24T15:23:51Z</time>
      </trkpt>
      <trkpt lat="44.49143" lon="1.67508">
        <ele>288.53</ele>
        <time>2020-10-24T15:23:53Z</time>
      </trkpt>
      <trkpt lat="44.49143" lon="1.67511">
        <ele>288.53</ele>
        <time>2020-10-24T15:23:54Z</time>
      </trkpt>
      <trkpt lat="44.49144" lon="1.67514">
        <ele>288.53</ele>
        <time>2020-10-24T15:23:55Z</time>
      </trkpt>
      <trkpt lat="44.49144" lon="1.67516">
        <ele>288.05</ele>
        <time>2020-10-24T15:23:56Z</time>
      </trkpt>
      <trkpt lat="44.49145" lon="1.67518">
        <ele>288.05</ele>
        <time>2020-10-24T15:23:57Z</time>
      </trkpt>
      <trkpt lat="44.49145" lon="1.6752">
        <ele>288.05</ele>
        <time>2020-10-24T15:23:58Z</time>
      </trkpt>
      <trkpt lat="44.49145" lon="1.67522">
        <ele>287.57</ele>
        <time>2020-10-24T15:23:59Z</time>
      </trkpt>
      <trkpt lat="44.49145" lon="1.67524">
        <ele>287.57</ele>
        <time>2020-10-24T15:24:00Z</time>
      </trkpt>
      <trkpt lat="44.49144" lon="1.67531">
        <ele>287.57</ele>
        <time>2020-10-24T15:24:05Z</time>
      </trkpt>
      <trkpt lat="44.49144" lon="1.67533">
        <ele>287.09</ele>
        <time>2020-10-24T15:24:06Z</time>
      </trkpt>
      <trkpt lat="44.49137" lon="1.67552">
        <ele>286.13</ele>
        <time>2020-10-24T15:24:18Z</time>
      </trkpt>
      <trkpt lat="44.49136" lon="1.67558">
        <ele>286.13</ele>
        <time>2020-10-24T15:24:21Z</time>
      </trkpt>
      <trkpt lat="44.49136" lon="1.67572">
        <ele>285.65</ele>
        <time>2020-10-24T15:24:28Z</time>
      </trkpt>
      <trkpt lat="44.49134" lon="1.67577">
        <ele>285.17</ele>
        <time>2020-10-24T15:24:32Z</time>
      </trkpt>
      <trkpt lat="44.49134" lon="1.67582">
        <ele>284.69</ele>
        <time>2020-10-24T15:24:35Z</time>
      </trkpt>
      <trkpt lat="44.49136" lon="1.67583">
        <ele>284.69</ele>
        <time>2020-10-24T15:24:36Z</time>
      </trkpt>
      <trkpt lat="44.49137" lon="1.67585">
        <ele>284.21</ele>
        <time>2020-10-24T15:24:37Z</time>
      </trkpt>
      <trkpt lat="44.49138" lon="1.67586">
        <ele>284.21</ele>
        <time>2020-10-24T15:24:38Z</time>
      </trkpt>
      <trkpt lat="44.49139" lon="1.67586">
        <ele>283.73</ele>
        <time>2020-10-24T15:24:39Z</time>
      </trkpt>
      <trkpt lat="44.49147" lon="1.67581">
        <ele>280.36</ele>
        <time>2020-10-24T15:24:50Z</time>
      </trkpt>
      <trkpt lat="44.49156" lon="1.67576">
        <ele>277.96</ele>
        <time>2020-10-24T15:25:00Z</time>
      </trkpt>
      <trkpt lat="44.49176" lon="1.67561">
        <ele>276.04</ele>
        <time>2020-10-24T15:25:14Z</time>
      </trkpt>
      <trkpt lat="44.49188" lon="1.67552">
        <ele>273.15</ele>
        <time>2020-10-24T15:25:26Z</time>
      </trkpt>
      <trkpt lat="44.49204" lon="1.67541">
        <ele>270.75</ele>
        <time>2020-10-24T15:25:38Z</time>
      </trkpt>
      <trkpt lat="44.49217" lon="1.67534">
        <ele>267.86</ele>
        <time>2020-10-24T15:25:50Z</time>
      </trkpt>
      <trkpt lat="44.49218" lon="1.67533">
        <ele>267.86</ele>
        <time>2020-10-24T15:25:51Z</time>
      </trkpt>
      <trkpt lat="44.4922" lon="1.67532">
        <ele>266.9</ele>
        <time>2020-10-24T15:25:53Z</time>
      </trkpt>
      <trkpt lat="44.49222" lon="1.6753">
        <ele>266.9</ele>
        <time>2020-10-24T15:25:55Z</time>
      </trkpt>
      <trkpt lat="44.49238" lon="1.67517">
        <ele>264.5</ele>
        <time>2020-10-24T15:26:06Z</time>
      </trkpt>
      <trkpt lat="44.49252" lon="1.67511">
        <ele>262.1</ele>
        <time>2020-10-24T15:26:19Z</time>
      </trkpt>
      <trkpt lat="44.49253" lon="1.6751">
        <ele>261.62</ele>
        <time>2020-10-24T15:26:20Z</time>
      </trkpt>
      <trkpt lat="44.49255" lon="1.67509">
        <ele>261.62</ele>
        <time>2020-10-24T15:26:21Z</time>
      </trkpt>
      <trkpt lat="44.49271" lon="1.67498">
        <ele>260.17</ele>
        <time>2020-10-24T15:26:36Z</time>
      </trkpt>
      <trkpt lat="44.49287" lon="1.67487">
        <ele>257.77</ele>
        <time>2020-10-24T15:26:50Z</time>
      </trkpt>
      <trkpt lat="44.49291" lon="1.67485">
        <ele>257.29</ele>
        <time>2020-10-24T15:26:54Z</time>
      </trkpt>
      <trkpt lat="44.49292" lon="1.67485">
        <ele>257.29</ele>
        <time>2020-10-24T15:26:55Z</time>
      </trkpt>
      <trkpt lat="44.49293" lon="1.67485">
        <ele>257.29</ele>
        <time>2020-10-24T15:26:56Z</time>
      </trkpt>
      <trkpt lat="44.49306" lon="1.67479">
        <ele>255.85</ele>
        <time>2020-10-24T15:27:08Z</time>
      </trkpt>
      <trkpt lat="44.49326" lon="1.67479">
        <ele>253.93</ele>
        <time>2020-10-24T15:27:23Z</time>
      </trkpt>
      <trkpt lat="44.49346" lon="1.67481">
        <ele>252</ele>
        <time>2020-10-24T15:27:38Z</time>
      </trkpt>
      <trkpt lat="44.49361" lon="1.67482">
        <ele>250.56</ele>
        <time>2020-10-24T15:27:53Z</time>
      </trkpt>
      <trkpt lat="44.49362" lon="1.67483">
        <ele>250.56</ele>
        <time>2020-10-24T15:27:54Z</time>
      </trkpt>
      <trkpt lat="44.49382" lon="1.6748">
        <ele>249.12</ele>
        <time>2020-10-24T15:28:10Z</time>
      </trkpt>
      <trkpt lat="44.494" lon="1.67463">
        <ele>248.16</ele>
        <time>2020-10-24T15:28:25Z</time>
      </trkpt>
      <trkpt lat="44.49403" lon="1.67457">
        <ele>248.64</ele>
        <time>2020-10-24T15:28:29Z</time>
      </trkpt>
      <trkpt lat="44.49412" lon="1.67438">
        <ele>248.16</ele>
        <time>2020-10-24T15:28:43Z</time>
      </trkpt>
      <trkpt lat="44.49416" lon="1.67418">
        <ele>248.16</ele>
        <time>2020-10-24T15:28:55Z</time>
      </trkpt>
      <trkpt lat="44.49421" lon="1.67404">
        <ele>247.68</ele>
        <time>2020-10-24T15:29:06Z</time>
      </trkpt>
      <trkpt lat="44.49427" lon="1.67391">
        <ele>247.2</ele>
        <time>2020-10-24T15:29:19Z</time>
      </trkpt>
      <trkpt lat="44.49427" lon="1.67389">
        <ele>246.72</ele>
        <time>2020-10-24T15:29:20Z</time>
      </trkpt>
      <trkpt lat="44.49428" lon="1.67388">
        <ele>246.72</ele>
        <time>2020-10-24T15:29:21Z</time>
      </trkpt>
      <trkpt lat="44.49429" lon="1.67386">
        <ele>246.23</ele>
        <time>2020-10-24T15:29:22Z</time>
      </trkpt>
      <trkpt lat="44.4943" lon="1.67384">
        <ele>246.23</ele>
        <time>2020-10-24T15:29:23Z</time>
      </trkpt>
      <trkpt lat="44.49432" lon="1.67382">
        <ele>246.23</ele>
        <time>2020-10-24T15:29:24Z</time>
      </trkpt>
      <trkpt lat="44.49441" lon="1.67369">
        <ele>243.83</ele>
        <time>2020-10-24T15:29:35Z</time>
      </trkpt>
      <trkpt lat="44.49441" lon="1.67369">
        <ele>243.83</ele>
        <time>2020-10-24T15:29:36Z</time>
      </trkpt>
      <trkpt lat="44.49443" lon="1.67369">
        <ele>243.35</ele>
        <time>2020-10-24T15:29:38Z</time>
      </trkpt>
      <trkpt lat="44.49455" lon="1.67379">
        <ele>241.43</ele>
        <time>2020-10-24T15:29:47Z</time>
      </trkpt>
      <trkpt lat="44.49456" lon="1.6738">
        <ele>241.43</ele>
        <time>2020-10-24T15:29:48Z</time>
      </trkpt>
      <trkpt lat="44.49464" lon="1.67394">
        <ele>239.99</ele>
        <time>2020-10-24T15:29:59Z</time>
      </trkpt>
      <trkpt lat="44.49466" lon="1.67413">
        <ele>238.54</ele>
        <time>2020-10-24T15:30:10Z</time>
      </trkpt>
      <trkpt lat="44.49479" lon="1.6743">
        <ele>237.1</ele>
        <time>2020-10-24T15:30:24Z</time>
      </trkpt>
      <trkpt lat="44.4949" lon="1.67435">
        <ele>237.58</ele>
        <time>2020-10-24T15:30:37Z</time>
      </trkpt>
      <trkpt lat="44.49493" lon="1.67435">
        <ele>237.58</ele>
        <time>2020-10-24T15:30:58Z</time>
      </trkpt>
      <trkpt lat="44.49505" lon="1.67437">
        <ele>239.02</ele>
        <time>2020-10-24T15:31:12Z</time>
      </trkpt>
      <trkpt lat="44.49519" lon="1.67438">
        <ele>240.47</ele>
        <time>2020-10-24T15:31:26Z</time>
      </trkpt>
      <trkpt lat="44.49525" lon="1.67433">
        <ele>241.43</ele>
        <time>2020-10-24T15:31:36Z</time>
      </trkpt>
      <trkpt lat="44.49526" lon="1.67431">
        <ele>241.91</ele>
        <time>2020-10-24T15:31:37Z</time>
      </trkpt>
      <trkpt lat="44.49536" lon="1.67418">
        <ele>241.91</ele>
        <time>2020-10-24T15:31:48Z</time>
      </trkpt>
      <trkpt lat="44.49548" lon="1.67405">
        <ele>242.39</ele>
        <time>2020-10-24T15:32:01Z</time>
      </trkpt>
      <trkpt lat="44.49563" lon="1.6739">
        <ele>243.35</ele>
        <time>2020-10-24T15:32:16Z</time>
      </trkpt>
      <trkpt lat="44.49571" lon="1.67384">
        <ele>243.83</ele>
        <time>2020-10-24T15:32:30Z</time>
      </trkpt>
      <trkpt lat="44.49584" lon="1.67375">
        <ele>243.83</ele>
        <time>2020-10-24T15:32:44Z</time>
      </trkpt>
      <trkpt lat="44.49601" lon="1.67364">
        <ele>244.79</ele>
        <time>2020-10-24T15:32:59Z</time>
      </trkpt>
      <trkpt lat="44.49618" lon="1.67358">
        <ele>245.27</ele>
        <time>2020-10-24T15:33:13Z</time>
      </trkpt>
      <trkpt lat="44.49632" lon="1.67351">
        <ele>245.27</ele>
        <time>2020-10-24T15:33:25Z</time>
      </trkpt>
      <trkpt lat="44.49641" lon="1.67347">
        <ele>246.23</ele>
        <time>2020-10-24T15:33:31Z</time>
      </trkpt>
      <trkpt lat="44.49642" lon="1.67345">
        <ele>245.75</ele>
        <time>2020-10-24T15:33:32Z</time>
      </trkpt>
      <trkpt lat="44.4966" lon="1.67331">
        <ele>244.79</ele>
        <time>2020-10-24T15:33:50Z</time>
      </trkpt>
      <trkpt lat="44.49665" lon="1.67324">
        <ele>244.79</ele>
        <time>2020-10-24T15:33:56Z</time>
      </trkpt>
      <trkpt lat="44.49673" lon="1.67299">
        <ele>244.79</ele>
        <time>2020-10-24T15:34:13Z</time>
      </trkpt>
      <trkpt lat="44.49675" lon="1.67265">
        <ele>247.68</ele>
        <time>2020-10-24T15:34:35Z</time>
      </trkpt>
      <trkpt lat="44.49675" lon="1.67242">
        <ele>250.08</ele>
        <time>2020-10-24T15:34:51Z</time>
      </trkpt>
      <trkpt lat="44.49672" lon="1.67212">
        <ele>252.48</ele>
        <time>2020-10-24T15:35:10Z</time>
      </trkpt>
      <trkpt lat="44.4967" lon="1.67195">
        <ele>254.41</ele>
        <time>2020-10-24T15:35:23Z</time>
      </trkpt>
      <trkpt lat="44.49669" lon="1.67193">
        <ele>254.41</ele>
        <time>2020-10-24T15:35:24Z</time>
      </trkpt>
      <trkpt lat="44.49667" lon="1.67186">
        <ele>255.85</ele>
        <time>2020-10-24T15:35:29Z</time>
      </trkpt>
      <trkpt lat="44.49667" lon="1.67165">
        <ele>257.29</ele>
        <time>2020-10-24T15:35:43Z</time>
      </trkpt>
      <trkpt lat="44.49667" lon="1.67163">
        <ele>257.77</ele>
        <time>2020-10-24T15:35:45Z</time>
      </trkpt>
      <trkpt lat="44.49667" lon="1.67159">
        <ele>257.77</ele>
        <time>2020-10-24T15:35:47Z</time>
      </trkpt>
      <trkpt lat="44.49669" lon="1.6714">
        <ele>260.17</ele>
        <time>2020-10-24T15:36:01Z</time>
      </trkpt>
      <trkpt lat="44.49668" lon="1.67121">
        <ele>261.14</ele>
        <time>2020-10-24T15:36:15Z</time>
      </trkpt>
      <trkpt lat="44.4966" lon="1.67097">
        <ele>264.02</ele>
        <time>2020-10-24T15:36:30Z</time>
      </trkpt>
      <trkpt lat="44.49653" lon="1.67074">
        <ele>264.98</ele>
        <time>2020-10-24T15:36:46Z</time>
      </trkpt>
      <trkpt lat="44.49645" lon="1.67053">
        <ele>266.42</ele>
        <time>2020-10-24T15:37:01Z</time>
      </trkpt>
      <trkpt lat="44.49644" lon="1.67047">
        <ele>267.38</ele>
        <time>2020-10-24T15:37:05Z</time>
      </trkpt>
      <trkpt lat="44.49643" lon="1.67045">
        <ele>267.38</ele>
        <time>2020-10-24T15:37:06Z</time>
      </trkpt>
      <trkpt lat="44.49643" lon="1.67043">
        <ele>267.38</ele>
        <time>2020-10-24T15:37:07Z</time>
      </trkpt>
      <trkpt lat="44.49635" lon="1.67017">
        <ele>269.31</ele>
        <time>2020-10-24T15:37:24Z</time>
      </trkpt>
      <trkpt lat="44.49629" lon="1.66991">
        <ele>271.23</ele>
        <time>2020-10-24T15:37:41Z</time>
      </trkpt>
      <trkpt lat="44.49625" lon="1.66977">
        <ele>273.15</ele>
        <time>2020-10-24T15:37:51Z</time>
      </trkpt>
      <trkpt lat="44.49624" lon="1.66975">
        <ele>273.15</ele>
        <time>2020-10-24T15:37:52Z</time>
      </trkpt>
      <trkpt lat="44.49627" lon="1.66952">
        <ele>275.56</ele>
        <time>2020-10-24T15:38:06Z</time>
      </trkpt>
      <trkpt lat="44.49638" lon="1.6694">
        <ele>277.48</ele>
        <time>2020-10-24T15:38:19Z</time>
      </trkpt>
      <trkpt lat="44.49653" lon="1.6693">
        <ele>279.88</ele>
        <time>2020-10-24T15:38:33Z</time>
      </trkpt>
      <trkpt lat="44.49655" lon="1.66929">
        <ele>280.36</ele>
        <time>2020-10-24T15:38:35Z</time>
      </trkpt>
      <trkpt lat="44.49656" lon="1.66928">
        <ele>280.84</ele>
        <time>2020-10-24T15:38:37Z</time>
      </trkpt>
      <trkpt lat="44.49658" lon="1.66926">
        <ele>280.84</ele>
        <time>2020-10-24T15:38:38Z</time>
      </trkpt>
      <trkpt lat="44.49659" lon="1.66925">
        <ele>280.84</ele>
        <time>2020-10-24T15:38:39Z</time>
      </trkpt>
      <trkpt lat="44.4966" lon="1.66924">
        <ele>280.84</ele>
        <time>2020-10-24T15:38:40Z</time>
      </trkpt>
      <trkpt lat="44.49661" lon="1.66924">
        <ele>281.32</ele>
        <time>2020-10-24T15:38:41Z</time>
      </trkpt>
      <trkpt lat="44.49662" lon="1.66923">
        <ele>281.32</ele>
        <time>2020-10-24T15:38:42Z</time>
      </trkpt>
      <trkpt lat="44.4968" lon="1.66913">
        <ele>284.21</ele>
        <time>2020-10-24T15:38:59Z</time>
      </trkpt>
      <trkpt lat="44.4969" lon="1.66906">
        <ele>286.13</ele>
        <time>2020-10-24T15:39:09Z</time>
      </trkpt>
      <trkpt lat="44.49691" lon="1.66904">
        <ele>285.65</ele>
        <time>2020-10-24T15:39:10Z</time>
      </trkpt>
      <trkpt lat="44.49704" lon="1.66895">
        <ele>287.57</ele>
        <time>2020-10-24T15:39:22Z</time>
      </trkpt>
      <trkpt lat="44.49717" lon="1.66886">
        <ele>289.97</ele>
        <time>2020-10-24T15:39:36Z</time>
      </trkpt>
      <trkpt lat="44.4973" lon="1.66874">
        <ele>291.9</ele>
        <time>2020-10-24T15:39:49Z</time>
      </trkpt>
      <trkpt lat="44.49738" lon="1.66866">
        <ele>293.34</ele>
        <time>2020-10-24T15:39:59Z</time>
      </trkpt>
      <trkpt lat="44.49747" lon="1.66851">
        <ele>294.78</ele>
        <time>2020-10-24T15:40:11Z</time>
      </trkpt>
      <trkpt lat="44.49764" lon="1.66836">
        <ele>296.7</ele>
        <time>2020-10-24T15:40:25Z</time>
      </trkpt>
      <trkpt lat="44.49772" lon="1.66829">
        <ele>297.18</ele>
        <time>2020-10-24T15:40:32Z</time>
      </trkpt>
      <trkpt lat="44.49785" lon="1.66808">
        <ele>298.63</ele>
        <time>2020-10-24T15:40:47Z</time>
      </trkpt>
      <trkpt lat="44.49793" lon="1.66784">
        <ele>298.15</ele>
        <time>2020-10-24T15:41:01Z</time>
      </trkpt>
      <trkpt lat="44.49801" lon="1.6676">
        <ele>298.63</ele>
        <time>2020-10-24T15:41:15Z</time>
      </trkpt>
      <trkpt lat="44.49807" lon="1.66752">
        <ele>298.15</ele>
        <time>2020-10-24T15:41:22Z</time>
      </trkpt>
      <trkpt lat="44.49808" lon="1.66751">
        <ele>298.63</ele>
        <time>2020-10-24T15:41:23Z</time>
      </trkpt>
      <trkpt lat="44.49821" lon="1.6673">
        <ele>298.63</ele>
        <time>2020-10-24T15:41:38Z</time>
      </trkpt>
      <trkpt lat="44.49835" lon="1.6671">
        <ele>299.11</ele>
        <time>2020-10-24T15:41:52Z</time>
      </trkpt>
      <trkpt lat="44.49839" lon="1.66705">
        <ele>299.11</ele>
        <time>2020-10-24T15:41:57Z</time>
      </trkpt>
      <trkpt lat="44.49853" lon="1.66684">
        <ele>299.59</ele>
        <time>2020-10-24T15:42:13Z</time>
      </trkpt>
      <trkpt lat="44.49854" lon="1.66682">
        <ele>299.11</ele>
        <time>2020-10-24T15:42:14Z</time>
      </trkpt>
      <trkpt lat="44.49855" lon="1.6668">
        <ele>299.59</ele>
        <time>2020-10-24T15:42:15Z</time>
      </trkpt>
      <trkpt lat="44.49856" lon="1.66678">
        <ele>299.59</ele>
        <time>2020-10-24T15:42:16Z</time>
      </trkpt>
      <trkpt lat="44.49857" lon="1.66676">
        <ele>299.59</ele>
        <time>2020-10-24T15:42:17Z</time>
      </trkpt>
      <trkpt lat="44.4987" lon="1.66655">
        <ele>299.59</ele>
        <time>2020-10-24T15:42:33Z</time>
      </trkpt>
      <trkpt lat="44.4988" lon="1.66636">
        <ele>299.11</ele>
        <time>2020-10-24T15:42:46Z</time>
      </trkpt>
      <trkpt lat="44.49888" lon="1.66614">
        <ele>298.63</ele>
        <time>2020-10-24T15:43:00Z</time>
      </trkpt>
      <trkpt lat="44.49897" lon="1.66592">
        <ele>298.15</ele>
        <time>2020-10-24T15:43:14Z</time>
      </trkpt>
      <trkpt lat="44.49908" lon="1.66571">
        <ele>296.7</ele>
        <time>2020-10-24T15:43:29Z</time>
      </trkpt>
      <trkpt lat="44.49923" lon="1.66551">
        <ele>295.26</ele>
        <time>2020-10-24T15:43:44Z</time>
      </trkpt>
      <trkpt lat="44.49936" lon="1.66531">
        <ele>293.82</ele>
        <time>2020-10-24T15:43:59Z</time>
      </trkpt>
      <trkpt lat="44.4994" lon="1.66518">
        <ele>292.38</ele>
        <time>2020-10-24T15:44:05Z</time>
      </trkpt>
      <trkpt lat="44.49946" lon="1.66504">
        <ele>290.46</ele>
        <time>2020-10-24T15:44:16Z</time>
      </trkpt>
      <trkpt lat="44.49946" lon="1.66502">
        <ele>289.97</ele>
        <time>2020-10-24T15:44:17Z</time>
      </trkpt>
      <trkpt lat="44.49947" lon="1.66501">
        <ele>289.97</ele>
        <time>2020-10-24T15:44:18Z</time>
      </trkpt>
      <trkpt lat="44.49948" lon="1.66499">
        <ele>289.49</ele>
        <time>2020-10-24T15:44:19Z</time>
      </trkpt>
      <trkpt lat="44.49949" lon="1.66498">
        <ele>289.49</ele>
        <time>2020-10-24T15:44:20Z</time>
      </trkpt>
      <trkpt lat="44.4995" lon="1.66497">
        <ele>289.01</ele>
        <time>2020-10-24T15:44:21Z</time>
      </trkpt>
      <trkpt lat="44.49951" lon="1.66496">
        <ele>289.01</ele>
        <time>2020-10-24T15:44:22Z</time>
      </trkpt>
      <trkpt lat="44.49952" lon="1.66495">
        <ele>289.01</ele>
        <time>2020-10-24T15:44:23Z</time>
      </trkpt>
      <trkpt lat="44.49953" lon="1.66494">
        <ele>288.53</ele>
        <time>2020-10-24T15:44:24Z</time>
      </trkpt>
      <trkpt lat="44.49971" lon="1.6649">
        <ele>285.65</ele>
        <time>2020-10-24T15:44:41Z</time>
      </trkpt>
      <trkpt lat="44.49987" lon="1.66497">
        <ele>282.77</ele>
        <time>2020-10-24T15:44:54Z</time>
      </trkpt>
      <trkpt lat="44.5" lon="1.665">
        <ele>280.36</ele>
        <time>2020-10-24T15:45:06Z</time>
      </trkpt>
      <trkpt lat="44.50019" lon="1.66502">
        <ele>277.96</ele>
        <time>2020-10-24T15:45:20Z</time>
      </trkpt>
      <trkpt lat="44.50026" lon="1.66501">
        <ele>277.48</ele>
        <time>2020-10-24T15:45:30Z</time>
      </trkpt>
      <trkpt lat="44.50027" lon="1.66502">
        <ele>277.48</ele>
        <time>2020-10-24T15:45:31Z</time>
      </trkpt>
      <trkpt lat="44.50041" lon="1.66502">
        <ele>274.59</ele>
        <time>2020-10-24T15:45:44Z</time>
      </trkpt>
      <trkpt lat="44.50046" lon="1.66502">
        <ele>273.63</ele>
        <time>2020-10-24T15:45:49Z</time>
      </trkpt>
      <trkpt lat="44.50048" lon="1.66502">
        <ele>273.15</ele>
        <time>2020-10-24T15:45:50Z</time>
      </trkpt>
      <trkpt lat="44.50049" lon="1.66502">
        <ele>273.15</ele>
        <time>2020-10-24T15:45:51Z</time>
      </trkpt>
      <trkpt lat="44.50068" lon="1.66499">
        <ele>270.27</ele>
        <time>2020-10-24T15:46:05Z</time>
      </trkpt>
      <trkpt lat="44.50079" lon="1.66497">
        <ele>268.35</ele>
        <time>2020-10-24T15:46:16Z</time>
      </trkpt>
      <trkpt lat="44.50097" lon="1.66492">
        <ele>266.42</ele>
        <time>2020-10-24T15:46:32Z</time>
      </trkpt>
      <trkpt lat="44.50102" lon="1.66492">
        <ele>265.46</ele>
        <time>2020-10-24T15:46:40Z</time>
      </trkpt>
      <trkpt lat="44.50114" lon="1.66488">
        <ele>263.54</ele>
        <time>2020-10-24T15:46:53Z</time>
      </trkpt>
      <trkpt lat="44.50117" lon="1.66487">
        <ele>263.54</ele>
        <time>2020-10-24T15:46:55Z</time>
      </trkpt>
      <trkpt lat="44.50118" lon="1.66486">
        <ele>263.06</ele>
        <time>2020-10-24T15:46:56Z</time>
      </trkpt>
      <trkpt lat="44.5012" lon="1.66485">
        <ele>262.58</ele>
        <time>2020-10-24T15:46:57Z</time>
      </trkpt>
      <trkpt lat="44.50121" lon="1.66484">
        <ele>263.06</ele>
        <time>2020-10-24T15:46:58Z</time>
      </trkpt>
      <trkpt lat="44.50135" lon="1.66479">
        <ele>261.14</ele>
        <time>2020-10-24T15:47:12Z</time>
      </trkpt>
      <trkpt lat="44.5014" lon="1.66479">
        <ele>260.65</ele>
        <time>2020-10-24T15:47:27Z</time>
      </trkpt>
      <trkpt lat="44.5014" lon="1.66477">
        <ele>259.21</ele>
        <time>2020-10-24T15:47:46Z</time>
      </trkpt>
      <trkpt lat="44.5014" lon="1.66477">
        <ele>259.69</ele>
        <time>2020-10-24T15:48:14Z</time>
      </trkpt>
      <trkpt lat="44.50139" lon="1.66477">
        <ele>259.21</ele>
        <time>2020-10-24T15:48:40Z</time>
      </trkpt>
      <trkpt lat="44.50141" lon="1.66477">
        <ele>259.21</ele>
        <time>2020-10-24T15:49:11Z</time>
      </trkpt>
      <trkpt lat="44.50138" lon="1.66477">
        <ele>259.21</ele>
        <time>2020-10-24T15:49:37Z</time>
      </trkpt>
      <trkpt lat="44.50139" lon="1.66478">
        <ele>258.73</ele>
        <time>2020-10-24T15:50:06Z</time>
      </trkpt>
      <trkpt lat="44.50139" lon="1.66477">
        <ele>259.21</ele>
        <time>2020-10-24T15:50:45Z</time>
      </trkpt>
      <trkpt lat="44.50141" lon="1.66477">
        <ele>259.21</ele>
        <time>2020-10-24T15:51:19Z</time>
      </trkpt>
      <trkpt lat="44.50142" lon="1.66477">
        <ele>259.21</ele>
        <time>2020-10-24T15:51:56Z</time>
      </trkpt>
      <trkpt lat="44.50141" lon="1.66474">
        <ele>259.69</ele>
        <time>2020-10-24T15:52:31Z</time>
      </trkpt>
      <trkpt lat="44.50143" lon="1.66474">
        <ele>259.69</ele>
        <time>2020-10-24T15:52:49Z</time>
      </trkpt>
      <trkpt lat="44.50143" lon="1.66476">
        <ele>259.69</ele>
        <time>2020-10-24T15:53:04Z</time>
      </trkpt>
      <trkpt lat="44.50144" lon="1.66475">
        <ele>259.21</ele>
        <time>2020-10-24T15:53:18Z</time>
      </trkpt>
      <trkpt lat="44.50142" lon="1.66476">
        <ele>259.69</ele>
        <time>2020-10-24T15:53:46Z</time>
      </trkpt>
      <trkpt lat="44.50145" lon="1.66475">
        <ele>259.21</ele>
        <time>2020-10-24T15:54:01Z</time>
      </trkpt>
      <trkpt lat="44.50153" lon="1.6647">
        <ele>258.25</ele>
        <time>2020-10-24T15:54:21Z</time>
      </trkpt>
      <trkpt lat="44.5017" lon="1.66466">
        <ele>255.85</ele>
        <time>2020-10-24T15:54:37Z</time>
      </trkpt>
      <trkpt lat="44.50177" lon="1.66463">
        <ele>254.41</ele>
        <time>2020-10-24T15:54:44Z</time>
      </trkpt>
      <trkpt lat="44.5019" lon="1.66462">
        <ele>252.48</ele>
        <time>2020-10-24T15:54:57Z</time>
      </trkpt>
      <trkpt lat="44.50206" lon="1.66455">
        <ele>249.6</ele>
        <time>2020-10-24T15:55:11Z</time>
      </trkpt>
      <trkpt lat="44.50226" lon="1.6645">
        <ele>247.2</ele>
        <time>2020-10-24T15:55:28Z</time>
      </trkpt>
      <trkpt lat="44.50243" lon="1.66441">
        <ele>243.83</ele>
        <time>2020-10-24T15:55:43Z</time>
      </trkpt>
      <trkpt lat="44.50248" lon="1.66438">
        <ele>243.83</ele>
        <time>2020-10-24T15:55:47Z</time>
      </trkpt>
      <trkpt lat="44.50249" lon="1.66437">
        <ele>243.35</ele>
        <time>2020-10-24T15:55:48Z</time>
      </trkpt>
      <trkpt lat="44.50251" lon="1.66436">
        <ele>243.35</ele>
        <time>2020-10-24T15:55:49Z</time>
      </trkpt>
      <trkpt lat="44.50262" lon="1.66418">
        <ele>241.43</ele>
        <time>2020-10-24T15:56:03Z</time>
      </trkpt>
      <trkpt lat="44.50267" lon="1.66414">
        <ele>240.95</ele>
        <time>2020-10-24T15:56:07Z</time>
      </trkpt>
      <trkpt lat="44.50268" lon="1.66409">
        <ele>241.43</ele>
        <time>2020-10-24T15:56:16Z</time>
      </trkpt>
      <trkpt lat="44.50271" lon="1.66387">
        <ele>239.51</ele>
        <time>2020-10-24T15:56:30Z</time>
      </trkpt>
      <trkpt lat="44.50275" lon="1.66364">
        <ele>237.58</ele>
        <time>2020-10-24T15:56:43Z</time>
      </trkpt>
      <trkpt lat="44.5028" lon="1.66342">
        <ele>235.66</ele>
        <time>2020-10-24T15:56:57Z</time>
      </trkpt>
      <trkpt lat="44.50283" lon="1.66324">
        <ele>234.7</ele>
        <time>2020-10-24T15:57:09Z</time>
      </trkpt>
      <trkpt lat="44.50286" lon="1.66299">
        <ele>232.78</ele>
        <time>2020-10-24T15:57:23Z</time>
      </trkpt>
      <trkpt lat="44.50288" lon="1.66288">
        <ele>231.33</ele>
        <time>2020-10-24T15:57:29Z</time>
      </trkpt>
      <trkpt lat="44.50291" lon="1.66267">
        <ele>230.37</ele>
        <time>2020-10-24T15:57:42Z</time>
      </trkpt>
      <trkpt lat="44.50294" lon="1.66245">
        <ele>228.93</ele>
        <time>2020-10-24T15:57:56Z</time>
      </trkpt>
      <trkpt lat="44.50299" lon="1.66223">
        <ele>227.49</ele>
        <time>2020-10-24T15:58:10Z</time>
      </trkpt>
      <trkpt lat="44.50299" lon="1.66216">
        <ele>226.05</ele>
        <time>2020-10-24T15:58:25Z</time>
      </trkpt>
      <trkpt lat="44.503" lon="1.66208">
        <ele>225.57</ele>
        <time>2020-10-24T15:58:42Z</time>
      </trkpt>
      <trkpt lat="44.50304" lon="1.6619">
        <ele>222.2</ele>
        <time>2020-10-24T15:58:56Z</time>
      </trkpt>
      <trkpt lat="44.50307" lon="1.66167">
        <ele>220.28</ele>
        <time>2020-10-24T15:59:12Z</time>
      </trkpt>
      <trkpt lat="44.50307" lon="1.66161">
        <ele>219.8</ele>
        <time>2020-10-24T15:59:26Z</time>
      </trkpt>
      <trkpt lat="44.50309" lon="1.66162">
        <ele>220.28</ele>
        <time>2020-10-24T15:59:39Z</time>
      </trkpt>
      <trkpt lat="44.50309" lon="1.66157">
        <ele>220.28</ele>
        <time>2020-10-24T16:00:08Z</time>
      </trkpt>
      <trkpt lat="44.50308" lon="1.66154">
        <ele>218.84</ele>
        <time>2020-10-24T16:00:10Z</time>
      </trkpt>
      <trkpt lat="44.50309" lon="1.66152">
        <ele>218.84</ele>
        <time>2020-10-24T16:00:11Z</time>
      </trkpt>
      <trkpt lat="44.5031" lon="1.66152">
        <ele>218.36</ele>
        <time>2020-10-24T16:00:12Z</time>
      </trkpt>
      <trkpt lat="44.50321" lon="1.66134">
        <ele>216.43</ele>
        <time>2020-10-24T16:00:26Z</time>
      </trkpt>
      <trkpt lat="44.50333" lon="1.66114">
        <ele>213.07</ele>
        <time>2020-10-24T16:00:42Z</time>
      </trkpt>
      <trkpt lat="44.50338" lon="1.66108">
        <ele>212.11</ele>
        <time>2020-10-24T16:00:47Z</time>
      </trkpt>
      <trkpt lat="44.5034" lon="1.66105">
        <ele>211.15</ele>
        <time>2020-10-24T16:00:50Z</time>
      </trkpt>
      <trkpt lat="44.50345" lon="1.66099">
        <ele>210.19</ele>
        <time>2020-10-24T16:01:00Z</time>
      </trkpt>
      <trkpt lat="44.50357" lon="1.66086">
        <ele>206.82</ele>
        <time>2020-10-24T16:01:13Z</time>
      </trkpt>
      <trkpt lat="44.50369" lon="1.66073">
        <ele>203.94</ele>
        <time>2020-10-24T16:01:26Z</time>
      </trkpt>
      <trkpt lat="44.50376" lon="1.66067">
        <ele>202.49</ele>
        <time>2020-10-24T16:01:35Z</time>
      </trkpt>
      <trkpt lat="44.50379" lon="1.66065">
        <ele>201.53</ele>
        <time>2020-10-24T16:01:39Z</time>
      </trkpt>
      <trkpt lat="44.5038" lon="1.66064">
        <ele>201.53</ele>
        <time>2020-10-24T16:01:40Z</time>
      </trkpt>
      <trkpt lat="44.50393" lon="1.66054">
        <ele>199.13</ele>
        <time>2020-10-24T16:01:56Z</time>
      </trkpt>
      <trkpt lat="44.50403" lon="1.66047">
        <ele>198.17</ele>
        <time>2020-10-24T16:02:06Z</time>
      </trkpt>
      <trkpt lat="44.50419" lon="1.66036">
        <ele>195.28</ele>
        <time>2020-10-24T16:02:23Z</time>
      </trkpt>
      <trkpt lat="44.50426" lon="1.6603">
        <ele>193.36</ele>
        <time>2020-10-24T16:02:39Z</time>
      </trkpt>
      <trkpt lat="44.50444" lon="1.66022">
        <ele>190.48</ele>
        <time>2020-10-24T16:02:54Z</time>
      </trkpt>
      <trkpt lat="44.50455" lon="1.66012">
        <ele>187.59</ele>
        <time>2020-10-24T16:03:07Z</time>
      </trkpt>
      <trkpt lat="44.50458" lon="1.6601">
        <ele>187.11</ele>
        <time>2020-10-24T16:03:10Z</time>
      </trkpt>
      <trkpt lat="44.50476" lon="1.65989">
        <ele>184.23</ele>
        <time>2020-10-24T16:03:24Z</time>
      </trkpt>
      <trkpt lat="44.50492" lon="1.6597">
        <ele>181.35</ele>
        <time>2020-10-24T16:03:41Z</time>
      </trkpt>
      <trkpt lat="44.50508" lon="1.65953">
        <ele>177.5</ele>
        <time>2020-10-24T16:03:59Z</time>
      </trkpt>
      <trkpt lat="44.50514" lon="1.65945">
        <ele>176.54</ele>
        <time>2020-10-24T16:04:08Z</time>
      </trkpt>
      <trkpt lat="44.50514" lon="1.65943">
        <ele>176.54</ele>
        <time>2020-10-24T16:04:09Z</time>
      </trkpt>
      <trkpt lat="44.50515" lon="1.65941">
        <ele>176.06</ele>
        <time>2020-10-24T16:04:10Z</time>
      </trkpt>
      <trkpt lat="44.50519" lon="1.65927">
        <ele>174.14</ele>
        <time>2020-10-24T16:04:21Z</time>
      </trkpt>
      <trkpt lat="44.5052" lon="1.65925">
        <ele>174.14</ele>
        <time>2020-10-24T16:04:22Z</time>
      </trkpt>
      <trkpt lat="44.50526" lon="1.65918">
        <ele>172.69</ele>
        <time>2020-10-24T16:04:29Z</time>
      </trkpt>
      <trkpt lat="44.50527" lon="1.65917">
        <ele>172.69</ele>
        <time>2020-10-24T16:04:30Z</time>
      </trkpt>
      <trkpt lat="44.5053" lon="1.65915">
        <ele>172.21</ele>
        <time>2020-10-24T16:04:33Z</time>
      </trkpt>
      <trkpt lat="44.50543" lon="1.65904">
        <ele>169.81</ele>
        <time>2020-10-24T16:04:46Z</time>
      </trkpt>
      <trkpt lat="44.50555" lon="1.65891">
        <ele>166.93</ele>
        <time>2020-10-24T16:05:00Z</time>
      </trkpt>
      <trkpt lat="44.50562" lon="1.65884">
        <ele>165.96</ele>
        <time>2020-10-24T16:05:07Z</time>
      </trkpt>
      <trkpt lat="44.50565" lon="1.6588">
        <ele>165.48</ele>
        <time>2020-10-24T16:05:10Z</time>
      </trkpt>
      <trkpt lat="44.50571" lon="1.65874">
        <ele>164.52</ele>
        <time>2020-10-24T16:05:17Z</time>
      </trkpt>
      <trkpt lat="44.50572" lon="1.65873">
        <ele>164.52</ele>
        <time>2020-10-24T16:05:18Z</time>
      </trkpt>
      <trkpt lat="44.50583" lon="1.65865">
        <ele>162.12</ele>
        <time>2020-10-24T16:05:34Z</time>
      </trkpt>
      <trkpt lat="44.50585" lon="1.65864">
        <ele>162.12</ele>
        <time>2020-10-24T16:05:41Z</time>
      </trkpt>
      <trkpt lat="44.50586" lon="1.65862">
        <ele>162.12</ele>
        <time>2020-10-24T16:05:42Z</time>
      </trkpt>
      <trkpt lat="44.50593" lon="1.65856">
        <ele>161.16</ele>
        <time>2020-10-24T16:05:56Z</time>
      </trkpt>
      <trkpt lat="44.50592" lon="1.65855">
        <ele>160.2</ele>
        <time>2020-10-24T16:06:13Z</time>
      </trkpt>
      <trkpt lat="44.50609" lon="1.65836">
        <ele>157.79</ele>
        <time>2020-10-24T16:06:31Z</time>
      </trkpt>
      <trkpt lat="44.5062" lon="1.65825">
        <ele>155.87</ele>
        <time>2020-10-24T16:06:45Z</time>
      </trkpt>
      <trkpt lat="44.50633" lon="1.65817">
        <ele>154.91</ele>
        <time>2020-10-24T16:06:59Z</time>
      </trkpt>
      <trkpt lat="44.50632" lon="1.65818">
        <ele>154.91</ele>
        <time>2020-10-24T16:07:15Z</time>
      </trkpt>
      <trkpt lat="44.50637" lon="1.65815">
        <ele>154.43</ele>
        <time>2020-10-24T16:07:38Z</time>
      </trkpt>
      <trkpt lat="44.50641" lon="1.65817">
        <ele>153.95</ele>
        <time>2020-10-24T16:07:46Z</time>
      </trkpt>
      <trkpt lat="44.50642" lon="1.65822">
        <ele>154.43</ele>
        <time>2020-10-24T16:07:58Z</time>
      </trkpt>
      <trkpt lat="44.50642" lon="1.65821">
        <ele>154.43</ele>
        <time>2020-10-24T16:08:13Z</time>
      </trkpt>
      <trkpt lat="44.5064" lon="1.65824">
        <ele>155.39</ele>
        <time>2020-10-24T16:08:27Z</time>
      </trkpt>
      <trkpt lat="44.50639" lon="1.65821">
        <ele>155.39</ele>
        <time>2020-10-24T16:08:42Z</time>
      </trkpt>
      <trkpt lat="44.50641" lon="1.65819">
        <ele>154.43</ele>
        <time>2020-10-24T16:08:49Z</time>
      </trkpt>
      <trkpt lat="44.50644" lon="1.6582">
        <ele>153.95</ele>
        <time>2020-10-24T16:08:57Z</time>
      </trkpt>
      <trkpt lat="44.50647" lon="1.65821">
        <ele>153.95</ele>
        <time>2020-10-24T16:09:04Z</time>
      </trkpt>
      <trkpt lat="44.50648" lon="1.65821">
        <ele>153.47</ele>
        <time>2020-10-24T16:09:05Z</time>
      </trkpt>
      <trkpt lat="44.50669" lon="1.65823">
        <ele>152.99</ele>
        <time>2020-10-24T16:09:22Z</time>
      </trkpt>
      <trkpt lat="44.50673" lon="1.65826">
        <ele>152.99</ele>
        <time>2020-10-24T16:09:42Z</time>
      </trkpt>
      <trkpt lat="44.50672" lon="1.65827">
        <ele>152.99</ele>
        <time>2020-10-24T16:10:10Z</time>
      </trkpt>
      <trkpt lat="44.5068" lon="1.65828">
        <ele>152.99</ele>
        <time>2020-10-24T16:10:28Z</time>
      </trkpt>
      <trkpt lat="44.50674" lon="1.6583">
        <ele>152.51</ele>
        <time>2020-10-24T16:10:54Z</time>
      </trkpt>
      <trkpt lat="44.50685" lon="1.6584">
        <ele>151.54</ele>
        <time>2020-10-24T16:11:08Z</time>
      </trkpt>
      <trkpt lat="44.50693" lon="1.65846">
        <ele>152.03</ele>
        <time>2020-10-24T16:11:17Z</time>
      </trkpt>
      <trkpt lat="44.50694" lon="1.6585">
        <ele>151.54</ele>
        <time>2020-10-24T16:11:33Z</time>
      </trkpt>
      <trkpt lat="44.507" lon="1.65855">
        <ele>151.06</ele>
        <time>2020-10-24T16:11:51Z</time>
      </trkpt>
      <trkpt lat="44.50711" lon="1.65862">
        <ele>150.58</ele>
        <time>2020-10-24T16:12:07Z</time>
      </trkpt>
      <trkpt lat="44.50716" lon="1.65869">
        <ele>150.1</ele>
        <time>2020-10-24T16:12:23Z</time>
      </trkpt>
      <trkpt lat="44.50729" lon="1.65884">
        <ele>149.14</ele>
        <time>2020-10-24T16:12:39Z</time>
      </trkpt>
      <trkpt lat="44.50733" lon="1.65894">
        <ele>148.66</ele>
        <time>2020-10-24T16:12:53Z</time>
      </trkpt>
      <trkpt lat="44.50731" lon="1.6589">
        <ele>148.66</ele>
        <time>2020-10-24T16:13:06Z</time>
      </trkpt>
      <trkpt lat="44.50733" lon="1.65893">
        <ele>148.66</ele>
        <time>2020-10-24T16:13:11Z</time>
      </trkpt>
      <trkpt lat="44.5074" lon="1.65902">
        <ele>147.7</ele>
        <time>2020-10-24T16:13:21Z</time>
      </trkpt>
      <trkpt lat="44.50745" lon="1.65908">
        <ele>148.18</ele>
        <time>2020-10-24T16:13:37Z</time>
      </trkpt>
      <trkpt lat="44.5075" lon="1.65906">
        <ele>148.18</ele>
        <time>2020-10-24T16:13:55Z</time>
      </trkpt>
      <trkpt lat="44.50748" lon="1.65898">
        <ele>147.7</ele>
        <time>2020-10-24T16:14:14Z</time>
      </trkpt>
      <trkpt lat="44.50752" lon="1.65892">
        <ele>147.22</ele>
        <time>2020-10-24T16:14:21Z</time>
      </trkpt>
      <trkpt lat="44.50756" lon="1.65879">
        <ele>146.26</ele>
        <time>2020-10-24T16:14:38Z</time>
      </trkpt>
      <trkpt lat="44.50763" lon="1.65866">
        <ele>145.3</ele>
        <time>2020-10-24T16:14:53Z</time>
      </trkpt>
      <trkpt lat="44.50769" lon="1.65848">
        <ele>144.34</ele>
        <time>2020-10-24T16:15:09Z</time>
      </trkpt>
      <trkpt lat="44.50777" lon="1.65825">
        <ele>143.85</ele>
        <time>2020-10-24T16:15:27Z</time>
      </trkpt>
      <trkpt lat="44.50775" lon="1.65819">
        <ele>143.85</ele>
        <time>2020-10-24T16:15:40Z</time>
      </trkpt>
      <trkpt lat="44.50785" lon="1.65815">
        <ele>144.34</ele>
        <time>2020-10-24T16:16:01Z</time>
      </trkpt>
      <trkpt lat="44.50786" lon="1.65816">
        <ele>144.34</ele>
        <time>2020-10-24T16:16:16Z</time>
      </trkpt>
      <trkpt lat="44.5078" lon="1.65821">
        <ele>144.34</ele>
        <time>2020-10-24T16:16:38Z</time>
      </trkpt>
      <trkpt lat="44.5078" lon="1.65816">
        <ele>144.82</ele>
        <time>2020-10-24T16:16:39Z</time>
      </trkpt>
      <trkpt lat="44.50784" lon="1.65805">
        <ele>144.82</ele>
        <time>2020-10-24T16:16:53Z</time>
      </trkpt>
      <trkpt lat="44.50787" lon="1.6579">
        <ele>144.82</ele>
        <time>2020-10-24T16:17:05Z</time>
      </trkpt>
      <trkpt lat="44.5079" lon="1.65786">
        <ele>144.82</ele>
        <time>2020-10-24T16:17:09Z</time>
      </trkpt>
      <trkpt lat="44.50789" lon="1.65775">
        <ele>144.34</ele>
        <time>2020-10-24T16:17:16Z</time>
      </trkpt>
      <trkpt lat="44.50788" lon="1.65774">
        <ele>144.34</ele>
        <time>2020-10-24T16:17:17Z</time>
      </trkpt>
      <trkpt lat="44.50782" lon="1.6576">
        <ele>143.85</ele>
        <time>2020-10-24T16:17:32Z</time>
      </trkpt>
      <trkpt lat="44.50778" lon="1.65741">
        <ele>143.85</ele>
        <time>2020-10-24T16:17:54Z</time>
      </trkpt>
      <trkpt lat="44.50768" lon="1.65728">
        <ele>143.37</ele>
        <time>2020-10-24T16:18:07Z</time>
      </trkpt>
      <trkpt lat="44.50761" lon="1.65718">
        <ele>143.85</ele>
        <time>2020-10-24T16:18:23Z</time>
      </trkpt>
      <trkpt lat="44.50752" lon="1.6571">
        <ele>143.37</ele>
        <time>2020-10-24T16:18:37Z</time>
      </trkpt>
      <trkpt lat="44.50747" lon="1.65704">
        <ele>143.85</ele>
        <time>2020-10-24T16:18:48Z</time>
      </trkpt>
      <trkpt lat="44.50735" lon="1.65698">
        <ele>143.37</ele>
        <time>2020-10-24T16:19:06Z</time>
      </trkpt>
      <trkpt lat="44.5073" lon="1.65691">
        <ele>143.37</ele>
        <time>2020-10-24T16:19:22Z</time>
      </trkpt>
      <trkpt lat="44.50728" lon="1.65685">
        <ele>143.85</ele>
        <time>2020-10-24T16:19:39Z</time>
      </trkpt>
      <trkpt lat="44.50722" lon="1.65677">
        <ele>144.34</ele>
        <time>2020-10-24T16:19:54Z</time>
      </trkpt>
      <trkpt lat="44.50716" lon="1.65656">
        <ele>145.3</ele>
        <time>2020-10-24T16:20:12Z</time>
      </trkpt>
      <trkpt lat="44.50707" lon="1.65636">
        <ele>146.26</ele>
        <time>2020-10-24T16:20:30Z</time>
      </trkpt>
      <trkpt lat="44.50701" lon="1.65638">
        <ele>146.74</ele>
        <time>2020-10-24T16:20:38Z</time>
      </trkpt>
      <trkpt lat="44.50667" lon="1.65636">
        <ele>147.7</ele>
        <time>2020-10-24T16:21:00Z</time>
      </trkpt>
      <trkpt lat="44.50659" lon="1.65631">
        <ele>147.22</ele>
        <time>2020-10-24T16:21:17Z</time>
      </trkpt>
      <trkpt lat="44.50649" lon="1.65634">
        <ele>146.26</ele>
        <time>2020-10-24T16:21:32Z</time>
      </trkpt>
      <trkpt lat="44.50641" lon="1.6564">
        <ele>143.85</ele>
        <time>2020-10-24T16:21:49Z</time>
      </trkpt>
      <trkpt lat="44.50641" lon="1.65653">
        <ele>144.34</ele>
        <time>2020-10-24T16:22:04Z</time>
      </trkpt>
      <trkpt lat="44.50652" lon="1.65636">
        <ele>146.26</ele>
        <time>2020-10-24T16:22:22Z</time>
      </trkpt>
      <trkpt lat="44.50652" lon="1.65634">
        <ele>147.22</ele>
        <time>2020-10-24T16:22:31Z</time>
      </trkpt>
      <trkpt lat="44.50639" lon="1.656">
        <ele>147.22</ele>
        <time>2020-10-24T16:22:51Z</time>
      </trkpt>
      <trkpt lat="44.50635" lon="1.65582">
        <ele>148.18</ele>
        <time>2020-10-24T16:23:06Z</time>
      </trkpt>
      <trkpt lat="44.50637" lon="1.65568">
        <ele>149.14</ele>
        <time>2020-10-24T16:23:24Z</time>
      </trkpt>
      <trkpt lat="44.50646" lon="1.65561">
        <ele>151.06</ele>
        <time>2020-10-24T16:23:38Z</time>
      </trkpt>
      <trkpt lat="44.50648" lon="1.65544">
        <ele>152.51</ele>
        <time>2020-10-24T16:23:56Z</time>
      </trkpt>
      <trkpt lat="44.50647" lon="1.65539">
        <ele>152.51</ele>
        <time>2020-10-24T16:24:10Z</time>
      </trkpt>
      <trkpt lat="44.50653" lon="1.65539">
        <ele>152.51</ele>
        <time>2020-10-24T16:24:29Z</time>
      </trkpt>
      <trkpt lat="44.5066" lon="1.65522">
        <ele>152.51</ele>
        <time>2020-10-24T16:24:46Z</time>
      </trkpt>
      <trkpt lat="44.50662" lon="1.65504">
        <ele>151.06</ele>
        <time>2020-10-24T16:25:03Z</time>
      </trkpt>
      <trkpt lat="44.50659" lon="1.65481">
        <ele>149.62</ele>
        <time>2020-10-24T16:25:22Z</time>
      </trkpt>
      <trkpt lat="44.5065" lon="1.65482">
        <ele>149.62</ele>
        <time>2020-10-24T16:25:36Z</time>
      </trkpt>
      <trkpt lat="44.50652" lon="1.65482">
        <ele>150.1</ele>
        <time>2020-10-24T16:25:38Z</time>
      </trkpt>
      <trkpt lat="44.50655" lon="1.65467">
        <ele>150.1</ele>
        <time>2020-10-24T16:25:54Z</time>
      </trkpt>
      <trkpt lat="44.50662" lon="1.65457">
        <ele>149.62</ele>
        <time>2020-10-24T16:26:09Z</time>
      </trkpt>
      <trkpt lat="44.5066" lon="1.65458">
        <ele>150.58</ele>
        <time>2020-10-24T16:26:27Z</time>
      </trkpt>
      <trkpt lat="44.50664" lon="1.6545">
        <ele>149.62</ele>
        <time>2020-10-24T16:26:42Z</time>
      </trkpt>
      <trkpt lat="44.50662" lon="1.6545">
        <ele>150.1</ele>
        <time>2020-10-24T16:27:12Z</time>
      </trkpt>
      <trkpt lat="44.50662" lon="1.65459">
        <ele>150.1</ele>
        <time>2020-10-24T16:27:33Z</time>
      </trkpt>
      <trkpt lat="44.50664" lon="1.65449">
        <ele>150.1</ele>
        <time>2020-10-24T16:27:50Z</time>
      </trkpt>
      <trkpt lat="44.50656" lon="1.65444">
        <ele>150.1</ele>
        <time>2020-10-24T16:28:08Z</time>
      </trkpt>
      <trkpt lat="44.50653" lon="1.65438">
        <ele>150.58</ele>
        <time>2020-10-24T16:28:21Z</time>
      </trkpt>
      <trkpt lat="44.50656" lon="1.65415">
        <ele>151.06</ele>
        <time>2020-10-24T16:28:38Z</time>
      </trkpt>
      <trkpt lat="44.50652" lon="1.65389">
        <ele>151.54</ele>
        <time>2020-10-24T16:28:56Z</time>
      </trkpt>
      <trkpt lat="44.50626" lon="1.65366">
        <ele>152.03</ele>
        <time>2020-10-24T16:29:15Z</time>
      </trkpt>
      <trkpt lat="44.50608" lon="1.65365">
        <ele>151.54</ele>
        <time>2020-10-24T16:29:32Z</time>
      </trkpt>
      <trkpt lat="44.50609" lon="1.6536">
        <ele>152.03</ele>
        <time>2020-10-24T16:29:47Z</time>
      </trkpt>
      <trkpt lat="44.50611" lon="1.65355">
        <ele>152.51</ele>
        <time>2020-10-24T16:30:06Z</time>
      </trkpt>
      <trkpt lat="44.50611" lon="1.6536">
        <ele>151.54</ele>
        <time>2020-10-24T16:30:24Z</time>
      </trkpt>
      <trkpt lat="44.50615" lon="1.65365">
        <ele>152.03</ele>
        <time>2020-10-24T16:30:45Z</time>
      </trkpt>
      <trkpt lat="44.50623" lon="1.65365">
        <ele>152.03</ele>
        <time>2020-10-24T16:31:15Z</time>
      </trkpt>
      <trkpt lat="44.5061" lon="1.6537">
        <ele>152.03</ele>
        <time>2020-10-24T16:31:27Z</time>
      </trkpt>
      <trkpt lat="44.50614" lon="1.65371">
        <ele>151.54</ele>
        <time>2020-10-24T16:31:31Z</time>
      </trkpt>
      <trkpt lat="44.50615" lon="1.65369">
        <ele>151.54</ele>
        <time>2020-10-24T16:31:33Z</time>
      </trkpt>
      <trkpt lat="44.50615" lon="1.6536">
        <ele>151.54</ele>
        <time>2020-10-24T16:31:38Z</time>
      </trkpt>
      <trkpt lat="44.5062" lon="1.65346">
        <ele>152.03</ele>
        <time>2020-10-24T16:31:48Z</time>
      </trkpt>
    </trkseg>
  </trk>
</gpx>